GFSWCAN_con_3kmhel_000.txt.gz
Helicity
53 48 34 36 36 53 36 8 5 5 9 24 63 96 116 147 170 55 112 129 175 161 102 148 95 59 83 61 8 -4 -5 -30 -1 26 83 105 32 39 62 42 15 8 8 -15 -9 -17 -2 -5 5 -16 42 64 19 14
53 41 36 27 36 50 48 23 0 10 -2 16 27 76 97 101 180 104 63 199 150 74 72 62 54 57 43 20 25 15 0 -39 -11 30 66 69 29 27 53 78 23 27 19 13 14 5 2 3 4 23 32 41 -5 25
46 28 32 24 24 54 60 34 9 4 1 7 25 43 101 106 161 160 83 176 115 112 97 86 44 49 50 49 63 -2 6 43 20 44 48 69 28 23 29 34 10 18 12 38 36 26 1 -21 -2 28 33 18 3 39
44 34 41 33 31 47 63 51 21 4 8 14 24 45 95 112 134 131 108 154 126 94 78 70 51 36 47 44 54 67 32 50 26 39 89 57 46 41 18 25 27 8 18 32 72 24 -26 10 11 12 15 39 91 99
43 41 48 51 40 44 57 63 48 20 -7 16 26 62 87 134 116 74 157 116 133 109 72 68 42 33 33 34 36 45 28 -8 33 58 57 16 45 44 34 28 44 41 45 48 26 27 21 58 8 20 19 22 42 93
44 46 63 66 58 50 62 66 55 33 14 12 29 70 128 150 135 74 103 37 73 100 92 95 48 29 34 32 20 24 -12 -13 41 56 91 48 59 90 16 24 19 46 69 50 24 32 85 80 50 38 61 40 53 84
48 45 75 75 74 61 61 62 43 30 29 -1 36 76 150 173 104 84 191 146 230 117 78 70 88 18 11 9 8 6 14 -5 28 12 68 85 99 72 30 77 68 10 47 66 46 69 83 36 41 82 150 147 154 177
44 46 70 70 84 77 60 62 40 34 32 24 56 88 130 154 122 141 177 193 130 119 85 60 40 38 8 0 2 14 -10 -38 21 46 66 104 104 98 30 11 26 93 92 123 101 70 64 123 194 179 157 188 224 191
38 37 60 60 81 86 65 60 40 41 59 72 72 88 42 97 130 172 226 257 70 133 105 53 41 20 21 1 5 4 11 -15 7 33 54 62 57 3 5 -15 21 84 58 94 155 133 129 162 161 152 178 195 226 163
33 35 48 51 67 85 70 63 48 25 60 30 12 61 155 148 208 157 164 108 118 130 119 57 70 42 25 -13 -14 11 21 -1 12 22 51 36 14 22 -6 -4 5 27 54 130 166 144 129 109 122 135 132 149 168 153
26 32 38 40 52 69 67 74 47 20 67 37 34 98 184 186 102 225 180 147 132 135 79 74 95 64 40 23 -4 17 13 3 10 14 31 26 41 61 54 -18 39 61 90 46 22 71 74 121 162 166 184 204 209 193
23 27 33 34 36 53 76 87 36 111 144 92 105 130 166 136 91 144 188 235 141 114 70 89 150 125 74 66 40 30 25 19 4 12 14 28 37 34 75 53 45 76 76 57 41 82 126 185 184 187 198 204 204 200
15 16 31 39 27 59 80 75 34 35 44 4 66 162 175 119 71 172 243 175 113 85 62 89 116 105 132 92 72 55 40 16 24 19 15 4 24 40 53 69 110 161 173 137 125 146 185 233 210 210 229 206 218 201
15 15 23 30 40 58 65 79 28 45 37 -71 86 210 165 170 132 137 160 165 124 81 27 67 148 118 134 117 66 48 50 47 29 20 13 7 -1 34 42 73 92 125 159 173 183 201 225 263 281 248 241 196 209 180
12 12 16 49 50 26 47 78 53 41 8 -94 54 150 100 112 93 127 129 113 111 127 95 69 116 87 121 114 93 73 53 49 21 20 22 19 6 27 49 73 107 161 196 209 205 230 258 294 307 302 244 221 218 195
15 20 64 50 21 19 46 109 84 42 -9 -83 -59 113 80 73 119 89 50 85 96 88 72 141 126 83 81 100 107 52 104 65 50 37 20 7 4 0 26 63 104 157 187 201 208 237 271 280 301 309 274 242 207 177
27 51 41 27 17 33 66 105 87 88 39 -9 -130 -22 68 93 98 116 81 74 68 117 177 248 201 124 144 115 163 163 132 64 60 33 20 12 5 10 38 76 119 154 198 225 250 268 300 305 321 304 294 229 216 184
64 54 31 30 38 69 57 74 55 68 76 54 -49 -181 -57 -6 67 138 105 50 134 128 50 215 193 194 153 105 144 80 84 83 55 39 15 16 15 26 47 98 142 174 208 232 255 288 306 311 310 293 275 240 238 193
54 45 41 55 51 72 63 74 65 58 52 57 35 -64 -180 -110 23 35 84 101 97 121 208 201 236 144 144 132 94 63 61 49 68 89 71 68 56 67 98 152 189 208 226 237 260 279 263 234 254 243 235 201 217 165
63 65 73 60 69 68 56 80 97 63 67 54 69 51 7 -86 -91 52 31 49 61 115 112 179 251 243 105 154 130 97 84 70 70 82 87 59 40 79 98 144 184 203 254 284 300 325 353 349 301 240 203 176 183 144
77 78 83 86 93 91 102 110 116 98 78 87 60 58 61 41 6 -17 82 86 -8 84 89 109 106 161 254 231 136 115 121 84 42 36 44 50 6 63 134 183 222 215 250 256 293 292 297 268 223 224 210 193 181 162
69 85 89 109 114 110 123 154 126 110 124 113 95 92 91 56 -4 27 52 97 39 27 80 104 134 139 220 311 265 170 159 119 86 77 83 95 98 107 146 200 240 247 245 269 281 285 302 291 252 219 218 201 185 175
91 94 113 122 118 130 131 116 151 142 130 116 128 130 98 70 20 57 47 62 85 83 79 54 69 92 125 166 320 266 207 118 96 78 38 56 128 163 181 192 242 313 337 308 281 319 295 241 226 251 222 217 216 195
111 106 99 104 127 114 153 169 161 177 170 163 173 138 112 82 62 58 55 106 89 11 12 54 66 81 49 75 79 113 163 107 84 100 82 124 175 214 244 242 247 280 295 348 355 354 299 279 230 233 223 229 201 188
110 84 124 131 160 167 169 177 188 205 178 179 188 142 122 95 69 60 75 68 22 -17 -53 -38 8 39 59 77 95 139 151 129 92 81 122 159 242 298 341 316 281 279 321 423 407 370 328 283 252 232 219 207 201 191
94 125 152 123 155 163 159 194 181 167 190 176 137 111 123 101 91 52 74 37 23 -8 -19 -27 0 59 90 75 85 100 125 148 126 128 150 142 173 239 300 345 326 343 299 283 333 328 314 269 237 225 218 172 160 160
126 129 157 155 182 208 220 231 218 212 207 180 139 118 101 86 41 66 59 11 -35 -29 -17 -21 -18 13 77 121 107 73 70 107 127 129 168 195 194 210 258 355 359 434 378 347 287 270 276 248 250 251 230 173 117 99
115 144 150 161 201 205 232 223 200 177 162 122 123 101 88 83 100 77 31 -17 -38 -28 -17 -11 -18 7 61 94 95 99 117 125 157 212 291 325 305 290 295 310 314 301 340 308 270 253 245 224 237 212 161 142 120 96
159 166 212 201 219 196 159 176 175 168 169 174 126 84 102 132 146 110 47 5 0 -11 -17 -6 -9 -3 30 72 116 128 115 124 127 153 214 237 287 353 354 376 411 412 360 367 293 206 189 227 222 197 174 151 121 106
167 203 245 238 200 145 152 168 165 166 149 129 107 97 105 119 94 94 67 19 8 8 -8 -6 8 30 56 86 129 156 160 127 116 190 247 240 271 290 324 331 382 405 379 382 294 247 227 258 244 215 171 121 89 69
198 247 267 215 149 136 134 143 149 162 131 88 95 94 95 86 72 70 65 16 3 2 -4 17 57 86 110 139 158 168 177 207 182 201 228 256 275 298 305 332 369 355 291 272 261 208 204 208 175 139 111 88 61 58
210 203 192 168 139 114 130 138 131 141 79 69 69 85 79 94 62 59 30 4 12 18 29 51 87 116 148 150 119 76 63 80 89 145 178 244 286 277 263 254 234 227 264 264 215 182 178 150 113 89 73 67 66 70
216 201 194 179 157 141 117 138 120 88 57 50 59 72 86 83 52 48 12 -3 10 16 37 62 64 58 67 85 96 93 113 126 110 107 120 156 175 203 239 251 261 250 228 214 192 153 132 109 86 70 72 78 80 80

GFSWCAN_con_3kmhel_003.txt.gz
Helicity
28 27 23 43 63 59 47 43 68 49 19 -0 11 32 56 84 82 58 52 26 56 135 127 71 50 65 103 43 11 -3 -11 -13 8 2 1 36 19 22 38 33 43 19 26 1 2 7 11 38 16 24 104 164 66 16
31 21 25 45 67 77 61 36 64 73 35 -3 17 30 44 110 103 62 36 89 122 102 88 110 87 61 50 24 42 17 6 1 -29 -23 6 26 26 40 54 80 46 62 14 23 26 -6 2 33 82 104 118 126 34 3
26 22 31 49 70 88 79 51 57 78 62 17 11 39 52 89 125 75 26 30 69 92 68 60 29 44 59 53 47 19 -3 -11 -13 6 6 31 36 49 69 62 53 21 22 39 28 11 -7 11 24 30 31 55 12 6
27 23 41 51 72 94 90 77 61 73 64 40 -19 22 55 94 106 117 41 50 52 99 92 57 63 51 60 72 58 60 55 50 -4 -0 4 31 24 28 27 30 39 22 29 29 26 33 -1 6 19 8 5 12 27 62
21 23 48 53 67 89 91 92 73 69 48 25 -1 -25 41 81 98 94 111 29 100 117 102 75 75 64 59 46 46 63 71 27 -40 -7 29 40 33 15 12 26 9 45 57 47 17 -3 31 27 28 31 33 24 49 74
22 24 43 53 58 67 76 86 72 66 34 19 25 -14 3 77 105 96 83 50 52 78 97 80 63 60 47 34 43 56 51 36 -8 14 32 44 55 68 -7 5 -17 12 37 42 14 22 42 43 48 30 35 32 69 102
19 28 41 46 59 54 62 65 62 44 14 16 41 16 17 66 56 53 125 93 164 153 145 91 78 44 37 33 32 44 41 22 -9 13 28 16 32 63 59 40 70 27 14 40 46 44 57 31 39 43 81 105 156 185
12 16 43 41 57 54 54 50 56 25 1 32 42 38 37 22 52 48 15 116 106 146 127 107 85 74 22 20 26 32 -1 -7 -48 -12 27 17 34 66 18 44 25 48 76 64 65 73 55 76 113 125 127 175 219 200
5 14 39 38 53 51 48 48 54 25 25 43 14 28 -9 34 86 65 106 144 108 116 139 74 55 79 24 15 -4 -0 11 -20 -19 -5 31 23 36 24 5 7 -6 32 50 45 115 108 84 110 138 148 144 162 211 166
4 10 36 35 46 50 41 42 55 38 45 10 50 2 45 67 186 179 92 155 127 102 78 30 68 42 28 8 -1 2 -1 -2 -2 -3 6 21 19 59 -21 -4 -3 7 65 107 130 120 131 121 118 116 79 99 133 139
2 11 25 27 37 47 37 53 79 41 82 78 22 -17 72 142 173 91 108 112 128 98 24 8 52 71 39 44 11 9 5 5 -0 -6 7 31 67 49 71 -40 -56 14 79 72 28 68 55 61 117 157 179 211 228 194
2 10 19 18 31 41 36 69 75 127 138 88 65 99 123 178 135 74 87 167 97 83 58 43 62 97 73 54 17 12 12 19 2 8 7 4 -1 21 53 52 -14 28 62 39 6 16 59 126 170 201 224 228 214 200
4 16 17 15 20 37 49 58 78 30 47 32 6 112 91 150 121 176 161 125 80 61 73 56 58 61 85 70 67 50 28 19 21 18 -2 -12 -4 11 31 48 70 59 68 71 58 88 140 207 207 209 240 213 212 215
8 20 17 17 20 50 28 46 72 48 41 -17 -50 -148 78 86 84 144 215 184 162 99 76 23 67 50 82 92 59 40 48 49 32 29 2 -1 -7 16 38 45 59 94 113 114 110 132 172 229 252 216 218 192 215 203
18 17 19 44 60 18 16 37 71 71 46 -7 -34 -136 -127 35 10 60 120 172 137 109 114 63 44 27 51 96 94 88 61 47 20 13 25 20 15 25 33 40 53 108 156 152 155 178 209 240 269 293 253 234 242 223
31 31 51 55 36 22 13 54 95 82 54 17 -19 -64 -93 41 32 44 57 112 97 127 112 80 92 85 80 85 79 50 72 39 19 15 32 28 25 6 1 23 53 97 139 177 183 203 231 245 277 315 288 266 232 205
39 33 28 27 32 36 44 72 71 67 47 65 53 -37 -59 -52 132 62 57 37 91 98 137 149 150 111 147 107 104 54 112 66 58 65 47 21 11 12 18 33 64 112 154 183 222 246 293 313 332 339 335 268 255 218
57 41 27 37 49 52 53 68 58 52 42 41 44 13 -71 -70 -76 88 45 51 78 85 122 109 187 211 186 108 116 61 30 53 47 69 59 40 15 12 22 44 58 103 141 172 204 246 282 306 319 311 317 263 282 254
38 38 47 61 56 59 55 63 58 39 42 33 26 34 24 -64 -124 -84 64 64 56 61 88 75 117 148 183 185 140 81 37 42 44 60 85 82 63 57 73 108 102 126 172 191 203 225 252 253 279 316 283 282 287 214
84 78 74 69 64 56 58 71 79 59 44 54 40 35 35 50 35 -28 -16 92 94 98 134 147 125 128 166 178 111 67 61 76 68 87 94 84 81 83 86 109 134 163 243 287 293 301 338 351 311 281 266 240 250 186
78 76 86 82 75 92 86 86 86 74 75 87 78 60 46 37 44 54 55 84 85 77 135 163 122 110 42 42 59 117 194 137 160 153 157 123 93 92 106 111 154 180 223 213 245 240 240 252 276 293 269 262 225 196
76 82 78 100 86 97 107 148 139 118 105 110 98 90 81 78 64 66 75 112 130 138 159 150 114 66 74 82 128 52 159 205 179 154 184 170 165 136 122 138 187 191 201 212 237 266 268 277 274 274 289 267 242 224
98 95 91 100 102 104 107 144 124 95 121 116 122 93 90 95 85 91 113 106 101 101 72 77 83 55 88 74 39 91 49 149 253 225 175 155 125 130 126 138 179 239 246 269 296 325 355 294 279 325 298 276 265 241
112 94 70 79 104 93 122 127 131 148 151 156 142 107 121 131 141 173 159 123 99 87 61 37 29 44 24 77 73 -13 29 84 166 282 258 222 163 131 141 179 183 215 241 305 341 380 369 348 313 327 306 280 234 218
96 61 88 80 109 146 149 148 154 158 142 169 177 142 170 161 180 181 166 91 109 110 100 59 54 32 52 26 49 120 89 45 69 143 317 288 266 237 216 226 247 247 274 369 398 432 428 390 358 320 270 234 213 193
74 72 82 74 100 115 128 155 117 117 177 192 159 156 193 196 199 140 100 71 96 72 35 24 51 95 59 5 38 77 134 105 115 99 106 149 181 189 223 235 266 257 255 328 423 472 431 394 379 311 257 182 170 205
87 79 116 165 177 190 202 201 198 191 212 181 186 207 210 205 145 84 95 117 116 60 26 -7 -2 39 60 47 33 69 98 122 73 82 127 180 187 163 191 236 244 320 328 360 353 359 359 380 354 331 297 229 174 157
93 136 119 131 197 208 219 210 187 170 171 182 241 212 219 204 152 103 105 110 101 74 24 10 20 24 19 27 22 59 80 89 135 137 143 223 264 251 244 272 296 347 331 379 408 350 335 330 311 263 229 193 182 126
138 157 196 185 186 173 173 191 178 173 202 237 236 228 218 174 142 125 116 113 92 68 29 -0 10 14 11 16 14 34 61 67 130 135 107 151 200 201 196 259 329 381 341 426 321 262 281 292 275 246 225 221 166 151
150 209 213 174 188 180 188 182 158 148 157 194 217 209 153 125 112 124 132 112 81 53 44 24 15 16 18 21 33 33 59 71 95 123 142 152 165 198 245 323 408 436 464 486 485 406 331 360 259 290 281 210 176 141
202 187 192 199 178 177 173 163 139 137 158 164 186 177 132 99 103 104 107 85 81 57 41 22 18 21 18 32 38 41 66 103 93 153 163 204 238 233 270 320 355 382 410 418 376 348 328 269 263 227 194 169 116 96
151 141 169 167 167 151 161 166 156 153 133 140 132 146 104 103 95 104 75 69 51 38 21 10 16 18 13 30 71 82 92 142 148 172 240 297 262 253 311 333 322 347 385 383 342 227 212 213 181 175 157 129 94 68
160 176 207 205 169 149 142 167 154 119 113 122 122 109 89 79 69 74 58 51 29 10 -8 -15 -9 -11 15 44 79 110 142 142 120 160 165 125 149 186 228 266 294 310 291 232 190 230 215 217 195 146 113 78 59 43

GFSWCAN_con_3kmhel_006.txt.gz
Helicity
17 22 24 30 46 52 58 60 72 87 86 63 25 34 71 96 109 74 41 -12 19 65 64 48 20 31 44 40 17 3 -15 3 6 -12 7 -16 3 4 18 24 1 -25 -3 0 7 8 4 55 39 31 64 73 61 32
16 21 16 25 44 54 64 62 71 98 87 91 34 14 41 76 101 89 28 29 -22 62 104 70 62 63 53 1 12 5 19 11 -5 -26 -30 -9 14 0 30 52 36 18 -2 24 9 7 14 6 67 72 75 65 26 20
23 18 11 26 40 52 67 61 66 97 108 84 34 5 12 64 96 83 70 54 27 63 87 49 48 38 51 57 64 9 18 9 7 31 8 5 18 21 45 62 53 13 16 16 18 6 -16 -9 -5 14 38 11 -5 -7
19 12 20 26 32 48 61 61 59 83 103 75 15 6 6 33 99 106 90 72 40 102 62 56 46 59 62 56 52 53 38 49 27 32 -18 14 34 36 39 44 42 33 25 20 29 8 22 10 7 1 0 -8 14 15
15 10 22 31 33 40 51 54 51 73 73 43 -5 18 20 0 74 111 125 107 56 63 77 78 68 56 62 47 26 41 33 36 -10 -12 -24 7 9 42 16 4 -9 36 28 48 31 15 7 24 26 19 27 20 22 62
6 9 14 22 28 32 44 49 48 69 44 12 14 32 22 1 36 108 133 61 50 49 81 114 73 71 56 45 31 25 39 29 16 -2 -24 17 35 56 4 -27 -22 33 51 20 22 16 19 38 36 32 42 25 28 84
-5 9 6 10 29 27 37 44 48 60 29 11 26 29 -2 4 16 107 176 115 117 102 96 128 82 60 56 50 34 30 46 31 23 7 3 41 30 31 61 11 21 15 35 11 31 41 21 28 32 37 60 59 79 125
-12 -3 -2 9 29 29 35 45 49 52 31 28 18 -4 -5 -9 27 103 104 99 75 155 146 89 68 70 33 32 24 27 25 18 -3 -1 8 3 30 26 -18 56 23 66 61 48 54 61 51 71 75 87 82 93 131 168
-2 -14 -1 10 32 29 28 40 52 63 39 -2 -31 -25 1 27 98 123 140 95 86 157 175 82 58 62 39 32 22 22 31 7 14 -5 0 12 28 13 41 7 11 28 35 36 96 84 60 55 83 89 95 92 143 131
3 -2 2 8 29 30 32 44 55 50 36 -33 -2 -6 3 71 134 152 90 144 107 136 115 94 89 107 62 45 27 16 10 6 4 4 -7 18 91 87 -33 -6 11 6 33 92 92 94 112 94 88 89 79 77 107 120
18 -5 4 5 20 25 24 48 73 47 61 36 35 5 87 157 163 141 107 130 135 125 65 67 80 78 27 33 14 25 7 -4 -2 -1 -1 0 -9 0 39 10 -93 -44 14 44 15 38 50 74 96 105 118 115 153 144
25 -5 -4 9 16 15 18 41 55 119 76 28 11 22 129 134 153 118 106 106 137 111 66 50 78 70 61 58 62 44 21 22 -7 9 6 -9 -37 -7 31 40 26 -34 7 46 13 7 64 99 131 143 175 157 175 162
36 6 2 5 6 19 21 16 38 39 15 5 -60 15 16 121 126 77 121 149 128 131 99 65 73 62 45 59 90 71 38 19 34 18 11 -23 -17 9 20 37 58 31 71 63 42 29 56 95 136 184 232 195 195 181
20 11 2 7 10 42 9 5 28 63 17 -16 -46 -53 -82 -1 59 55 76 111 146 89 91 78 100 53 62 80 80 58 59 56 36 21 23 -6 -10 12 16 29 38 50 52 71 62 68 106 156 206 206 221 215 231 209
17 18 5 22 49 23 10 4 22 67 29 -7 -63 -37 -60 -21 5 58 82 84 94 120 120 73 56 51 64 91 93 104 61 30 -3 -10 0 10 15 10 13 21 30 45 70 79 94 113 132 169 214 248 228 220 203 215
12 40 38 35 23 21 5 19 39 50 24 16 -27 -85 -119 -82 46 40 38 73 70 142 116 97 110 78 72 76 73 37 30 30 25 8 3 20 17 3 -6 4 21 51 77 107 126 119 139 174 226 284 273 260 261 241
44 65 19 14 28 26 29 29 40 32 5 26 29 2 -32 -110 -135 56 70 29 64 92 123 146 107 128 127 83 90 75 33 22 31 56 56 51 43 26 7 10 26 53 103 121 139 161 213 255 303 348 363 299 308 285
66 51 14 35 34 29 30 39 46 49 13 11 20 13 15 -3 -26 -59 44 51 68 83 107 129 154 132 153 121 129 140 75 75 45 30 78 80 59 20 -3 12 35 66 86 127 169 199 233 275 322 346 361 343 375 325
81 43 27 42 34 39 36 35 36 49 29 18 12 9 8 8 17 19 -17 42 33 52 104 120 140 138 152 175 167 126 90 62 84 90 48 44 59 52 25 46 80 109 131 139 174 199 219 247 279 340 365 340 312 264
59 77 55 41 52 43 48 51 48 67 41 38 31 22 22 28 17 20 30 47 66 87 125 177 211 204 217 200 159 160 73 16 -13 15 65 64 46 51 64 75 85 110 171 191 222 269 325 323 302 304 292 281 291 251
145 93 76 67 71 67 60 61 61 58 62 62 55 38 38 34 17 23 37 58 44 81 105 168 169 138 95 77 43 -94 -80 -12 10 -16 2 58 108 79 74 75 91 112 156 187 200 224 255 298 314 315 305 295 288 262
118 91 86 87 70 68 77 107 104 104 88 96 74 62 66 56 36 50 51 80 77 73 101 118 121 120 112 96 84 95 92 4 -138 6 73 78 148 183 155 110 99 112 146 173 190 230 259 298 346 345 312 321 290 294
131 116 96 83 74 69 59 104 112 92 90 87 91 92 78 57 66 72 80 92 91 95 98 104 110 82 71 78 74 95 99 116 92 42 23 63 97 215 204 150 141 149 176 192 237 271 303 298 305 335 339 361 339 284
155 117 78 71 82 80 93 94 90 99 112 116 94 74 76 87 103 111 110 128 134 137 117 109 103 99 82 66 54 64 80 103 97 112 95 85 100 173 168 140 120 129 155 240 265 321 339 357 333 379 363 358 315 276
98 69 84 86 107 102 91 90 108 115 104 115 102 90 122 137 124 123 124 114 127 112 84 77 37 -1 29 46 61 68 61 52 47 80 74 57 82 46 101 158 125 148 215 281 279 348 373 374 359 395 375 358 329 260
80 79 89 75 99 81 71 71 66 98 133 119 83 111 147 147 137 108 137 111 93 65 107 84 42 22 43 30 36 37 50 51 47 3 62 68 38 44 76 181 184 162 148 198 325 357 430 405 378 396 394 345 298 276
95 81 89 96 102 108 106 120 144 135 119 101 140 164 159 143 97 89 107 106 90 79 96 106 105 103 107 77 47 49 34 37 34 21 68 86 102 87 83 134 246 249 216 214 282 382 469 484 411 411 408 379 278 218
101 110 86 96 141 150 128 132 114 99 129 172 196 150 145 144 151 144 147 129 93 102 102 96 89 108 112 91 63 43 36 44 37 28 40 58 76 93 90 126 139 144 255 282 346 401 393 434 408 376 391 375 337 277
98 116 149 129 127 100 103 117 113 151 195 213 193 179 163 172 165 142 105 105 118 123 108 86 101 115 88 71 59 43 45 45 29 18 39 45 65 84 124 123 122 186 268 291 270 349 419 402 354 377 354 339 289 228
94 142 135 121 132 104 107 146 136 160 172 179 175 156 144 147 124 121 126 126 138 129 128 128 108 94 77 48 28 29 45 46 36 8 32 60 88 99 123 168 226 253 302 340 404 406 407 524 466 475 444 339 235 218
140 174 148 146 109 118 145 159 165 167 156 149 154 151 144 114 91 98 115 118 122 114 111 93 75 68 69 45 33 25 47 43 49 35 30 64 97 133 209 221 252 314 360 420 510 503 511 471 423 361 251 206 167 136
151 141 143 116 97 106 150 168 165 153 128 132 130 133 126 139 103 78 93 92 92 92 66 60 59 42 45 24 18 20 37 54 66 60 48 108 130 179 242 259 292 344 353 334 342 364 370 370 316 234 205 166 132 121
163 154 139 107 98 102 128 154 144 114 109 111 98 111 139 139 88 65 66 68 66 47 35 31 35 27 -13 -13 2 15 28 40 49 60 63 104 159 243 312 312 353 314 268 338 350 341 322 272 228 188 161 157 142 110

GFSWCAN_con_3kmhel_009.txt.gz
Helicity
-2 5 2 -1 5 35 35 37 50 72 89 103 89 41 5 13 123 106 69 29 33 68 65 68 70 41 35 36 47 15 2 6 11 16 24 28 26 24 19 24 12 -2 14 18 28 20 8 36 20 16 32 25 27 79
4 10 -4 -3 -2 35 32 37 50 59 91 102 94 48 14 -7 69 110 81 97 20 57 89 89 91 69 78 71 23 10 22 13 16 -4 -1 -8 -5 28 23 26 23 19 23 43 19 26 21 10 20 13 34 33 -0 -14
13 9 -1 -5 2 27 30 26 49 52 74 87 85 30 4 3 -5 89 123 111 63 70 116 93 57 22 33 51 54 12 20 18 10 39 18 -2 -10 20 32 -0 36 22 16 32 33 7 16 34 2 18 11 15 -14 -18
-1 3 -0 -6 3 35 24 29 44 51 64 83 70 6 -2 13 9 41 110 101 117 110 146 131 76 71 75 62 63 54 24 35 43 31 19 6 16 6 26 43 48 63 28 36 19 30 5 20 15 13 4 -13 3 41
-6 -0 -4 -7 -5 32 25 23 45 53 56 80 72 19 10 17 9 17 73 99 95 121 126 151 112 76 101 53 29 35 20 20 29 9 23 21 32 16 10 30 -9 14 23 30 29 29 10 30 21 11 18 23 26 44
5 8 2 -11 -7 18 34 22 37 46 53 80 59 18 22 14 1 27 113 60 69 72 109 151 83 57 76 80 55 39 37 47 39 35 19 33 48 24 28 20 -1 -16 10 2 15 48 41 23 35 32 40 37 47 85
6 10 10 -8 -13 10 29 26 29 36 57 69 39 18 -5 -28 10 31 146 99 99 90 104 137 67 62 76 75 58 41 27 29 44 29 35 38 39 50 83 34 39 83 75 51 51 42 23 15 31 34 43 70 80 104
7 14 16 -2 -15 3 26 23 30 36 61 41 -11 -24 -30 -6 21 51 64 82 72 130 105 107 89 66 56 60 44 26 16 18 17 30 44 28 27 43 19 37 57 40 36 36 43 55 71 53 47 61 63 81 119 128
2 -14 2 2 -13 7 8 17 22 35 57 13 -63 -49 8 5 19 74 51 45 97 125 166 100 88 73 61 49 42 13 30 11 33 33 23 12 36 38 -0 41 37 35 49 50 105 86 71 48 49 66 76 90 137 127
5 1 11 8 -3 7 1 2 18 33 36 -0 58 52 24 -5 79 99 74 159 131 136 128 98 58 71 48 54 28 23 11 15 9 7 3 5 64 115 105 -11 -4 42 28 76 92 85 106 96 69 69 65 84 115 134
1 -1 24 23 4 4 -3 2 13 24 42 39 4 -35 -45 67 80 82 154 144 128 118 90 98 76 82 60 57 22 22 12 -1 -11 -3 -14 1 -22 -31 17 37 12 -2 5 36 27 56 50 59 59 73 93 125 145 143
2 20 25 21 8 6 -2 16 6 50 37 -36 -42 -16 -2 63 85 112 132 101 150 126 101 110 88 91 84 58 41 28 10 6 -20 2 -7 -0 -44 -9 1 16 33 37 -20 30 38 33 16 35 68 116 155 160 154 157
4 28 16 3 17 6 15 5 6 26 -24 -51 -0 -19 -22 11 21 101 125 132 120 153 107 117 95 103 73 74 70 55 21 13 20 -0 -9 -36 -26 -23 -4 10 37 51 42 30 60 62 69 75 100 157 174 162 189 196
6 31 18 -3 15 21 6 1 7 29 5 -39 -38 -52 -75 -76 -47 78 78 98 96 118 147 91 98 110 105 104 84 50 51 33 -0 1 -6 7 17 20 12 13 31 40 49 94 65 61 90 133 133 116 153 208 227 225
3 27 33 7 14 24 9 -1 -0 28 23 5 -26 -65 -90 -56 -33 46 45 48 68 85 116 102 83 81 73 74 65 72 36 -1 -8 10 19 14 50 32 28 41 50 19 52 57 58 64 81 125 174 195 191 231 234 239
32 42 35 19 30 23 12 -3 5 19 25 16 6 -12 -42 -49 -70 49 43 55 55 102 89 83 111 92 101 106 76 43 32 12 48 51 42 33 44 47 41 28 48 45 -3 63 54 69 92 128 161 206 232 230 247 259
61 74 26 13 37 18 11 5 13 16 18 15 17 36 19 -35 -47 -37 60 42 45 59 105 127 129 126 131 103 123 100 52 54 32 34 40 51 57 68 61 46 23 14 33 47 55 75 117 162 210 257 299 274 301 300
109 76 37 43 30 19 20 32 31 28 25 16 19 31 53 33 16 26 33 69 82 92 97 128 121 152 153 123 135 126 105 80 53 53 86 58 49 37 20 18 17 21 15 26 82 141 166 178 225 275 340 355 387 370
79 53 62 65 40 44 37 32 52 50 36 42 40 24 34 31 32 41 58 55 57 81 125 137 129 120 171 212 182 149 119 78 64 79 105 81 44 14 18 23 23 40 55 49 54 90 148 190 244 308 342 352 387 360
20 42 68 68 50 82 76 53 49 55 46 50 52 50 50 55 56 50 45 47 47 63 106 165 189 194 166 145 142 131 105 74 47 -6 -1 40 39 40 16 -7 36 65 72 83 97 132 213 234 235 278 321 346 391 372
151 141 130 122 104 112 97 62 55 52 53 48 55 66 74 77 62 53 50 72 59 73 72 88 119 111 80 59 38 38 70 29 16 32 20 -93 -14 24 43 12 2 47 76 86 97 99 130 183 235 273 317 348 379 332
125 132 126 145 138 123 87 82 72 67 63 65 65 72 79 87 71 68 60 77 74 69 88 88 103 110 105 98 105 77 68 69 62 64 48 -45 -58 3 19 42 12 35 96 108 103 119 153 209 261 315 358 382 371 326
158 158 134 129 111 96 77 93 76 77 82 57 67 79 82 81 84 67 49 64 75 94 111 127 124 109 96 94 87 81 47 64 83 85 85 76 -8 -17 4 44 55 53 91 137 132 172 199 218 266 334 366 365 347 364
185 128 96 82 95 98 76 84 88 85 86 87 82 96 92 94 78 69 85 124 117 119 108 119 125 107 73 41 50 56 40 36 56 65 65 82 93 91 94 31 54 47 77 157 210 213 234 251 273 344 381 336 330 371
120 76 91 93 111 100 81 79 98 92 81 89 100 94 97 93 94 93 115 112 95 85 92 84 92 105 98 82 71 52 43 38 44 52 67 59 62 75 95 104 84 107 79 154 197 218 228 260 296 358 375 356 355 362
110 89 87 79 102 88 75 72 66 74 88 92 80 116 104 97 94 73 104 88 86 82 85 103 116 116 109 84 89 83 67 83 86 68 59 44 52 72 79 98 100 88 72 72 160 191 223 270 306 352 370 293 314 391
120 101 97 117 108 106 101 110 97 81 69 69 98 114 102 87 58 66 96 73 98 138 157 143 124 113 114 104 110 97 84 77 86 96 66 59 56 61 63 72 31 62 85 93 91 139 236 281 345 394 382 304 320 339
126 101 92 94 110 117 103 80 67 57 72 108 141 113 80 89 97 117 114 129 159 166 143 129 121 132 142 133 115 95 100 99 85 79 58 41 55 64 46 51 21 -8 54 108 103 148 235 314 393 437 429 376 375 359
103 105 128 124 135 97 73 76 79 98 132 132 132 136 144 144 136 129 124 142 165 148 119 103 117 139 130 119 116 108 99 83 66 46 54 48 36 28 24 21 23 54 89 102 72 119 238 311 390 432 431 394 389 382
87 119 127 112 114 78 78 98 89 102 124 172 185 155 116 108 104 124 135 166 173 126 107 118 128 122 109 101 91 89 95 75 78 73 54 49 28 43 39 27 31 108 133 156 161 141 163 329 372 476 507 491 485 442
160 201 138 105 87 102 130 125 111 107 134 146 149 128 125 100 70 88 129 137 111 92 91 98 104 103 94 92 91 66 58 58 38 38 31 39 38 39 49 44 99 143 173 179 182 295 382 403 410 493 507 464 378 320
150 122 102 89 88 91 98 100 110 122 124 117 105 126 117 118 109 117 119 86 71 63 76 76 70 62 70 84 99 95 38 43 34 32 29 25 35 33 55 106 158 199 248 305 346 336 367 340 418 399 388 355 271 191
151 164 150 97 80 65 90 105 100 93 91 93 100 118 130 137 106 114 86 57 51 60 54 45 48 49 41 40 45 44 28 45 40 51 43 26 4 48 118 169 220 258 307 304 255 286 342 320 327 334 297 234 171 153

GFSWCAN_con_3kmhel_012.txt.gz
Helicity
83 52 22 23 11 3 17 8 11 17 22 27 40 49 57 68 38 16 66 101 114 91 74 91 115 105 70 51 53 41 23 24 28 53 55 53 46 39 27 28 25 40 8 19 32 16 1 20 32 42 76 73 42 48
87 51 23 17 5 2 15 14 16 18 30 34 42 37 53 68 68 43 -20 87 93 81 126 105 94 98 61 100 70 24 35 16 22 32 19 36 29 27 49 26 50 29 25 35 39 19 12 -5 58 56 88 74 12 24
107 108 47 12 1 5 6 12 13 20 36 40 55 44 60 52 75 61 12 8 90 58 83 72 58 65 36 74 63 34 23 23 23 32 5 11 19 22 23 30 11 13 -5 45 49 -1 -22 10 38 51 42 35 5 25
114 99 66 14 8 5 4 15 11 14 35 53 63 60 55 38 62 60 51 14 116 114 113 112 95 106 82 58 58 51 37 50 32 31 19 3 2 -7 15 30 7 25 42 27 26 35 36 54 19 6 21 13 34 57
67 76 51 22 14 4 -9 5 12 13 24 54 64 67 58 52 69 62 61 45 65 130 145 156 137 66 89 77 45 54 36 33 30 30 34 15 21 6 30 14 -34 17 11 54 43 -6 25 41 20 6 29 40 49 95
43 61 55 37 22 -1 -0 -5 16 15 26 49 55 52 49 50 73 97 57 70 54 49 114 148 115 86 86 104 59 41 40 51 51 25 38 66 52 41 19 51 33 75 52 51 29 2 33 47 41 37 44 50 67 80
67 48 47 37 37 12 -4 -6 8 9 31 42 41 4 -5 19 72 67 13 57 128 86 104 101 110 78 69 113 106 84 72 52 46 26 45 70 64 83 71 166 191 67 104 100 43 61 33 32 37 48 69 76 80 102
21 11 26 39 40 20 -1 -1 6 10 26 38 3 -20 -9 33 23 4 -2 32 56 107 95 139 117 92 69 77 86 66 53 43 25 26 45 36 37 43 61 68 47 87 41 10 57 88 70 95 105 88 66 80 104 117
55 19 10 45 31 20 1 5 -2 3 18 8 -10 -3 58 24 -5 -37 45 -6 29 77 159 112 89 84 60 64 71 56 50 19 6 5 11 30 34 6 -23 25 42 37 21 44 92 105 92 94 98 81 55 66 100 112
50 22 15 41 39 39 6 6 -6 3 -11 -8 38 35 -2 -63 38 50 71 89 70 96 111 109 71 92 70 59 44 37 36 41 26 15 7 9 -34 -50 -57 33 -10 -20 -17 63 71 70 94 102 96 90 48 69 92 99
66 28 30 44 37 46 18 7 10 1 -1 -11 -68 -53 -68 -56 29 92 116 109 94 118 83 83 88 84 76 71 57 43 34 25 7 -0 -11 -1 -31 -11 -13 -29 14 37 38 26 34 28 67 94 109 93 92 108 123 124
72 19 17 35 38 39 18 20 9 17 17 -47 -6 31 34 29 50 109 110 80 94 93 95 105 68 58 50 61 50 32 14 13 -9 -4 -9 -6 7 -36 -10 -9 -18 38 63 25 28 33 31 61 57 77 124 147 155 169
38 13 12 28 36 32 22 19 13 -3 -18 -26 -29 -41 -15 -1 -14 78 63 75 68 99 108 134 113 90 69 66 62 30 6 -20 19 7 8 2 -10 5 23 22 45 8 48 137 56 43 69 141 71 103 179 157 191 171
20 4 9 27 35 46 17 16 19 6 9 -26 -37 -31 -31 -40 -39 28 64 63 49 82 98 91 116 102 101 87 63 32 12 18 1 10 -3 15 12 41 25 11 26 32 54 3 44 60 68 152 163 132 170 178 238 167
15 3 15 26 23 38 22 20 15 13 21 19 -8 11 -21 -40 -28 28 32 57 64 90 117 108 89 79 99 97 69 68 33 8 -3 -1 19 -3 38 47 47 39 35 18 -71 54 60 37 56 105 174 195 156 159 168 230
24 31 44 21 10 46 33 9 13 18 26 39 20 21 28 -9 -29 -27 36 44 35 74 89 113 122 98 87 85 68 48 47 22 33 36 37 54 74 61 56 59 43 24 11 -31 23 90 47 92 126 167 213 221 221 253
64 100 67 40 48 56 36 -0 7 16 33 37 23 24 49 53 34 24 37 62 46 59 95 113 116 121 139 102 99 89 58 74 62 44 41 47 63 89 49 28 25 26 8 11 22 -16 64 83 125 177 209 208 268 277
140 100 73 36 55 53 70 40 30 35 24 31 40 28 38 61 55 50 60 73 66 82 86 116 113 137 140 132 138 122 114 98 62 47 58 69 54 39 21 13 1 -4 -1 11 25 63 103 99 108 142 214 279 313 321
161 158 88 61 60 81 103 78 75 69 21 53 60 51 44 57 60 57 71 78 82 88 115 120 137 141 160 151 124 111 83 50 53 65 73 49 12 17 19 8 10 -3 10 7 19 39 60 89 152 198 243 265 317 324
121 93 63 85 73 110 110 107 95 95 67 44 54 63 66 70 73 63 54 51 59 68 98 116 134 168 143 116 105 86 58 23 -16 -41 -30 -23 -12 2 3 2 5 20 16 20 53 70 105 142 149 177 211 261 322 340
249 131 178 169 127 144 123 122 110 95 83 51 61 65 79 82 81 84 67 70 69 75 83 67 100 111 109 98 71 38 5 -25 -34 -51 -55 -45 -32 -57 -17 -15 -36 -39 2 30 43 56 74 105 127 168 207 236 275 315
224 227 164 188 146 99 90 117 118 97 74 66 53 67 75 77 79 85 90 79 81 84 112 112 125 119 93 86 77 69 54 57 42 41 48 42 8 -1 3 3 22 29 3 18 49 62 79 112 157 193 247 283 307 351
236 215 206 186 105 71 79 110 99 89 79 55 63 75 69 96 105 110 76 54 57 53 88 106 110 105 96 94 85 59 18 6 33 41 55 67 72 67 47 42 49 39 92 77 44 77 139 112 144 251 274 304 351 383
238 196 157 96 101 101 107 111 114 103 96 83 84 90 68 82 91 92 80 88 91 120 138 127 132 122 108 103 95 88 76 85 75 80 63 43 58 77 76 77 76 94 95 121 112 115 101 140 168 236 291 330 365 403
191 134 130 121 130 120 104 111 112 88 77 89 99 90 69 82 86 81 89 100 81 79 82 86 83 91 107 117 127 124 99 105 85 79 85 69 68 57 55 61 70 82 86 133 160 128 122 138 186 233 295 322 372 365
168 128 93 89 129 112 94 93 79 84 99 94 69 87 91 95 91 62 82 56 54 57 65 86 101 124 125 162 159 151 105 113 130 117 105 97 79 66 52 56 73 95 85 89 118 176 116 128 179 219 266 273 278 360
173 157 160 163 131 119 117 126 114 80 71 75 75 97 103 82 44 52 55 54 72 50 98 147 183 185 183 178 162 148 142 150 165 171 127 116 113 112 114 103 86 122 74 90 73 103 174 141 166 195 268 303 320 338
206 193 127 110 150 139 105 90 80 66 68 82 135 99 64 55 50 56 41 102 127 145 167 184 197 183 163 154 147 148 141 132 132 134 124 116 126 127 110 106 93 54 56 63 80 85 157 173 190 208 264 351 391 345
206 162 180 154 150 103 74 66 76 80 117 117 98 85 96 105 103 95 89 108 154 180 174 148 139 134 129 126 147 151 147 156 154 122 102 118 111 126 117 106 83 81 63 77 43 73 136 167 179 233 284 323 366 399
154 164 157 116 108 72 82 91 82 103 117 146 151 117 105 105 92 110 132 154 188 174 150 149 132 124 107 110 100 100 134 155 185 172 131 116 122 84 62 54 59 58 85 105 87 83 -10 78 131 294 368 339 397 416
194 195 141 116 87 111 124 122 107 94 110 104 112 108 104 82 49 63 123 140 160 174 162 123 89 88 100 90 94 79 75 98 132 140 114 83 72 63 63 53 52 73 116 131 157 98 94 228 298 321 337 364 351 400
184 141 119 104 98 92 87 90 93 101 93 99 101 131 111 103 74 73 91 120 131 120 81 78 80 64 70 88 100 116 64 121 158 161 114 72 62 57 64 54 56 86 142 145 177 230 286 276 265 299 372 376 348 358
166 174 162 118 89 73 79 99 82 63 60 72 83 92 104 108 76 106 99 99 109 95 75 56 50 42 43 50 59 61 49 75 72 39 28 21 44 52 68 80 119 178 202 197 216 272 265 234 252 288 337 336 296 265

GFSWCAN_con_3kmhel_015.txt.gz
Helicity
83 118 108 94 79 19 33 40 26 19 19 18 17 12 15 30 50 94 62 66 107 49 10 81 94 120 135 86 80 40 67 46 59 70 65 64 57 55 42 29 18 44 38 30 30 22 7 17 56 35 68 86 74 47
65 100 113 70 62 34 30 37 14 25 16 24 32 27 28 37 46 78 78 73 79 83 34 125 110 115 54 74 85 54 44 32 27 60 49 53 54 53 42 34 63 40 39 22 27 9 -3 6 2 57 70 71 41 36
84 90 75 74 80 75 32 27 23 27 20 31 40 43 46 55 55 73 93 86 93 68 12 -7 69 88 35 37 45 64 39 25 39 32 29 29 38 35 27 21 41 46 66 46 34 41 40 6 32 27 20 37 30 51
89 50 61 70 88 65 35 16 20 22 25 29 36 47 63 75 62 55 126 95 92 66 98 156 155 154 85 65 70 48 30 58 45 40 23 22 26 19 17 13 2 31 60 37 28 30 1 23 22 11 5 16 37 76
41 23 26 46 79 61 34 9 4 25 25 24 30 47 52 64 40 78 101 87 86 63 100 106 205 121 107 79 55 63 55 46 38 33 34 20 33 20 21 10 62 73 49 51 35 42 19 -3 9 27 28 25 47 99
18 11 26 51 55 53 39 12 2 18 28 24 26 52 35 22 11 89 61 35 26 73 -9 118 100 110 109 98 69 62 66 61 34 15 19 24 28 43 24 114 143 124 146 109 59 20 -17 -29 8 38 39 37 57 78
28 33 21 19 27 30 35 22 2 29 24 18 32 28 18 -14 51 58 5 7 105 47 13 192 186 106 111 130 120 107 99 51 33 22 26 34 30 25 71 94 80 77 71 100 36 46 4 17 15 37 56 58 83 93
26 -7 -2 11 8 18 30 19 11 24 16 12 4 -4 21 18 32 4 -63 60 -0 54 27 182 150 143 106 98 86 87 65 62 32 28 25 11 11 9 -27 -15 75 90 146 79 32 6 30 65 73 72 82 101 109 114
44 47 18 6 8 22 29 19 19 17 6 -14 -10 28 39 17 -2 -48 26 -15 -21 16 117 156 154 149 106 150 124 117 91 50 33 16 17 13 22 -14 -6 -28 61 12 20 39 37 55 79 66 60 90 107 108 102 85
9 26 45 9 5 25 27 27 21 18 -5 -39 -10 -36 -42 -68 -13 63 59 80 20 87 126 97 115 111 99 102 65 53 65 67 36 27 17 9 6 6 -5 -33 -40 38 27 35 53 73 67 71 79 80 97 102 92 76
15 22 45 31 18 25 29 44 21 11 -3 -38 -13 -22 -15 -33 25 55 92 81 85 105 65 71 82 64 122 84 60 53 51 46 53 21 23 12 22 6 2 -14 -20 -33 67 59 28 27 21 50 87 108 121 113 187 136
52 31 47 24 17 29 27 49 20 9 2 -13 13 32 25 -18 -6 -4 51 41 52 60 69 55 80 94 93 84 57 49 32 27 3 37 24 28 40 26 11 22 31 29 -1 91 51 26 2 19 67 96 131 127 99 163
24 25 28 12 29 44 26 43 25 17 6 21 -22 -38 -23 -11 -55 -48 35 36 33 57 55 70 53 55 60 56 58 40 12 5 24 27 28 31 30 32 30 26 61 54 42 45 130 46 4 40 113 129 149 166 168 173
67 40 28 9 35 36 17 31 28 17 10 22 27 -13 -15 -32 -46 -68 38 37 33 43 76 82 101 89 72 65 49 30 26 28 9 13 13 21 32 61 50 35 48 68 11 -1 135 71 25 59 116 166 117 160 169 167
76 36 24 17 37 31 32 37 33 20 27 28 37 21 11 -17 -20 -8 35 40 51 65 74 82 90 88 93 83 59 60 43 21 3 7 27 14 39 46 55 59 57 59 38 -52 37 63 35 46 103 130 88 117 167 159
94 34 51 77 48 41 53 59 64 38 33 41 39 34 25 36 -1 -16 30 26 38 85 106 106 102 84 78 90 84 62 58 27 27 48 33 54 62 65 68 56 44 37 23 20 -3 -34 55 42 68 77 102 92 72 92
113 110 90 90 96 87 59 66 98 92 87 48 29 31 39 45 44 26 36 47 49 48 78 117 105 90 104 91 103 91 68 70 86 72 48 54 48 41 55 45 52 34 15 2 -8 3 4 14 67 117 128 127 156 178
213 154 113 119 111 85 57 73 97 96 78 56 45 38 41 51 71 73 58 58 62 65 68 85 95 108 93 93 81 74 68 69 73 84 75 70 61 45 49 43 47 41 32 21 14 7 13 66 75 77 125 174 208 215
240 175 112 97 105 84 51 51 95 85 61 73 55 52 53 67 66 69 84 91 83 79 89 93 120 98 122 132 107 70 67 59 58 68 64 30 17 25 24 32 34 30 24 13 17 29 31 31 51 118 166 190 204 201
177 129 118 116 119 100 60 57 86 80 64 60 65 72 58 57 64 63 68 75 84 96 105 111 110 116 102 100 118 106 77 44 20 -11 -18 -19 1 7 -3 -11 -0 11 23 30 27 23 44 82 99 102 136 196 241 248
281 234 271 198 155 135 63 45 72 48 68 69 79 80 67 69 72 76 76 83 101 73 60 55 73 84 122 118 104 83 55 37 16 -7 -25 7 26 3 21 40 41 36 17 21 17 24 27 48 67 90 110 150 182 232
358 287 246 192 158 118 86 96 69 82 75 60 79 96 96 85 68 73 104 105 94 73 90 91 102 146 124 106 99 97 81 66 45 41 23 18 26 31 29 22 27 63 98 104 75 56 49 45 56 77 130 160 196 237
418 299 231 176 127 90 76 112 97 98 87 66 75 79 67 73 66 106 79 69 81 78 95 107 102 111 104 119 114 89 71 63 73 68 64 61 59 60 58 56 50 58 84 122 115 136 125 84 58 100 143 191 210 234
346 232 191 106 129 120 144 98 99 105 115 104 86 84 60 56 65 61 53 77 87 89 105 101 127 130 129 112 84 78 66 68 70 90 86 73 76 78 58 57 56 65 66 72 91 122 142 149 122 151 180 176 201 249
247 171 180 182 197 196 150 100 109 120 79 81 82 68 52 75 82 70 65 55 67 81 89 99 91 79 86 84 84 97 117 129 99 87 97 88 83 79 80 78 65 60 52 70 76 79 126 145 182 209 215 205 180 223
237 178 144 135 179 163 125 91 82 99 114 78 51 70 77 89 89 30 34 26 39 43 48 54 58 78 66 95 106 137 125 129 151 156 133 124 109 100 93 83 78 80 100 95 86 94 125 136 150 195 203 168 131 216
294 196 224 253 197 166 122 144 153 119 79 54 66 90 92 59 28 40 42 38 39 30 33 71 132 131 109 117 135 151 151 154 157 161 133 133 134 155 155 123 107 112 99 110 111 102 108 146 155 160 169 176 170 181
332 268 214 169 211 195 113 99 93 58 60 73 110 79 49 35 45 46 38 48 59 99 107 120 131 139 142 134 131 124 111 117 123 129 129 128 147 147 141 150 130 44 76 90 93 102 105 127 147 150 150 194 192 213
317 302 347 278 221 134 97 88 66 79 95 97 76 69 67 74 70 78 86 102 138 139 118 113 119 144 149 142 123 117 124 135 137 100 96 113 99 115 169 172 145 133 132 129 87 71 70 92 145 148 144 202 269 283
365 319 271 204 170 119 84 89 78 106 123 128 121 101 85 82 78 95 137 167 160 137 122 125 133 159 128 120 101 96 102 131 155 152 142 128 123 122 138 134 93 76 99 99 86 82 62 67 81 124 224 248 267 288
308 310 241 191 142 155 142 129 123 101 102 98 106 79 83 67 44 76 144 157 165 176 171 136 122 122 122 106 103 89 70 71 86 107 142 170 154 132 130 118 94 79 62 51 63 74 86 154 206 222 226 204 186 255
278 210 211 185 151 126 119 115 98 87 83 89 98 136 113 96 68 54 88 154 166 132 85 116 124 96 88 84 83 78 33 80 94 124 137 180 154 125 103 64 41 47 52 64 89 124 221 259 237 210 210 201 224 267
235 244 231 171 125 110 111 103 77 48 53 69 79 81 85 88 67 86 90 86 92 92 90 87 75 69 63 57 58 62 49 72 55 39 59 58 72 94 97 68 49 50 79 141 160 188 225 237 219 199 200 192 236 297

GFSWCAN_con_3kmhel_018.txt.gz
Helicity
63 48 27 60 57 88 59 82 37 8 29 27 28 24 18 20 24 40 35 78 95 114 -7 95 114 90 73 78 91 67 107 82 91 83 71 67 62 66 42 31 24 27 33 40 33 37 30 29 40 16 16 44 52 58
26 -17 44 68 94 69 77 78 49 31 21 22 37 40 35 34 43 57 61 95 127 106 83 111 1 83 55 74 86 91 86 74 55 90 62 62 57 68 47 36 46 24 39 21 26 23 21 5 22 24 37 29 40 49
26 16 70 75 74 43 74 65 46 20 16 26 38 38 43 47 61 76 127 117 172 133 77 118 75 -5 71 49 56 101 87 54 50 47 49 43 51 49 37 21 43 45 55 46 45 40 52 50 38 43 25 8 8 40
73 56 54 37 25 21 47 56 46 19 33 31 30 36 50 66 72 96 188 139 182 185 210 121 101 70 107 50 41 29 102 69 57 52 54 25 24 26 29 15 19 15 63 35 15 7 14 24 30 13 8 13 13 51
50 58 29 16 8 25 41 40 28 19 27 17 24 33 46 75 74 91 124 128 146 190 212 95 124 137 126 49 44 64 70 72 62 48 43 20 17 25 18 25 42 19 45 60 11 25 25 19 0 -15 15 23 14 55
68 76 29 24 23 12 32 30 20 22 12 15 22 42 69 70 44 113 91 69 52 84 32 -22 37 135 106 101 81 65 65 64 49 29 16 14 26 23 20 43 34 35 57 36 14 55 19 5 -22 3 31 33 20 41
87 56 37 31 16 10 11 8 12 24 7 9 23 40 20 28 70 90 69 48 27 18 -26 -135 97 103 108 140 140 117 95 59 53 25 22 35 29 7 45 40 5 26 72 143 38 48 40 51 13 23 36 42 53 62
82 44 23 11 -3 3 14 10 20 13 1 5 -2 10 29 58 39 18 17 45 23 33 37 41 247 129 123 179 151 122 106 80 47 28 36 33 35 13 10 -21 -53 -6 19 26 149 96 44 31 62 61 66 75 86 83
60 13 17 21 31 -2 13 13 23 11 8 -19 -36 14 11 -23 -30 -35 6 15 40 1 136 226 234 149 132 181 116 135 89 72 63 49 53 44 50 27 3 -24 -57 -38 32 39 60 52 21 20 21 49 70 89 101 90
27 0 16 26 24 2 4 12 11 5 6 -27 7 10 3 -24 -12 28 41 13 48 125 146 168 170 161 119 152 131 117 93 78 72 57 51 49 59 35 -1 -31 -59 -45 -37 15 23 41 55 71 85 80 76 94 124 121
8 -26 6 25 41 17 7 7 5 3 16 -11 3 -2 3 16 5 -8 -1 46 66 116 102 121 121 138 154 130 129 115 85 79 92 87 65 53 34 31 9 -13 -13 -11 -11 6 26 32 -6 8 48 102 95 103 130 153
6 -15 -1 28 19 20 17 7 20 6 0 7 3 43 19 -27 -30 -59 -29 34 50 61 54 79 93 125 128 111 81 59 68 47 44 47 42 34 31 32 33 37 45 36 21 34 22 93 65 48 55 96 101 132 137 167
51 -7 12 15 5 42 13 24 24 18 22 22 32 -20 -8 -31 -71 -68 -55 25 35 37 41 62 80 106 99 84 51 35 25 12 43 37 31 45 53 46 55 49 69 75 50 22 71 122 155 65 29 62 122 119 159 139
51 22 17 26 28 37 8 20 24 29 27 26 13 24 19 8 -50 -41 -34 48 34 46 65 62 58 67 74 79 51 42 29 36 27 22 19 34 30 54 64 61 63 98 46 -9 47 138 104 54 52 84 157 119 135 138
95 55 32 25 32 48 12 45 33 35 55 70 60 44 35 37 40 25 14 17 33 58 76 72 61 67 82 69 61 60 51 25 18 17 39 31 41 48 55 58 58 48 48 43 12 72 67 62 55 54 90 90 112 159
127 95 59 52 65 48 51 67 48 51 76 95 102 82 26 40 47 43 22 10 39 68 86 81 80 63 57 95 95 75 67 30 35 39 42 51 57 59 63 65 59 46 34 24 13 9 -16 10 17 30 54 95 89 86
191 167 75 88 88 110 97 64 60 58 65 75 59 49 34 34 22 38 26 31 51 56 90 110 99 83 75 71 72 59 36 37 47 55 52 46 47 45 52 51 43 46 50 42 28 15 -5 3 17 31 50 50 79 68
212 175 126 152 176 134 86 65 58 69 36 57 61 41 55 41 42 51 53 48 46 44 59 89 113 101 95 85 75 48 36 38 58 55 57 54 46 40 43 46 40 43 35 26 25 25 22 20 13 31 47 62 92 117
177 243 197 165 142 106 75 56 66 27 25 52 57 51 86 59 57 44 62 78 72 68 69 78 100 77 68 61 43 44 53 54 58 57 57 59 46 55 45 32 15 14 25 45 44 35 24 29 28 31 51 108 131 140
155 209 159 133 145 118 100 50 69 8 5 39 55 51 44 86 56 56 51 62 91 112 127 118 91 76 60 58 70 90 86 87 86 85 72 54 45 47 31 17 20 37 39 49 62 83 58 50 48 46 57 84 127 144
253 151 208 232 178 151 95 49 31 -4 11 29 39 51 48 52 76 59 56 83 107 86 79 78 78 68 85 93 111 109 92 73 38 29 21 40 38 44 57 58 52 45 52 74 86 100 110 90 72 57 56 71 91 123
259 380 332 269 213 157 128 123 59 68 56 52 59 46 47 50 47 65 98 123 95 90 113 97 84 107 104 98 84 70 75 70 68 55 39 39 60 70 74 67 76 83 73 54 66 90 113 136 138 101 83 86 91 139
311 423 378 318 204 160 93 138 80 77 45 38 55 46 39 62 50 81 69 65 66 91 116 125 118 122 123 134 145 133 106 101 85 79 72 67 65 70 77 75 67 82 97 97 70 69 85 107 126 131 124 124 151 149
238 288 286 212 199 157 185 123 104 70 76 72 65 73 65 60 68 68 59 43 88 89 102 110 150 177 171 149 98 71 78 113 96 87 79 78 79 81 70 79 81 86 75 68 70 75 72 78 101 105 129 182 175 161
121 146 200 205 245 215 174 149 139 103 71 63 48 50 46 58 55 47 46 49 66 71 93 114 106 105 105 81 72 66 89 139 127 95 98 101 93 88 91 89 89 89 89 80 74 74 82 89 92 112 143 147 154 177
133 126 104 117 180 175 138 92 74 82 119 71 34 64 68 58 53 12 23 26 30 28 54 53 46 44 23 36 62 92 92 108 151 135 129 121 119 117 109 99 92 100 81 99 100 86 82 91 102 111 119 115 99 145
150 141 187 286 246 226 149 140 140 99 55 42 62 80 72 39 4 27 32 23 22 15 -5 23 64 66 68 95 98 110 124 144 158 137 124 133 144 165 171 161 155 146 96 95 113 111 89 81 86 106 130 142 138 159
180 181 193 213 231 219 135 105 70 50 60 79 124 65 30 22 32 32 13 37 29 59 73 76 69 75 88 91 113 140 132 144 134 110 101 111 117 118 118 134 136 63 107 121 119 117 117 103 88 85 130 132 132 150
234 244 301 276 225 164 118 104 67 80 120 92 51 55 59 48 38 32 39 58 88 102 96 100 104 133 137 132 124 119 126 134 134 98 89 95 101 83 67 103 138 170 171 160 118 90 101 132 126 99 115 130 130 165
259 254 240 187 192 202 158 158 119 147 124 139 133 92 60 44 36 47 68 99 118 119 134 144 140 134 108 116 110 119 116 124 150 170 155 131 115 94 108 131 168 185 186 155 127 121 106 110 105 117 140 166 181 189
282 250 198 168 169 188 194 226 210 164 118 90 109 69 57 45 23 27 107 141 180 212 190 148 120 117 135 129 127 117 102 107 110 97 117 145 134 135 151 179 200 207 182 134 106 87 88 103 105 175 208 161 128 143
263 237 242 222 194 192 219 207 165 114 92 86 77 99 85 74 38 31 84 118 145 124 89 112 125 106 106 110 113 104 67 86 93 99 94 115 137 159 212 174 168 151 105 64 41 43 38 67 148 153 150 130 133 156
215 248 255 193 187 169 176 165 123 60 48 51 59 66 78 77 44 72 94 93 93 93 91 86 84 98 102 95 85 80 65 86 65 42 39 32 24 54 114 142 117 82 32 26 26 48 96 137 159 155 153 155 161 159

GFSWCAN_con_3kmhel_021.txt.gz
Helicity
104 78 46 4 32 23 22 19 36 61 95 18 -2 19 10 14 17 38 26 59 65 87 72 92 113 135 173 151 122 97 130 105 116 96 80 69 66 76 65 52 36 51 47 53 52 28 34 35 68 29 4 21 16 57
82 66 30 6 54 51 39 42 55 38 73 50 -11 8 16 20 20 45 28 51 83 73 82 87 76 59 84 131 156 165 124 83 94 123 106 90 83 74 63 53 80 43 45 17 25 18 24 31 51 25 30 37 31 47
57 47 37 28 72 53 26 29 25 56 57 71 22 11 11 24 45 76 82 94 95 38 -6 54 81 97 55 47 72 144 121 88 81 77 82 83 80 75 64 57 56 36 43 46 36 33 18 7 37 56 32 32 27 25
47 39 59 70 66 17 7 4 13 16 22 21 35 9 6 33 37 80 139 131 178 154 69 40 95 153 122 120 74 54 60 130 96 93 95 75 63 49 55 42 33 34 64 50 28 3 16 21 45 31 15 2 18 36
49 72 70 85 55 22 26 4 15 17 0 19 29 6 13 42 80 120 128 123 145 183 225 124 65 215 122 85 46 40 13 115 108 98 89 79 52 41 37 35 36 62 25 32 27 26 5 21 7 -6 -16 -3 17 41
88 65 50 96 63 26 16 9 13 3 -3 -3 3 -1 37 55 79 127 98 56 44 92 141 170 84 122 103 47 48 12 29 106 149 73 65 51 44 40 38 36 14 32 32 10 -3 -38 -14 3 11 9 8 7 32 27
69 75 101 76 57 23 18 11 7 -6 3 17 -7 -7 -11 19 71 75 50 28 44 113 98 36 9 46 63 45 40 77 104 107 100 83 59 42 28 28 29 45 67 43 12 -6 -25 8 20 39 53 31 33 47 57 66
15 62 81 71 29 4 6 -3 0 0 16 7 6 -24 6 64 49 -16 2 44 73 85 65 112 174 109 39 76 150 93 134 100 53 50 40 29 46 40 31 34 11 -34 -48 -6 50 5 14 57 46 58 64 65 62 65
62 29 65 45 34 37 24 2 2 18 34 15 19 20 41 20 4 4 1 61 61 127 233 177 120 53 51 158 136 132 102 73 71 59 58 53 57 43 43 20 -14 -42 -56 -32 1 1 -5 31 54 36 48 53 60 71
44 30 38 14 35 42 19 10 -13 25 27 8 29 23 -2 27 43 48 35 52 131 178 183 212 208 92 88 133 113 111 71 51 57 50 78 57 58 95 63 -1 -13 -21 -27 -27 -34 -6 10 45 50 54 51 54 73 89
49 32 17 20 35 30 -2 18 1 13 18 10 -1 0 25 49 39 -1 -13 -9 63 82 88 144 157 123 113 82 82 76 75 80 45 75 90 64 35 82 72 33 -8 -9 -6 -28 -14 8 30 22 0 23 44 66 86 114
71 39 10 17 30 29 -12 6 6 31 10 7 25 45 39 3 -9 -29 -28 -16 26 37 55 63 69 95 101 106 66 95 79 95 100 95 128 65 59 73 35 14 16 15 27 30 2 -3 43 53 29 35 54 93 116 142
89 66 18 18 41 17 10 17 7 28 34 26 9 0 12 -11 -16 -36 -46 -32 26 38 49 63 76 103 113 90 101 121 67 49 39 38 34 26 62 67 59 42 51 37 39 23 -33 26 115 134 109 64 71 99 141 141
107 109 48 24 27 25 24 20 31 32 36 43 43 39 10 23 18 -8 -7 8 28 29 43 69 96 69 90 97 77 61 45 35 21 19 22 61 68 62 67 52 53 71 52 30 -9 7 89 153 110 67 71 89 120 137
95 84 57 42 53 44 46 45 51 37 34 49 54 61 58 41 51 43 22 13 8 33 52 55 55 68 95 91 101 77 49 20 5 17 34 47 47 59 68 66 69 65 47 36 9 -25 -12 39 37 40 39 66 102 121
56 75 116 73 43 61 93 81 60 42 45 56 71 74 48 76 77 88 41 23 -5 41 67 78 84 76 71 79 65 60 64 32 24 26 48 52 50 67 80 79 64 58 59 51 30 15 5 -12 -13 -11 9 36 57 77
129 126 123 87 81 111 133 92 65 47 38 41 42 49 50 17 41 35 41 41 45 64 111 110 100 99 99 81 71 65 56 52 5 39 62 65 70 68 71 63 45 42 40 42 49 39 16 9 1 7 7 6 42 36
125 115 127 161 227 174 108 97 74 67 54 69 70 48 55 37 66 50 44 44 52 66 81 115 130 113 107 85 62 48 26 41 44 56 70 71 67 54 46 41 44 48 46 35 25 24 28 32 26 16 16 16 46 54
109 165 183 255 189 131 89 67 87 43 39 49 36 42 44 46 51 74 56 50 55 52 77 94 99 79 103 76 34 26 28 26 32 58 83 67 46 38 36 50 45 40 47 49 38 44 51 57 59 54 38 37 45 66
101 176 239 236 162 135 119 93 113 58 24 9 22 43 47 51 48 81 77 58 68 97 122 112 77 66 54 56 49 44 59 71 90 86 70 60 56 55 50 45 36 33 33 36 33 66 75 101 99 102 90 72 62 56
181 211 255 168 153 155 106 102 96 42 27 26 18 24 41 54 52 71 101 84 93 105 87 78 69 69 81 77 67 84 109 106 74 75 74 82 74 79 72 63 55 58 51 60 72 84 80 79 107 116 108 105 98 89
128 288 225 187 167 140 142 159 134 115 79 58 36 52 58 51 60 83 54 91 92 89 121 108 102 89 112 97 76 77 90 109 107 100 83 69 61 63 62 54 64 65 60 49 47 59 79 81 76 78 87 103 101 113
179 173 161 182 178 123 93 180 138 125 61 47 36 14 5 24 38 58 39 54 61 72 120 127 108 106 115 138 138 133 107 116 89 64 57 56 55 54 59 59 69 84 98 107 71 72 73 61 63 71 81 88 102 120
132 81 92 103 114 106 152 139 145 127 105 67 21 8 19 26 51 45 52 90 118 105 110 112 142 162 174 178 133 105 92 113 112 98 86 84 76 70 62 63 74 88 80 79 83 82 67 53 66 78 86 90 97 115
74 65 119 140 160 170 162 175 189 148 115 78 54 38 49 52 35 45 86 126 94 102 103 112 104 102 110 107 99 80 105 128 115 88 81 110 102 87 86 78 84 91 72 59 61 70 73 81 82 85 89 89 100 115
86 77 79 98 148 132 122 119 94 110 125 78 21 46 77 38 40 2 45 22 28 25 73 74 67 65 40 38 61 79 67 110 132 100 86 118 134 127 96 78 80 92 43 66 85 84 91 96 98 97 92 89 74 82
118 84 129 191 168 161 137 158 168 122 63 38 41 55 35 7 -14 4 19 39 23 19 14 22 53 40 28 52 72 87 105 128 146 124 134 118 122 143 153 131 111 102 83 85 103 111 104 100 102 101 91 88 105 104
107 114 122 137 148 173 120 121 99 54 59 83 95 37 -18 -8 9 32 43 32 21 32 38 27 15 28 39 44 75 116 136 153 151 123 90 91 128 135 113 102 95 39 79 99 110 117 119 111 108 101 93 81 93 126
160 158 186 178 188 119 103 126 109 98 117 136 71 46 42 88 60 29 18 29 51 75 97 103 90 118 132 136 137 126 132 145 146 115 95 99 124 101 88 85 87 99 109 119 95 105 104 114 126 127 114 126 127 141
215 236 227 201 177 155 128 115 128 158 184 170 149 126 129 93 67 72 64 64 67 64 96 139 171 184 126 111 96 106 109 128 143 158 139 119 108 95 102 105 115 124 144 146 131 119 111 142 143 144 128 130 170 169
224 287 242 203 167 182 218 216 195 155 173 160 137 100 102 57 52 34 94 113 141 182 186 192 195 170 141 118 122 120 103 117 106 89 103 124 121 114 113 117 131 150 158 152 149 149 156 159 130 113 112 106 146 137
242 215 212 196 198 170 189 170 146 146 161 149 122 138 99 80 48 23 74 105 121 108 84 122 127 86 98 115 122 115 102 111 113 110 96 110 119 122 132 137 141 191 173 140 129 110 88 69 54 41 65 115 150 182
228 251 229 179 157 154 142 130 120 117 113 109 105 84 84 72 53 87 99 99 82 78 84 71 82 99 103 100 96 92 84 91 72 55 58 58 56 65 106 151 167 175 123 97 69 47 23 10 14 55 89 116 134 121

GFSWCAN_con_3kmhel_024.txt.gz
Helicity
62 69 63 52 25 30 40 30 34 39 52 35 93 56 12 -27 -8 17 25 43 37 49 58 71 86 74 107 119 124 139 167 148 143 108 86 63 59 53 72 64 55 72 44 46 52 36 52 41 63 38 24 29 16 14
53 40 42 35 29 27 71 37 24 20 30 38 58 110 49 -25 -28 9 3 35 63 60 69 65 82 66 58 63 139 183 195 142 137 149 124 99 85 78 70 84 107 64 57 40 29 34 25 44 55 52 47 44 18 26
43 34 47 36 23 77 49 18 11 13 6 -12 18 82 52 29 -19 7 37 61 61 16 25 5 -18 124 104 55 83 146 176 167 138 116 104 99 91 89 78 64 103 65 53 56 54 35 29 19 27 29 22 11 11 14
64 47 40 27 51 87 52 11 10 12 17 7 -3 45 27 27 3 -12 57 97 101 65 49 69 73 24 81 78 91 82 84 273 209 112 135 120 91 67 59 54 64 60 76 58 59 3 -27 1 47 36 39 8 14 13
61 40 43 37 59 89 73 30 17 16 11 11 -1 -4 5 -3 -2 47 105 107 123 114 119 141 88 127 140 136 152 89 26 -19 206 124 148 121 88 78 69 58 35 67 39 72 57 43 -3 -11 17 -11 -23 8 7 17
65 41 53 62 67 97 70 31 26 24 28 0 -19 13 -11 -18 -11 85 38 31 36 73 81 100 66 99 121 148 115 50 68 23 93 97 128 100 86 98 64 39 35 35 42 44 11 21 -5 0 23 57 31 33 29 24
63 79 40 33 85 83 57 21 25 9 14 -10 26 1 -16 -18 77 16 11 4 28 93 93 46 18 52 36 52 93 -18 81 -43 34 92 137 107 92 82 63 41 56 74 79 26 4 6 21 62 40 76 66 59 61 58
94 72 22 55 104 85 45 41 6 -1 -16 15 25 4 -16 57 39 5 19 87 103 85 88 70 110 58 24 32 9 86 66 28 140 149 126 101 113 81 33 47 59 53 13 -12 48 9 4 7 20 53 59 59 53 49
108 109 38 39 98 57 42 44 14 -6 -1 23 4 1 64 33 23 26 42 49 118 80 47 88 30 55 2 -88 20 52 141 91 82 112 88 100 76 32 25 49 43 31 -4 -29 -47 -47 -22 10 8 45 46 54 46 40
114 115 57 79 48 33 47 23 22 3 11 -12 15 12 11 12 57 -22 37 20 36 94 117 124 80 13 33 80 127 46 71 150 96 67 62 71 46 99 111 73 38 8 0 -11 -19 -36 -2 45 28 52 60 45 38 46
97 95 45 39 50 47 28 16 32 18 23 28 25 11 29 25 32 12 -28 -7 6 25 57 103 121 108 62 64 72 55 41 62 80 69 63 36 29 67 105 75 48 24 19 13 11 -5 -29 -2 42 50 39 42 39 50
97 73 56 37 23 47 24 21 37 27 24 26 32 46 46 33 1 -29 -28 -8 10 4 51 70 54 59 58 53 41 60 38 50 41 84 90 33 86 89 83 65 27 31 33 33 30 7 9 46 56 66 54 44 50 62
76 71 55 43 36 29 20 47 37 28 27 30 24 28 29 32 26 16 -9 -10 -10 10 27 93 65 38 44 54 39 29 32 42 68 71 60 69 81 75 75 58 52 46 47 45 33 -19 0 58 88 95 71 42 68 89
53 71 89 67 55 65 65 54 50 23 26 19 32 37 46 47 54 34 17 11 20 9 33 57 70 55 49 79 48 55 78 68 44 18 18 38 45 68 89 80 68 79 79 57 33 -7 2 47 82 120 100 52 57 74
39 38 101 90 65 75 103 94 62 30 22 14 37 20 39 47 36 30 34 32 4 -6 14 37 49 61 61 82 82 86 57 5 1 9 21 36 54 56 76 82 73 64 54 36 17 3 -11 -5 -2 0 -5 15 37 57
56 52 79 84 79 102 156 135 59 40 46 38 31 30 30 59 64 64 46 45 10 5 27 43 67 63 73 89 74 63 73 46 34 23 33 50 43 42 70 81 66 50 46 40 32 18 7 0 -7 -5 -8 -19 6 43
78 43 59 116 120 177 167 90 60 60 24 14 18 37 39 40 33 26 24 11 25 52 80 102 87 106 94 77 80 70 54 64 33 10 39 54 47 48 59 67 63 50 37 25 16 15 6 4 -3 12 23 23 7 -1
80 61 101 235 258 199 140 101 84 68 40 80 62 46 42 42 37 25 24 33 32 69 76 124 123 100 108 91 67 49 59 69 10 -34 33 52 57 61 62 58 54 41 26 21 17 15 22 42 38 33 27 17 19 34
62 97 171 242 201 173 128 103 113 59 52 65 37 20 32 46 65 52 47 65 53 55 80 89 117 99 96 84 62 52 25 23 8 17 57 72 70 60 53 45 33 33 35 32 32 44 47 50 41 54 66 70 67 60
44 83 219 271 220 143 148 124 118 89 56 49 48 33 23 31 62 85 53 70 81 56 82 97 90 87 54 57 54 48 40 56 99 113 92 84 74 64 51 50 48 54 59 65 65 67 57 65 59 75 84 89 93 88
171 257 248 212 183 133 134 136 109 75 55 61 58 55 43 52 62 74 71 73 72 75 80 77 76 59 62 56 49 47 43 85 69 69 58 74 66 69 66 60 56 56 59 62 66 61 59 43 52 58 60 72 77 83
157 192 160 152 146 108 136 189 140 118 86 73 91 90 60 38 33 51 53 66 64 81 122 101 136 117 104 107 93 82 100 127 131 124 122 103 86 72 61 40 46 38 35 31 39 53 56 51 48 46 47 63 78 79
164 156 141 117 115 121 105 173 171 157 94 64 113 90 39 48 31 56 -9 45 82 117 134 126 114 113 85 95 120 130 113 121 103 79 72 64 63 59 50 34 36 40 51 68 62 67 66 53 53 44 47 62 70 79
132 127 147 130 131 161 119 111 160 154 124 112 114 89 75 50 68 65 80 115 184 136 116 113 151 144 125 126 129 124 123 128 127 116 80 83 69 52 48 48 53 43 47 72 83 82 73 60 42 65 63 63 69 80
185 148 150 113 140 163 114 123 169 151 101 106 106 79 77 92 26 49 83 60 24 33 25 45 71 96 92 85 97 93 104 126 108 76 72 95 100 104 85 73 61 48 48 63 60 67 64 67 76 85 82 79 73 78
164 129 106 88 130 136 86 58 31 63 106 103 45 55 89 49 31 -50 5 12 2 -24 3 49 80 82 65 60 66 73 64 92 120 83 71 105 120 116 87 69 52 53 46 77 85 78 71 69 68 61 70 73 75 92
200 175 144 155 129 119 90 98 129 103 52 34 51 74 51 -14 -69 -61 -34 14 10 14 27 13 39 52 62 47 40 51 74 99 113 90 109 101 103 115 127 101 77 72 90 98 105 105 100 101 96 93 97 104 105 108
91 81 95 115 123 141 110 83 57 28 45 82 124 69 -1 -9 -35 -50 -24 5 32 43 22 9 -2 -21 -3 19 43 78 93 107 115 95 77 80 104 107 110 103 95 58 90 106 113 115 108 101 98 106 116 118 118 131
118 153 203 170 153 87 64 68 62 88 112 126 101 105 71 95 58 18 33 39 56 55 63 75 86 116 134 124 123 114 109 122 129 99 80 75 89 85 94 100 96 105 114 121 81 83 103 111 109 119 128 153 164 176
203 242 206 154 124 97 68 47 40 79 123 165 181 158 137 112 79 97 121 117 102 71 65 82 123 186 187 202 176 147 115 104 127 147 111 91 82 100 117 111 115 120 134 140 121 101 65 100 122 144 139 150 161 178
220 269 220 158 100 82 89 99 97 84 127 140 164 114 87 74 63 28 111 173 161 204 186 163 165 185 215 212 189 140 80 89 102 92 105 114 113 108 107 118 128 134 149 148 135 130 134 151 166 164 144 131 123 123
213 188 182 143 166 161 142 103 102 97 109 132 115 125 120 108 42 44 156 153 153 124 77 98 129 115 127 145 132 116 133 126 114 113 108 112 112 106 122 151 173 167 146 153 171 171 150 127 122 101 92 88 81 81
262 227 201 153 152 146 138 131 130 109 93 86 78 88 116 98 61 120 144 157 148 103 69 70 88 98 88 87 89 94 101 103 83 62 57 58 50 53 87 102 181 180 165 162 147 115 75 56 53 47 37 29 39 63

GFSWCAN_con_3kmhel_027.txt.gz
Helicity
47 34 27 19 18 13 20 30 35 17 7 10 12 5 10 -12 41 4 10 -6 11 36 68 50 70 68 88 89 82 152 150 152 153 99 100 74 62 42 69 52 47 41 50 62 61 54 46 48 87 74 61 68 49 28
43 46 35 19 11 12 16 38 25 7 3 4 -7 -28 44 28 13 14 59 1 26 49 61 46 60 68 90 50 125 172 218 176 137 157 140 107 100 87 70 61 90 69 73 49 33 33 33 47 122 78 75 59 38 29
80 64 34 5 12 30 45 47 36 13 8 7 15 -15 19 41 -9 -29 -7 12 -17 -23 30 41 63 77 27 48 103 190 182 191 215 182 147 136 111 112 96 52 67 61 83 65 62 33 22 14 37 -0 19 41 33 22
74 44 31 12 20 27 60 65 63 24 15 21 15 -3 -21 34 10 3 26 45 46 29 5 44 33 57 46 80 147 131 112 233 143 210 174 179 128 78 68 63 58 67 108 73 61 23 12 5 32 52 50 49 32 17
65 48 44 38 19 46 61 77 63 25 27 45 31 -21 -1 11 -0 -8 17 64 89 67 57 95 95 113 72 109 124 111 161 61 69 200 198 181 136 109 94 84 50 79 83 101 47 25 41 18 30 16 -25 -2 13 19
55 52 56 57 58 24 70 91 66 33 19 50 10 -9 10 -18 -26 11 -1 8 -0 29 -0 -11 27 73 108 77 74 80 100 127 42 153 148 103 108 126 82 60 34 54 67 68 56 52 10 15 24 41 28 61 60 38
92 68 59 77 67 29 109 94 57 41 33 15 -15 40 15 -21 9 1 -1 27 62 50 35 26 -12 62 47 66 98 94 102 103 -77 27 184 122 129 121 97 64 28 32 67 75 60 36 15 13 29 36 44 60 74 74
100 81 74 83 57 108 111 72 52 34 30 -16 -4 45 -0 29 12 -2 -1 75 82 57 38 28 -34 16 121 67 21 27 68 -34 49 -38 60 140 158 141 69 28 74 92 92 56 73 49 13 -1 24 25 21 60 63 66
84 113 93 70 47 92 64 38 23 14 36 -9 -6 16 40 9 -4 -20 4 39 81 46 47 59 67 12 54 92 32 -10 -4 32 39 38 80 156 138 64 29 39 57 49 53 42 26 4 -7 -2 15 36 49 53 60 68
79 141 116 56 84 41 20 32 1 11 2 12 41 14 8 -9 -45 -39 43 11 22 19 55 99 130 90 37 15 -1 16 37 35 22 92 140 102 44 55 69 85 83 57 42 34 9 -1 -14 -6 6 36 30 35 56 68
86 151 110 66 58 35 22 8 32 29 41 18 -24 -7 12 -14 -17 -22 -9 -2 11 26 40 92 137 106 65 41 18 19 31 34 38 71 89 52 21 47 96 97 81 57 45 28 13 20 32 21 31 42 42 40 30 39
71 105 105 73 43 45 49 24 42 31 15 24 35 59 31 16 17 24 13 -14 3 9 14 56 89 56 37 39 8 13 13 26 52 70 75 18 28 70 77 70 66 61 54 45 48 34 7 -8 36 83 76 69 50 51
72 86 87 85 45 44 59 66 43 21 37 33 9 -6 -10 4 22 43 32 24 18 15 -1 25 65 18 19 24 24 21 10 7 2 20 33 34 55 78 95 77 56 60 67 52 40 35 16 2 37 63 95 93 75 44
14 68 86 96 62 55 92 83 57 41 34 -8 -11 -12 -9 22 33 50 57 38 18 11 4 12 20 24 14 25 17 2 18 29 26 23 24 29 26 41 46 61 67 83 69 45 34 10 -30 -29 28 60 89 115 75 51
26 37 67 110 81 84 100 93 76 44 31 4 5 -23 -23 -3 23 52 40 45 14 5 -2 6 9 23 34 26 25 46 13 8 -1 12 14 17 52 60 70 71 76 65 67 58 41 41 14 -27 -22 -2 -12 -34 -25 11
47 71 50 80 93 130 123 113 70 58 51 20 -14 -4 17 22 3 13 -8 -11 -9 5 5 20 42 52 44 72 60 36 42 24 34 42 46 75 43 32 27 48 62 59 56 50 43 32 18 8 -11 -25 -20 -7 -3 -1
89 71 48 69 158 159 129 78 63 71 39 28 14 38 33 27 20 -10 -6 -4 8 18 53 64 73 77 90 72 78 76 61 73 63 29 11 22 43 38 42 40 46 62 56 38 19 13 7 3 -0 12 21 16 5 9
83 67 87 167 202 159 137 102 79 73 37 82 67 50 62 45 28 4 13 26 26 36 59 91 107 111 107 85 60 49 30 51 43 -11 -8 40 48 56 56 57 57 55 46 32 21 8 14 33 37 38 34 35 39 49
60 64 117 182 158 127 94 119 122 50 41 88 70 68 57 46 42 45 38 40 48 57 63 79 97 103 106 70 47 59 69 62 43 25 34 43 54 58 61 61 53 44 32 24 33 33 30 37 43 46 47 56 62 70
71 67 140 174 174 114 138 141 165 105 67 71 97 73 66 75 73 65 63 58 56 65 73 92 108 100 56 40 48 63 52 65 107 112 89 82 78 86 69 54 45 45 42 43 53 67 73 75 68 68 64 63 68 72
201 216 176 154 164 121 117 123 133 124 112 102 104 70 55 113 118 98 67 95 92 145 134 122 103 81 73 61 44 43 41 67 77 80 59 78 72 82 74 64 65 63 71 76 82 73 72 57 52 50 52 50 52 61
167 169 137 142 171 134 147 166 170 170 149 120 119 108 50 64 61 75 91 141 133 151 175 138 161 132 78 54 74 78 57 71 106 121 131 132 145 117 76 54 68 48 34 25 25 26 32 35 38 43 48 44 56 61
181 170 144 156 172 184 137 178 165 162 131 63 96 87 54 51 60 97 28 87 166 201 131 87 69 91 80 68 85 91 98 129 128 107 96 93 99 89 94 69 48 34 16 8 15 34 38 39 43 43 37 46 50 54
186 145 150 155 158 178 202 179 197 164 136 75 65 66 65 57 90 95 108 104 94 87 50 44 66 51 71 98 86 96 90 125 133 129 111 112 85 57 68 64 63 48 38 48 54 42 41 43 45 58 59 54 53 55
141 129 170 177 219 219 194 179 187 147 89 41 61 62 73 96 54 66 48 -29 -6 11 -7 9 37 49 49 63 83 67 81 132 128 98 87 97 114 120 93 78 67 65 74 65 46 51 58 56 51 55 65 65 59 58
178 150 161 173 192 195 176 134 80 20 22 43 23 71 93 73 25 -20 -22 -45 -17 -13 -7 -2 4 24 39 58 62 57 53 75 106 77 63 102 104 98 84 82 78 65 60 64 67 64 61 59 56 53 55 56 55 68
200 153 152 195 206 200 151 143 122 61 17 32 52 87 87 15 -23 4 -26 -72 -59 -31 3 -4 -2 -22 -10 25 21 17 39 71 81 66 84 86 96 106 117 95 67 48 70 78 83 81 72 71 70 72 76 90 94 93
175 187 180 184 185 174 108 88 50 24 39 51 80 79 25 8 13 15 -37 -53 -37 -18 -2 8 18 8 -15 -19 8 42 75 96 107 93 81 78 91 88 83 86 97 73 87 92 89 94 96 93 91 96 100 102 117 139
205 178 154 121 101 62 33 37 27 39 59 70 49 75 49 50 47 43 17 8 45 39 13 9 19 68 86 96 105 111 121 140 134 90 71 74 99 79 98 97 102 111 106 102 86 88 96 116 117 120 122 137 138 142
171 160 144 112 99 70 65 99 62 57 68 85 79 75 63 76 74 76 72 59 73 44 36 51 78 142 109 149 145 160 162 165 157 150 108 79 60 91 119 115 96 89 99 102 104 108 100 136 135 140 132 136 141 144
185 205 190 182 137 132 148 158 140 96 107 90 103 65 51 11 27 72 121 72 92 139 114 68 117 152 160 161 169 162 143 148 150 127 127 132 129 107 101 98 106 125 136 132 129 125 127 146 150 138 130 123 117 103
271 231 233 169 145 140 151 122 110 99 96 87 62 85 65 47 -3 -79 78 150 153 83 52 115 86 54 109 131 136 159 159 122 97 100 99 112 113 107 110 122 145 167 161 169 161 165 172 158 138 116 96 79 71 67
307 286 251 172 126 88 81 72 42 17 36 49 59 56 53 39 2 62 104 161 186 141 101 100 95 100 98 105 106 104 105 104 96 82 68 60 56 75 103 119 131 170 204 198 160 145 111 83 65 41 32 36 36 32

GFSWCAN_con_3kmhel_030.txt.gz
Helicity
58 49 32 24 25 42 27 3 18 5 9 15 13 -4 -4 26 24 -12 19 1 2 46 59 54 70 65 79 84 95 144 129 125 138 28 68 83 55 53 49 41 39 39 37 53 53 56 42 59 98 71 109 89 61 59
72 59 42 40 40 24 28 27 29 20 20 22 14 10 -19 17 -7 -20 -20 -3 -38 -4 67 24 27 33 39 69 111 150 190 133 160 145 149 137 98 80 77 55 71 45 49 47 28 48 47 29 108 117 87 82 62 56
72 71 62 44 29 4 3 40 38 37 29 24 41 17 6 -16 6 -31 -11 16 22 5 39 29 78 104 19 6 109 185 171 192 211 229 190 167 128 116 88 72 68 26 43 58 53 24 1 32 24 52 44 53 71 55
91 88 61 54 37 11 16 46 45 40 26 34 52 38 3 -5 26 20 31 52 45 22 46 62 86 50 73 84 110 106 135 260 252 239 220 189 158 113 106 106 71 88 77 46 29 34 57 48 55 69 44 37 41 34
81 103 83 50 43 32 60 70 51 59 45 53 70 20 2 12 -5 -9 48 48 49 31 22 69 73 18 8 35 72 73 81 133 186 194 243 224 190 134 120 103 60 95 96 92 51 41 50 67 86 63 35 21 12 18
69 110 110 78 40 55 68 101 112 73 59 62 40 18 -10 15 -10 12 -20 -25 -20 -6 36 8 -17 -24 1 20 39 77 108 145 143 73 11 224 167 162 86 77 25 46 93 86 62 68 60 69 55 37 43 43 22 33
44 80 93 93 71 57 52 147 109 64 45 58 27 17 -1 11 32 -8 -6 7 27 48 16 -44 -44 -3 68 92 105 125 141 149 122 -159 -38 63 81 94 146 91 35 30 46 74 81 58 35 42 63 50 39 58 58 55
35 80 95 111 99 94 119 91 69 52 24 28 40 33 -2 62 41 -1 -3 -1 84 15 -6 -20 -3 5 110 134 111 88 89 75 60 -8 -94 30 54 128 81 30 63 88 95 76 72 73 56 26 9 3 15 21 42 57
6 46 85 91 83 99 93 64 35 27 22 -5 8 43 27 32 2 8 -54 -23 76 -6 -14 24 4 0 88 120 107 113 57 -13 32 16 -50 -23 90 84 32 40 39 52 62 67 70 54 30 20 26 19 24 32 34 51
12 24 61 65 120 100 58 66 37 16 14 6 43 41 -3 37 14 -36 -26 -14 -5 -8 1 44 79 93 38 40 99 8 58 19 8 4 18 10 16 69 76 74 76 76 74 63 54 44 38 18 13 20 15 7 11 32
-4 23 32 54 103 93 66 60 54 43 32 -2 2 5 52 -1 6 10 -2 2 2 9 26 31 79 147 82 53 26 84 35 -2 11 0 17 31 11 39 69 90 102 93 76 53 39 38 31 23 23 36 58 56 42 41
-5 16 35 48 78 91 80 68 69 52 44 43 24 15 -12 -13 -10 30 19 15 13 19 4 5 34 81 40 13 12 -11 3 2 4 27 37 -3 15 38 52 67 75 71 56 46 39 44 43 11 -18 -16 47 94 111 65
47 44 32 39 71 83 98 76 67 63 84 52 -2 -38 -32 -12 8 44 97 45 36 26 13 -23 7 15 7 -4 8 5 0 -6 6 1 12 22 43 59 67 94 96 76 61 48 52 47 42 9 -30 35 41 64 90 84
55 61 54 59 56 68 101 83 68 61 58 26 5 -22 -35 -25 -34 -35 -4 43 49 54 60 37 9 7 13 19 18 13 12 14 12 22 22 24 29 43 67 91 85 76 61 58 60 50 34 -19 -54 16 39 70 97 83
40 57 62 68 66 78 93 87 73 54 82 54 42 -13 -28 -12 -14 -5 -3 3 -8 -15 -8 20 4 -5 23 37 33 30 15 5 -8 14 26 20 46 47 40 33 40 52 66 62 65 55 40 -11 -11 -1 19 26 13 5
59 73 66 67 77 114 90 70 59 73 82 70 50 39 44 21 -14 2 2 -9 3 -7 -15 -28 -2 27 45 49 64 36 34 21 14 44 55 78 57 35 37 32 41 59 70 75 55 51 42 10 -11 -23 -25 -19 -14 -5
76 74 67 91 126 165 105 74 89 99 77 52 41 34 64 38 12 -8 -15 -12 3 -5 -1 29 38 59 75 74 72 49 48 63 75 55 23 5 23 33 33 33 53 73 63 48 33 37 22 15 12 14 19 18 14 15
89 77 92 171 189 144 116 118 119 103 102 87 81 33 58 60 57 45 26 9 -13 -8 10 47 80 77 98 90 56 41 27 53 66 42 15 43 59 56 54 53 54 57 56 48 37 21 13 16 13 6 10 15 4 15
86 71 112 149 128 125 108 84 126 113 60 85 90 69 38 37 45 65 64 71 55 42 10 28 58 65 71 81 55 35 27 46 61 52 29 31 37 59 64 58 50 38 28 26 32 37 40 43 40 41 41 45 44 47
102 72 132 129 118 123 133 132 145 157 132 76 97 88 54 36 61 79 84 98 102 82 62 66 111 132 78 55 25 37 77 62 70 70 71 72 77 79 61 58 49 44 35 33 36 40 45 49 53 58 57 59 54 49
193 196 226 147 138 129 144 145 163 136 145 114 95 78 84 83 77 110 93 124 138 159 172 166 183 186 112 75 59 55 32 46 99 87 78 77 85 74 78 69 63 53 47 44 41 43 53 58 60 55 50 43 40 41
213 190 173 163 157 148 185 205 229 199 167 165 105 104 92 84 86 90 101 122 117 103 122 105 105 81 64 48 41 61 44 55 87 96 93 99 115 106 85 74 83 67 61 58 52 52 52 51 52 48 49 44 41 39
216 175 188 208 191 185 191 201 225 202 199 150 90 34 21 49 53 63 47 84 82 81 84 65 72 71 38 20 28 51 50 70 84 96 96 101 104 107 112 99 75 71 58 45 42 40 39 40 42 46 45 43 40 38
194 196 242 216 214 231 222 209 228 218 199 156 93 45 49 63 70 60 68 51 22 38 8 -8 40 25 31 33 36 66 74 67 75 92 106 112 105 84 86 85 78 63 58 69 49 35 34 37 46 54 53 53 47 45
166 152 201 207 223 230 209 225 246 226 142 87 63 74 66 79 61 43 60 23 13 -7 -33 -15 -7 -9 0 33 40 52 72 75 74 79 90 103 125 136 102 83 67 57 81 75 61 51 45 52 54 57 57 55 55 55
139 190 111 100 204 223 205 155 102 91 87 66 34 68 77 76 59 29 38 40 -3 -43 -61 -33 -34 -39 -20 9 34 46 59 54 61 52 52 83 88 96 85 87 74 60 95 102 93 74 59 60 60 56 54 48 46 61
172 162 190 269 250 216 152 131 129 97 70 59 80 97 75 43 18 22 60 36 -31 -48 -53 -39 -29 -21 -36 -34 -21 -24 4 20 46 48 54 49 64 85 108 94 64 70 102 100 102 89 73 71 70 64 60 62 59 57
147 180 228 221 210 176 126 117 95 69 61 62 83 52 7 -17 23 41 2 -27 -28 -18 -33 -16 -13 -21 -7 6 12 33 47 44 50 42 35 33 46 62 74 98 131 136 130 111 96 93 85 76 71 66 67 65 72 75
224 259 276 222 206 148 114 109 78 63 56 85 67 45 17 3 -3 -37 -86 -55 -19 -28 -36 -23 -4 52 46 58 61 77 103 120 139 100 77 70 89 78 97 97 114 117 112 102 72 71 75 82 82 85 80 93 98 106
154 135 152 157 175 164 129 139 117 99 93 108 96 63 38 15 -10 -11 -38 -32 -36 -41 -11 3 5 50 51 55 37 59 123 156 167 160 130 112 106 122 95 96 110 119 123 112 101 101 97 104 106 126 124 121 113 116
173 185 169 167 151 147 169 180 157 115 108 82 105 46 32 1 6 12 23 51 70 65 39 23 22 54 38 44 75 62 43 89 137 146 177 173 152 126 107 109 119 127 126 120 116 108 110 119 109 109 108 106 103 107
200 196 204 169 146 147 173 152 132 108 114 82 51 74 47 18 7 -23 67 121 155 58 44 18 19 16 65 92 100 104 117 110 128 137 125 125 113 110 115 116 123 124 129 127 132 127 121 115 116 118 116 99 94 87
225 234 238 217 192 150 116 121 114 89 74 22 -22 -21 -14 -17 -7 51 110 167 169 145 112 64 46 63 73 73 82 112 131 124 104 102 96 86 78 84 111 127 132 140 143 143 149 152 130 116 107 96 84 70 46 34

GFSWCAN_con_3kmhel_033.txt.gz
Helicity
61 51 54 57 53 54 60 47 45 29 24 21 20 26 19 32 14 6 2 -22 -4 -4 50 37 63 77 79 76 82 108 73 83 111 6 4 69 38 35 45 39 42 46 48 43 41 48 41 71 97 81 110 87 79 82
30 25 45 55 52 56 54 64 48 32 36 27 14 19 25 20 33 39 1 -5 -14 -2 68 66 36 48 54 51 71 84 143 132 173 91 98 102 51 92 44 41 55 66 66 62 43 53 46 26 87 117 94 71 68 61
4 8 38 49 41 49 49 59 61 66 45 21 32 31 28 33 26 36 55 8 -29 -24 25 23 26 39 54 36 60 125 112 176 187 186 184 170 123 91 67 15 48 45 49 73 50 27 21 38 43 74 88 79 69 65
-21 -10 14 32 35 52 62 79 85 89 66 47 43 44 20 20 16 20 35 17 -1 14 16 53 49 82 50 56 40 59 71 97 169 129 174 190 166 111 85 107 73 64 72 51 52 36 55 35 29 35 44 52 52 49
-20 -15 16 15 28 60 59 83 93 110 96 84 71 36 17 15 -7 14 11 4 -4 21 51 87 23 29 32 13 27 45 67 104 162 175 211 214 204 152 130 127 95 93 67 68 61 23 37 77 55 115 66 44 39 26
-11 -13 19 -3 -5 26 88 88 127 107 79 70 68 52 22 -13 15 26 -15 7 1 -13 9 -13 12 10 8 2 -5 -13 54 132 175 213 215 124 154 262 160 104 51 24 22 34 37 66 89 102 83 82 62 61 55 37
-1 -8 9 0 16 26 67 121 113 76 54 38 32 25 32 -22 37 7 9 45 46 13 22 45 22 1 13 32 40 70 102 141 159 204 198 156 42 106 171 127 80 29 40 60 94 82 55 55 78 65 55 50 43 28
5 -9 12 -4 2 36 105 104 73 57 32 3 9 8 41 36 41 28 39 30 -2 4 10 6 5 3 42 33 50 133 124 120 147 137 85 75 -48 -117 122 58 90 45 49 57 66 94 102 85 53 34 23 15 10 13
-16 -17 -4 1 16 29 73 84 59 53 37 16 0 39 71 52 57 26 -5 -39 -2 2 5 4 26 10 61 67 104 122 117 87 121 92 28 15 -112 -56 56 70 39 53 46 52 85 81 69 46 52 34 22 14 4 7
-34 -38 -17 12 25 59 37 60 78 48 40 56 61 2 -2 60 25 13 24 0 9 -1 -5 2 19 55 74 72 96 134 106 94 126 79 -2 28 -367 -111 -3 40 68 85 72 69 71 64 64 50 41 41 29 33 28 21
-38 -55 2 14 46 35 47 60 77 54 58 72 78 1 9 -1 11 17 21 -1 14 3 0 0 11 60 31 58 69 82 98 72 62 31 -1 -36 -52 4 79 47 42 65 74 72 79 70 55 60 61 39 31 34 45 58
-5 -12 15 20 33 42 52 60 68 80 95 104 83 53 28 -20 -19 -25 12 14 10 30 2 27 51 28 11 -4 35 54 38 50 16 27 -11 -6 12 29 42 55 61 74 71 61 56 57 66 65 58 28 29 54 58 92
17 26 49 34 37 43 63 64 70 83 93 83 95 91 33 -42 -64 -46 -24 -18 -1 17 18 28 55 4 -14 -1 -14 17 -9 -7 -18 -11 37 10 -6 13 21 39 63 77 65 65 68 65 73 59 3 -26 33 45 37 62
30 48 52 60 58 64 87 86 67 53 50 73 97 83 81 -21 -57 -41 -26 -14 28 28 -3 -15 7 2 7 4 21 37 21 2 0 4 9 25 17 37 52 70 81 91 87 89 84 78 66 30 -9 11 16 45 22 51
38 23 32 56 65 77 100 96 75 56 51 53 88 90 102 76 77 27 21 4 -5 -3 -17 -8 -11 -15 10 7 23 32 30 20 4 7 33 13 26 39 52 61 73 91 95 91 90 78 56 10 17 18 18 11 31 58
26 41 28 46 71 93 103 79 65 67 73 66 59 97 113 96 77 68 4 -23 -11 -28 -26 -12 -7 7 16 45 50 50 53 33 34 20 23 66 45 32 50 48 47 62 96 103 88 66 43 27 6 -2 -4 -3 -3 -10
79 77 55 58 98 139 104 70 72 94 87 101 80 74 84 111 96 79 40 15 44 -21 -34 -29 -21 13 39 56 58 43 44 35 34 41 45 36 25 20 35 53 58 70 83 82 64 35 24 23 10 13 12 8 11 8
135 94 94 156 137 128 104 89 90 104 107 103 118 110 93 85 94 90 68 44 32 23 3 -29 17 44 47 64 31 45 9 3 -1 55 79 68 53 52 43 48 53 59 59 49 39 24 17 20 13 11 2 -4 -10 -6
125 99 144 137 112 131 102 87 94 136 114 92 101 92 90 77 71 68 85 78 84 106 68 31 -14 24 37 63 52 -3 -36 -46 -29 14 47 44 34 34 55 67 67 56 45 36 31 28 25 24 24 27 25 25 24 25
134 116 107 138 138 150 125 123 116 137 159 127 102 93 76 81 95 85 97 90 88 90 102 126 159 117 81 34 52 44 39 50 22 13 30 61 60 66 66 62 56 60 46 35 31 29 34 36 38 44 45 46 46 46
225 168 172 219 158 154 153 148 155 106 102 91 89 75 60 90 84 109 89 95 103 135 171 205 170 99 86 79 66 54 30 26 30 43 77 94 102 103 94 79 75 62 50 42 40 41 39 42 51 52 51 48 44 43
223 166 280 228 184 163 162 160 157 129 114 134 103 115 84 84 94 105 79 90 117 114 166 128 89 48 21 15 34 61 49 41 38 57 63 87 78 79 94 95 92 72 61 60 59 55 55 58 53 47 46 48 47 50
247 270 208 155 171 157 197 209 201 186 166 157 142 115 93 76 93 78 49 60 84 147 119 92 68 57 28 24 27 36 51 50 28 52 81 89 95 95 95 94 97 96 89 81 81 73 62 51 42 39 41 42 44 47
178 137 179 119 118 190 253 199 237 238 202 183 157 124 109 115 119 98 73 93 138 97 54 42 46 31 29 25 11 22 65 55 53 64 80 102 103 96 99 95 90 87 99 115 92 75 65 53 45 39 38 39 40 42
192 161 149 163 187 190 184 217 234 191 166 119 135 107 120 102 91 66 45 98 149 77 48 29 5 -17 -30 -12 10 15 32 43 57 95 68 92 100 106 91 93 88 90 112 98 77 72 68 65 56 51 49 46 45 49
205 127 151 144 176 192 185 145 121 113 108 82 70 110 129 105 80 35 15 45 106 107 73 42 27 5 -40 -37 -24 4 23 56 52 108 115 82 84 84 79 82 70 49 96 95 100 94 87 84 73 64 58 48 39 51
214 115 140 195 209 210 176 173 166 119 96 82 107 130 116 110 54 40 33 84 142 68 12 -12 -13 -27 -32 -12 -4 -2 13 26 29 67 77 74 67 66 73 80 68 70 90 92 100 95 88 85 78 73 69 69 67 61
131 137 217 234 226 219 176 154 108 78 82 108 127 97 62 61 74 36 7 42 13 -49 -32 -13 7 -2 -11 -7 16 24 31 47 54 44 28 19 36 47 59 82 94 82 109 114 119 122 114 108 98 88 84 81 81 77
174 210 233 219 210 147 130 146 150 164 169 157 119 116 45 80 89 38 -3 -27 -68 -86 -87 -58 -38 -3 -7 38 51 62 92 103 86 45 35 42 67 70 114 132 140 148 139 124 91 92 96 102 94 90 82 85 84 85
163 177 200 189 185 155 183 166 136 149 160 189 172 139 108 53 39 57 10 -29 -48 -20 21 3 -4 26 6 -5 2 24 116 165 175 154 88 70 83 117 133 150 149 143 142 133 131 133 116 115 111 117 112 118 129 119
185 186 165 164 177 157 177 186 175 148 142 141 168 135 57 22 1 -17 18 75 113 90 46 42 28 18 28 29 40 34 26 87 122 115 125 183 167 141 144 157 167 161 150 143 138 130 124 126 117 111 110 108 105 102
179 172 179 153 137 151 143 154 170 173 179 146 101 138 57 -11 0 -15 41 119 87 104 72 8 -3 -8 44 31 67 100 111 116 95 78 77 111 135 140 140 139 148 150 143 133 132 131 128 130 133 125 119 106 107 117
216 230 214 170 139 116 123 125 125 128 132 131 93 75 40 10 -21 -35 6 50 24 58 76 58 63 64 68 60 64 78 90 97 96 105 104 96 94 96 106 114 118 121 125 133 135 134 123 113 111 109 116 114 101 81

GFSWCAN_con_3kmhel_036.txt.gz
Helicity
18 14 17 24 14 8 16 21 42 60 52 49 45 61 34 31 27 34 39 16 -0 12 60 44 63 101 96 107 149 128 78 77 83 86 74 47 44 36 36 47 60 63 55 55 55 47 29 65 64 61 50 83 67 84
-4 8 14 18 5 6 15 10 30 67 62 51 49 60 44 56 46 52 34 31 23 2 42 46 94 43 77 89 78 94 105 105 101 93 107 80 99 90 60 54 103 61 66 42 38 23 25 12 55 98 79 65 68 63
-9 2 -8 -12 -1 10 12 4 14 71 70 60 63 52 34 41 34 52 46 45 29 2 60 27 65 100 67 45 57 84 84 118 117 104 99 115 108 105 85 -6 106 70 44 69 82 35 31 43 86 87 79 78 71 87
-1 -0 -5 -15 -15 -1 -3 -18 10 73 80 77 71 63 39 35 27 38 61 35 35 18 35 39 34 69 87 87 62 37 82 133 140 96 127 157 151 137 104 84 65 104 77 83 76 31 49 45 62 74 81 69 64 64
1 5 8 5 -8 3 9 -23 24 78 91 78 64 53 39 34 8 41 52 24 7 6 51 78 63 40 21 15 18 27 32 44 57 66 127 180 208 144 114 103 113 138 126 144 68 25 68 62 77 139 129 81 74 58
9 11 16 4 -8 7 3 -2 53 90 81 79 67 43 44 27 15 43 70 49 71 20 7 57 -1 -10 4 3 2 3 18 42 106 130 136 150 175 214 196 166 115 75 79 79 68 92 106 151 168 158 134 105 87 58
12 15 19 3 -13 -9 -8 8 39 71 77 76 61 57 37 46 49 50 53 85 117 11 -4 4 20 5 11 9 7 7 46 82 90 107 140 178 170 166 180 223 159 75 66 107 129 145 137 113 97 101 98 83 64 45
7 12 -0 -2 -11 7 25 20 27 33 52 64 85 86 88 85 83 68 54 88 -12 8 -7 1 5 18 16 13 10 59 80 90 102 115 155 95 119 193 264 96 75 161 117 148 148 160 135 121 92 70 58 43 30 20
4 4 1 7 12 2 18 39 23 36 44 67 88 108 83 59 60 64 56 -8 -2 -1 7 -0 9 32 13 33 43 97 116 109 114 166 104 136 109 145 83 -56 9 251 111 32 130 104 93 90 88 55 37 39 18 17
4 -7 -15 15 20 36 30 22 27 16 42 83 108 117 107 95 27 1 33 17 5 16 13 -1 -0 10 26 19 33 58 115 100 108 101 143 180 218 92 -18 -18 18 84 94 87 97 76 83 77 76 86 54 25 26 24
-8 -4 -5 35 45 66 41 27 21 7 42 70 85 100 74 37 48 -34 -50 -28 -10 -11 10 28 46 66 41 9 37 61 68 68 79 91 17 61 56 36 -28 -1 91 65 65 60 63 62 64 60 57 49 24 33 47 66
11 24 42 41 50 63 47 26 14 33 59 58 61 57 40 44 57 5 -73 -63 -45 -36 -2 4 48 28 -2 -7 -11 27 51 59 48 98 64 20 51 32 96 94 49 62 51 32 50 53 55 55 46 34 43 49 57 81
66 61 67 70 54 49 51 50 39 47 60 49 47 65 70 56 97 120 19 -41 -31 15 39 15 23 1 -23 -24 -6 3 33 57 42 39 29 16 -6 -0 -3 -28 36 52 56 65 65 69 69 76 55 14 -1 34 43 72
67 67 69 68 64 73 67 60 42 32 37 51 63 41 66 78 88 104 96 122 88 30 -0 -7 4 4 6 -3 6 8 18 8 19 13 -3 7 -4 23 32 36 29 55 74 66 68 67 75 61 37 45 46 61 74 85
76 62 65 64 71 86 83 64 54 45 46 61 94 95 61 73 82 88 97 97 84 80 -18 -6 -19 -2 -17 12 13 14 16 27 17 22 -5 -17 30 24 32 43 57 68 80 91 90 85 75 54 43 45 31 7 17 16
118 119 68 70 79 92 103 79 57 57 72 88 90 106 90 93 84 87 91 82 78 58 38 -26 -73 -49 -28 -18 25 39 36 34 36 -9 -21 -22 17 29 35 43 52 53 65 76 84 88 81 55 47 21 6 2 -2 2
77 100 71 102 112 147 112 82 64 90 105 106 89 70 81 78 80 85 90 98 93 82 68 32 -37 -49 -25 -6 8 22 53 27 32 27 -14 -6 6 8 24 36 46 50 56 77 101 97 67 38 17 15 13 4 6 7
132 94 115 180 177 137 139 120 93 108 129 97 94 93 91 67 78 76 81 107 106 105 98 75 76 66 4 5 37 -6 -78 -103 -99 -65 -25 -6 52 47 39 46 45 56 52 41 32 38 35 34 25 18 10 12 17 16
143 137 138 142 126 189 208 148 105 82 95 78 86 88 91 79 72 72 87 110 118 147 123 125 108 97 114 64 27 -8 -35 -47 -27 -18 -10 -12 11 33 39 43 51 52 49 40 43 45 34 26 18 16 17 29 26 32
160 133 141 157 134 259 256 181 182 151 82 58 81 85 86 84 103 89 96 115 118 114 136 172 195 202 186 129 42 13 -17 -8 -11 -26 -13 6 15 49 81 74 58 51 55 53 46 28 33 30 25 27 29 33 43 45
246 188 200 179 230 262 249 195 217 170 128 91 100 64 45 90 99 119 140 144 143 187 185 138 167 160 134 81 66 27 9 25 17 33 43 18 9 51 108 95 108 98 77 60 47 35 26 26 32 40 43 47 52 52
222 209 197 229 262 261 238 247 292 262 154 146 113 92 76 101 102 128 156 145 173 198 201 122 148 95 55 50 57 46 21 21 32 47 37 53 81 85 82 111 121 106 97 70 57 44 40 41 42 46 51 54 59 59
237 309 311 251 232 254 243 270 296 249 201 142 118 128 126 124 133 143 109 120 152 169 161 165 114 77 35 36 31 43 35 14 18 44 61 62 81 93 100 99 113 112 88 70 83 73 62 52 51 51 50 53 55 55
281 299 277 265 280 325 357 354 285 216 176 186 176 193 176 199 185 184 168 167 202 174 173 136 79 80 44 17 9 21 12 9 18 38 66 64 74 100 88 93 96 110 116 93 107 88 80 64 48 56 57 68 57 48
194 200 218 284 253 333 333 330 276 233 221 176 182 167 150 148 141 136 154 140 162 147 154 137 103 52 9 5 4 4 -28 9 -10 43 57 70 104 124 95 84 77 81 122 132 106 101 91 84 78 71 64 55 41 39
274 206 274 262 302 317 267 245 191 159 141 127 91 130 156 134 117 90 109 90 33 100 144 112 70 55 12 -17 -5 16 -4 18 24 30 84 92 124 141 111 93 91 79 104 114 118 91 79 88 84 68 63 35 21 40
287 229 182 202 219 234 250 227 158 133 114 84 102 130 117 110 82 90 58 13 32 83 81 45 41 29 -15 -14 27 19 38 107 102 66 44 55 73 114 148 135 109 77 69 87 96 106 95 89 88 77 64 70 69 61
210 223 256 268 258 193 143 133 112 90 99 121 173 167 120 121 124 124 56 8 -1 44 36 10 17 45 18 8 11 -30 -7 67 83 78 40 10 39 67 78 103 123 88 88 87 89 105 108 102 103 99 95 84 73 71
238 279 322 243 209 150 148 169 152 174 202 234 213 197 185 185 116 110 51 10 57 42 -35 -6 8 -10 -53 -5 -9 -29 1 118 55 7 17 24 19 24 75 118 123 143 149 136 104 118 114 115 105 101 80 79 77 79
206 187 178 165 187 176 210 203 169 182 201 217 187 153 124 119 118 113 82 36 12 33 51 38 32 -38 -23 -24 -8 -8 15 108 166 152 56 40 41 60 96 114 140 163 177 169 160 170 136 137 134 135 122 116 106 112
135 172 163 173 176 166 204 230 202 157 143 135 165 180 48 47 41 100 27 22 40 23 23 20 -4 -28 -53 -38 -21 1 13 14 73 97 99 93 102 112 105 99 117 145 163 171 168 156 145 137 125 114 109 100 96 101
158 180 195 180 168 156 129 154 162 154 153 171 170 210 211 192 23 -31 37 109 14 12 -17 -12 -0 -17 -7 20 67 48 25 42 53 55 62 85 112 114 122 147 154 152 146 139 134 134 130 120 124 122 123 114 112 107
216 220 211 176 168 155 166 176 179 158 154 150 135 164 203 194 65 41 64 95 98 24 -16 -38 -30 -11 -2 8 49 59 71 61 46 66 75 73 74 81 93 104 112 120 126 126 129 138 133 127 119 107 107 100 98 106

GFSWCAN_con_3kmhel_039.txt.gz
Helicity
10 4 2 7 -5 11 13 -0 -7 30 28 34 29 34 22 40 48 62 44 28 49 39 43 55 85 89 107 113 105 113 83 111 108 94 84 66 42 32 43 39 50 47 37 47 54 49 29 32 61 20 12 41 36 80
9 -3 6 -5 5 10 8 -9 -11 46 49 40 41 32 25 51 44 63 59 69 69 39 29 45 40 85 31 66 89 108 113 99 99 86 105 70 66 75 57 52 87 52 56 24 44 21 8 13 17 38 32 38 37 47
-2 -10 -11 -6 10 9 -0 -3 8 52 67 49 41 40 31 44 45 54 77 56 62 42 54 63 52 71 72 52 37 77 87 96 89 75 71 81 57 75 46 38 86 86 83 50 51 44 40 29 63 51 52 55 55 56
-5 -9 -11 -2 4 -1 2 -2 2 51 57 57 39 38 34 32 12 36 62 42 70 47 35 27 9 26 48 92 79 63 65 89 65 56 89 119 113 135 109 103 77 96 112 99 90 69 49 33 53 77 93 84 89 79
2 3 1 4 4 3 7 5 30 43 47 43 33 29 28 33 -4 55 69 68 70 47 24 25 23 22 8 18 60 107 74 47 22 20 63 62 105 92 91 59 122 131 112 124 86 35 60 51 54 123 110 75 67 70
8 14 14 18 7 6 -1 10 47 94 92 72 49 29 26 14 10 69 70 89 62 43 -18 -17 -77 -56 -32 -22 -12 -1 23 36 57 58 69 70 95 139 158 168 98 88 89 96 68 81 33 67 126 171 160 118 92 72
12 11 17 10 5 1 15 54 84 107 99 75 65 59 45 42 66 57 59 85 51 36 9 -45 -39 -11 -1 -10 -2 7 18 28 42 40 56 69 91 170 246 229 159 171 298 190 55 168 132 118 97 150 137 114 98 77
16 15 13 11 7 16 29 37 50 72 75 75 65 60 75 109 102 52 39 53 28 12 -0 -25 -27 -10 1 7 15 -2 7 24 47 59 72 99 102 175 181 150 152 -78 132 245 180 213 143 138 138 133 116 89 72 57
18 27 22 17 14 16 29 24 37 42 46 66 83 71 65 76 69 46 10 21 9 -1 -9 -10 -14 -15 13 -2 -3 3 10 24 37 46 55 91 99 71 160 92 104 -7 -88 88 118 125 133 130 115 107 85 68 47 33
32 36 34 31 34 53 40 33 27 28 48 67 70 53 50 55 50 35 48 -15 -30 -12 -22 -28 1 -3 33 16 -24 -4 13 13 39 30 112 103 74 133 131 65 23 -200 -195 50 85 116 134 111 69 66 59 41 30 13
49 46 47 53 62 51 47 33 10 30 51 42 35 49 43 11 41 60 78 71 10 -32 7 20 36 32 11 5 18 -24 -5 16 11 54 120 73 50 84 8 7 16 7 19 123 55 88 79 65 55 49 51 43 31 32
51 48 45 65 62 46 35 30 17 18 33 46 52 54 38 22 25 54 82 95 114 86 26 22 32 45 -4 -4 -12 -18 -0 -2 -3 110 63 29 23 50 29 28 1 43 86 57 62 34 51 52 41 30 41 55 61 53
48 58 46 49 59 45 40 48 50 49 32 36 44 63 72 37 32 77 30 44 84 106 115 107 -13 14 -5 -18 -10 -12 -4 2 27 25 39 41 -46 -30 50 7 12 24 33 40 18 37 35 37 47 36 13 5 -26 -2
52 63 56 37 57 41 41 43 38 37 42 50 56 84 99 69 48 52 65 65 78 112 107 113 105 -7 5 -3 -14 7 19 23 7 23 20 -22 -32 -30 -36 4 -0 -5 10 22 40 48 39 25 32 36 30 17 19 28
74 74 63 67 73 62 57 45 40 32 39 40 49 98 106 68 47 57 66 71 75 90 104 90 62 80 -42 -39 -17 -16 9 12 38 81 59 50 -5 -22 -31 9 40 40 41 50 49 49 56 66 50 38 32 19 7 26
101 121 72 71 78 92 78 61 54 55 70 64 71 102 76 81 54 60 70 67 68 78 79 80 50 57 88 -11 -6 1 17 70 -0 -18 25 29 4 -21 16 6 36 41 51 61 59 47 87 110 69 51 32 24 7 2
120 125 76 103 123 127 126 88 90 129 111 82 35 50 82 62 53 59 63 66 69 85 75 83 82 88 94 91 6 -8 -51 -173 -143 -114 -91 -65 -25 7 12 28 30 58 60 50 33 66 97 96 68 60 54 37 12 4
137 100 147 171 141 137 123 120 155 165 112 78 25 69 70 64 65 63 63 87 106 109 94 84 114 163 138 149 102 1 -45 -97 -110 -106 -75 -48 -52 -41 2 14 21 19 21 39 28 29 49 61 60 45 33 34 19 13
105 116 123 140 132 148 158 180 199 175 117 83 14 68 68 55 70 78 88 98 118 122 92 91 107 142 143 116 129 69 -29 -53 -73 -65 -37 -14 -5 -3 1 10 30 68 80 51 31 37 50 51 42 36 29 28 15 17
131 115 151 162 153 187 219 221 228 202 124 81 66 74 61 57 86 99 91 100 150 119 124 156 213 233 219 184 152 96 -2 -38 -32 -19 -7 15 14 20 27 36 54 56 47 38 36 33 49 53 47 29 23 19 21 24
229 188 206 182 194 210 238 264 279 186 172 110 81 115 95 118 126 148 148 187 174 184 174 198 227 232 181 143 128 91 27 5 -18 -8 5 4 32 24 39 56 65 83 85 75 59 43 34 42 35 32 29 26 25 28
204 178 215 174 253 251 308 321 309 273 196 135 172 222 178 173 187 163 155 179 223 225 316 234 210 173 135 119 97 62 13 -17 -18 -7 -27 -17 11 38 54 68 96 103 103 96 88 80 65 53 49 42 38 32 37 41
205 207 237 274 306 303 262 262 268 225 205 177 213 195 163 167 133 161 164 166 193 271 233 215 175 177 136 96 56 3 -25 -40 -34 -26 -30 -19 3 21 47 61 91 108 98 84 104 93 83 64 57 51 40 41 48 52
236 307 308 294 306 304 333 256 260 253 262 259 223 200 198 162 180 234 233 226 199 175 250 210 187 151 125 97 32 1 -16 -18 -19 -18 -32 -42 10 49 33 45 69 107 112 106 88 106 102 93 72 70 61 62 58 52
229 193 240 270 283 286 291 307 300 273 241 226 222 176 152 174 201 207 199 144 133 125 95 86 120 194 202 125 60 13 -26 4 -2 14 -27 3 -4 46 40 33 59 88 95 105 100 109 111 115 98 93 82 74 54 45
251 190 219 264 308 264 178 191 166 156 182 191 133 142 176 160 170 129 128 82 57 53 99 134 153 101 87 82 29 -18 -40 -5 72 72 4 28 33 30 62 73 100 93 93 113 123 92 87 95 95 84 80 54 31 52
277 286 220 146 147 173 164 163 163 174 173 159 127 146 146 136 112 106 78 77 44 13 53 86 94 63 33 13 12 3 -9 58 119 104 73 43 21 68 58 67 105 135 82 95 115 122 105 93 93 92 84 84 68 63
244 230 219 198 201 186 165 152 148 99 89 126 176 156 117 129 145 107 94 104 56 -22 25 49 52 48 48 53 16 -15 -32 -20 13 63 52 5 -28 -12 86 97 71 54 85 104 107 118 113 111 108 97 88 75 64 69
250 256 280 223 220 164 145 162 143 151 192 208 194 186 181 190 177 143 124 116 121 108 -22 -19 8 57 45 49 13 1 -1 21 -9 -19 2 -10 -16 5 75 91 86 108 136 122 74 86 101 117 111 104 87 87 72 77
259 244 259 195 208 181 215 191 171 166 163 201 197 180 158 164 177 174 113 104 14 29 41 29 33 4 -8 -31 -26 -5 2 44 64 14 24 28 27 37 57 67 87 116 144 151 157 176 118 166 156 168 137 119 103 90
204 203 181 174 154 131 138 168 173 170 191 183 202 169 110 103 38 120 109 117 127 106 36 5 -9 -13 -25 -27 -32 -1 12 13 31 12 7 -3 -1 29 55 72 88 107 128 143 148 152 170 168 149 130 113 96 84 82
186 170 156 113 96 111 137 139 155 168 185 222 209 223 217 207 -12 -28 21 132 170 162 18 -10 -1 -9 -47 -14 -0 -3 -3 -19 -1 9 1 5 15 53 78 88 98 116 125 133 135 134 131 125 122 113 105 91 95 100
161 149 140 120 123 128 146 154 149 144 179 190 197 189 198 213 148 91 123 124 123 97 56 -14 -19 -11 -45 -61 -50 -28 -7 29 39 45 49 44 31 35 52 69 83 99 106 111 116 123 114 113 114 116 114 102 98 104

GFSWCAN_con_3kmhel_045.txt.gz
Helicity
130 91 62 31 39 31 16 17 26 31 32 32 29 32 40 30 -5 48 48 31 63 71 46 32 8 -9 81 92 106 113 71 85 95 73 47 39 33 38 37 30 28 41 41 37 53 47 26 22 48 35 15 12 14 21
82 74 48 30 26 13 1 1 -3 21 22 26 39 51 45 34 11 44 52 37 22 45 39 11 2 14 17 67 93 113 70 72 87 83 93 64 62 64 51 49 53 43 58 32 53 28 11 15 16 9 6 13 30 31
60 65 43 34 17 -4 -2 -10 1 26 30 31 51 65 49 41 25 44 61 42 8 20 7 7 3 -9 24 52 77 84 96 88 88 80 70 62 42 44 39 29 37 37 51 76 65 20 11 22 29 31 54 7 12 30
76 68 44 46 4 -5 -6 -15 1 23 38 40 61 68 69 41 23 36 41 43 17 -3 12 11 6 2 -6 20 42 88 72 91 74 71 74 74 54 61 43 36 21 30 44 49 29 15 13 32 26 52 37 45 48 37
73 59 62 30 9 -8 -14 -13 3 15 40 54 57 78 61 64 49 44 28 17 14 14 -16 -12 -24 13 30 14 -1 48 92 96 82 80 74 39 44 56 58 34 69 34 56 31 -7 42 3 18 64 91 61 78 56 67
72 78 60 17 2 -16 -17 -7 3 17 29 42 58 59 59 63 52 13 18 9 -13 -1 12 11 9 22 25 26 -24 -64 8 69 107 100 67 66 58 49 18 43 -28 -9 26 49 4 10 22 -22 74 80 75 68 71 75
87 57 31 8 -3 -11 -10 -1 10 15 22 25 24 41 55 55 23 10 19 22 7 5 19 14 30 21 25 16 -24 -15 4 7 7 3 17 47 49 65 51 51 6 -0 -19 -14 8 -0 -18 42 -6 117 103 82 108 120
81 50 34 30 9 -0 -0 13 17 13 17 7 39 57 76 67 39 13 31 32 32 33 28 41 38 26 17 22 13 10 13 32 26 26 14 20 25 38 20 16 39 36 9 -21 -1 26 56 40 67 97 105 148 155 129
90 70 59 29 20 20 23 19 20 19 30 33 48 43 10 7 2 13 25 31 51 51 45 75 76 45 44 28 5 20 22 22 24 22 19 23 34 22 49 74 43 20 20 17 11 36 -25 -7 1 137 91 192 144 119
84 100 60 39 35 14 20 17 21 28 41 45 -4 -1 5 13 23 6 13 35 38 53 58 91 101 94 76 52 18 5 20 21 34 39 19 36 36 11 -7 -13 -18 9 27 52 27 53 41 74 99 118 40 104 111 90
129 82 51 51 19 21 26 20 35 57 32 5 32 37 2 11 24 16 26 31 31 27 62 89 124 117 93 105 53 22 17 26 37 37 17 38 49 35 43 -3 -6 12 -9 26 20 4 27 -8 4 87 52 76 80 66
94 62 56 39 22 35 22 25 48 21 13 9 39 40 22 48 41 63 36 32 56 47 44 58 80 133 103 104 75 44 21 15 27 45 24 74 88 46 35 11 -6 -2 -8 14 24 11 3 -16 54 76 82 86 77 62
85 58 50 24 34 28 31 17 -9 34 51 21 46 58 49 47 90 101 62 45 69 54 44 53 45 58 65 89 78 67 32 30 59 25 89 38 24 22 13 -19 -30 -43 -21 -19 24 36 66 31 55 91 117 131 139 112
79 69 50 42 46 40 41 31 46 17 -2 65 37 57 70 76 104 113 64 59 51 69 75 82 55 54 70 67 53 58 48 44 78 47 12 -33 -48 -44 -40 -55 -69 -53 -37 -11 -9 24 48 55 80 117 134 132 95 62
91 95 79 69 55 44 35 16 9 7 33 29 35 45 70 52 64 64 58 59 54 71 83 83 70 74 66 69 81 58 86 89 100 55 17 57 26 -44 -69 -58 -61 -68 -52 -43 -10 -0 10 72 75 82 87 101 69 38
149 162 150 67 71 55 53 48 58 55 38 36 41 50 27 55 59 90 103 96 86 94 90 81 78 81 73 100 101 90 153 152 117 69 57 57 63 53 -51 -45 -51 -47 -41 -23 -8 34 37 24 54 133 133 90 54 48
199 227 83 90 92 90 101 97 90 87 70 82 66 48 31 49 62 98 118 123 123 138 131 128 132 85 133 118 118 98 97 105 89 20 15 16 58 76 53 -32 -34 -45 -38 -22 -3 -1 14 47 66 68 97 150 100 62
238 155 141 135 121 141 162 129 118 118 136 117 103 30 1 32 79 87 87 110 138 148 159 154 172 223 197 188 153 113 119 68 5 -11 34 71 73 78 71 4 -16 -32 -28 -26 -7 -15 -8 -0 19 73 79 110 129 101
169 168 116 124 136 171 157 156 149 145 139 128 99 61 51 62 62 107 122 110 116 142 195 201 185 215 152 140 124 109 109 89 85 66 89 91 88 79 74 46 7 -26 -16 -11 -11 18 -2 -6 2 28 70 66 88 107
166 136 162 169 178 208 180 172 162 175 162 137 123 98 112 129 104 100 135 149 161 187 226 229 243 221 245 217 204 163 135 138 141 108 88 87 106 74 59 32 10 -17 -10 -11 -12 -9 34 14 -7 10 67 78 77 66
288 217 226 200 264 236 190 166 195 164 153 160 130 131 133 153 152 149 139 170 226 222 213 187 217 210 201 182 176 162 143 165 145 136 128 116 108 75 50 38 8 -12 -11 5 4 12 9 39 40 26 27 52 66 55
322 237 261 262 228 201 211 230 185 177 171 169 169 180 194 174 165 164 147 212 202 184 226 215 246 233 177 159 129 127 116 108 96 124 110 94 123 88 67 32 15 21 18 35 37 31 27 41 51 50 51 43 36 35
269 232 227 219 200 207 189 191 219 176 166 171 172 159 146 148 126 133 149 151 152 168 211 208 187 161 118 74 81 73 90 103 146 157 155 124 92 50 43 31 9 -3 25 42 29 29 41 41 46 56 65 69 74 61
234 231 203 181 212 221 215 207 172 170 194 183 143 126 133 132 146 194 201 184 159 178 195 142 109 72 66 85 88 107 158 197 198 158 156 100 14 -20 -36 -22 -8 2 -2 22 37 42 39 48 40 69 107 110 92 78
200 192 182 232 227 246 199 187 178 177 159 155 153 139 152 164 183 200 166 228 198 115 60 70 38 25 71 70 78 113 144 130 81 2 -6 127 -8 -43 -41 -38 -25 -9 -8 10 34 42 47 67 58 66 90 101 88 72
224 181 201 190 211 164 128 139 123 115 138 139 124 143 161 187 209 103 143 107 57 53 78 85 110 112 95 110 85 69 67 93 121 -5 -11 54 47 -22 -38 -36 -1 43 56 98 43 25 47 60 71 67 73 63 48 75
242 240 247 212 191 187 199 202 178 158 144 130 165 178 208 225 120 70 42 49 73 73 95 155 199 170 167 156 175 181 162 160 157 -29 5 22 10 -30 -51 1 17 41 47 40 31 19 21 46 58 72 77 88 77 84
226 206 211 182 234 211 186 178 165 131 147 158 217 210 200 148 126 70 73 117 113 105 131 155 213 223 174 162 155 48 -8 94 62 1 -20 -25 -2 -58 -45 32 8 -14 12 12 16 25 34 29 45 54 60 64 82 86
235 215 192 190 198 165 163 177 158 143 151 191 231 201 144 121 137 168 135 117 134 181 162 136 96 150 134 147 147 138 138 99 42 -39 -55 -38 -26 -36 40 30 2 2 10 25 35 24 45 62 63 63 56 67 71 95
120 140 174 168 185 176 143 149 141 110 127 152 148 129 94 135 139 139 153 192 208 197 174 131 122 165 126 122 98 38 88 134 140 11 -61 -47 -35 7 -17 -15 -8 -1 3 32 47 65 92 130 135 146 120 132 138 139
149 200 214 209 169 152 164 136 127 118 133 133 155 119 94 64 69 126 217 188 159 144 136 123 120 163 166 86 27 1 15 54 81 62 -29 -32 -18 5 4 -2 -3 14 35 63 92 108 124 135 126 113 111 111 112 114
174 155 168 151 126 110 127 144 157 147 130 83 60 115 133 152 120 106 137 166 165 158 136 155 176 107 86 48 10 21 -8 35 1 -66 -64 -52 -36 -25 -4 8 20 34 47 64 78 89 104 108 111 109 104 102 104 98
122 135 124 106 115 99 125 133 113 62 52 51 80 142 171 170 152 136 132 157 180 186 173 150 135 113 70 34 16 -5 -4 17 -23 -51 -47 -40 -34 -24 30 47 69 74 79 84 94 99 108 110 110 110 108 105 103 101

GFSWCAN_con_3kmhel_048.txt.gz
Helicity
348 201 168 107 91 56 34 43 34 22 9 3 19 33 30 18 35 50 31 30 49 62 44 13 -4 -9 -14 16 21 89 53 69 87 86 66 48 41 41 38 28 22 28 35 29 38 38 29 -0 13 29 16 30 5 9
288 202 183 94 78 41 15 23 15 9 -16 -7 9 11 6 -5 22 41 12 10 9 28 31 1 -8 -8 -12 3 18 76 58 68 70 79 83 66 65 53 43 49 52 41 44 39 33 26 16 7 2 3 15 18 21 1
289 209 86 86 71 12 13 6 -3 -15 -17 -22 -11 -3 -4 -11 -0 25 13 -12 -17 19 -0 13 21 -2 -4 24 61 80 78 64 72 79 71 65 61 48 39 31 42 47 31 50 56 58 42 37 2 -22 -11 13 33 7
366 223 77 85 39 12 7 -5 -10 -10 -25 -39 -34 -7 -5 -2 3 6 12 -8 -32 -47 -11 4 18 13 6 -10 35 54 86 81 85 88 96 85 65 64 46 37 31 25 27 23 4 2 -29 62 21 15 78 69 70 11
412 278 41 80 43 18 5 -2 -13 -14 -27 -46 -41 -27 -1 37 61 29 -10 8 9 3 -19 5 20 26 17 8 10 17 64 86 99 104 104 97 83 75 45 33 27 36 23 9 -0 -31 -28 -25 10 33 -18 21 85 68
362 100 41 99 49 23 22 4 -21 -12 -26 -57 -52 -39 16 70 39 -17 4 18 21 20 39 35 34 41 38 27 7 -0 -2 45 87 103 109 81 52 45 47 34 51 25 -2 -34 -2 9 -4 8 -0 42 18 1 72 69
460 45 96 81 53 34 27 7 4 10 -21 -37 -61 -44 -1 -1 -35 -18 8 21 18 26 26 36 30 33 36 29 22 15 13 -9 -2 6 20 22 27 51 54 64 23 22 12 28 39 16 -8 -9 18 19 57 28 70 77
237 92 102 90 62 29 7 15 19 -1 -14 -25 -23 -3 9 15 3 -11 1 13 18 25 18 47 58 56 31 18 17 21 24 24 26 19 16 13 25 52 66 60 100 48 36 33 54 43 -3 3 30 -0 -1 129 105 86
130 129 121 108 45 30 21 40 20 8 -4 17 20 1 -26 -35 -24 -3 6 8 10 19 19 46 56 62 81 61 31 23 29 27 17 28 38 30 54 71 11 41 61 22 -11 23 32 26 36 10 30 30 -6 -4 124 65
106 122 138 79 45 33 47 37 33 15 25 37 23 -11 2 -6 -4 -4 -8 5 4 1 1 41 48 23 73 76 77 40 30 19 25 52 28 40 100 43 40 21 -7 -22 -37 -22 -18 18 44 34 57 57 29 69 47 6
150 145 102 56 50 72 57 45 31 46 52 42 14 16 22 14 36 32 25 30 19 24 25 40 67 39 52 41 45 63 37 36 18 35 4 28 43 49 4 7 -5 -18 -39 -53 -25 -16 15 46 45 47 46 77 48 31
165 127 78 56 81 65 59 40 66 46 45 28 41 59 49 56 53 57 48 29 40 45 36 53 46 50 30 30 21 55 50 41 53 32 20 66 9 14 11 17 12 -16 -24 -27 -47 -21 -0 34 39 37 54 -18 25 61
150 96 68 79 74 65 35 59 49 58 103 83 60 65 52 49 96 95 98 60 51 41 42 49 52 51 47 44 37 37 55 49 100 72 67 43 13 -1 -26 -11 15 4 -13 -21 -26 -36 -27 9 41 52 33 63 102 90
122 97 93 83 59 59 61 62 22 95 90 64 57 87 82 77 68 80 69 55 46 58 53 57 61 72 80 79 64 53 75 93 82 91 81 55 23 5 -1 -3 -7 -8 -11 -23 -21 -20 -36 -22 15 34 65 78 110 115
124 114 109 63 117 79 59 32 82 60 23 51 51 84 83 22 37 51 71 80 65 85 82 79 72 86 108 120 104 98 91 108 114 146 155 87 80 58 19 20 33 50 31 -14 -36 -13 -6 -36 -7 17 67 99 128 147
160 150 118 119 98 77 81 121 81 24 44 45 36 59 15 24 26 44 65 77 73 94 93 83 87 91 111 123 144 133 169 139 154 167 151 125 76 39 50 40 51 55 22 -4 -13 -34 -13 -14 -30 -8 13 74 99 114
158 265 75 100 74 80 132 117 84 83 78 75 68 48 36 37 24 43 75 75 103 110 87 97 96 74 140 142 152 131 131 94 95 100 89 66 43 54 56 35 24 21 15 8 -6 -16 -38 -28 -1 1 12 22 70 129
222 172 138 140 148 165 173 138 97 100 116 93 97 49 50 47 41 48 69 115 141 128 134 115 144 183 152 174 142 99 77 102 82 74 93 100 93 66 64 81 87 76 65 24 21 22 -5 -35 -18 10 -0 21 41 92
206 195 118 131 207 215 178 123 100 115 109 109 129 116 99 73 38 58 95 135 147 146 167 149 136 130 130 127 125 150 163 159 155 144 135 106 86 88 113 115 91 71 31 16 4 6 9 -10 -6 15 20 4 39 71
200 184 204 205 205 210 135 118 141 119 106 122 143 136 130 114 106 108 141 170 206 221 188 188 173 154 176 202 229 217 203 186 180 176 132 113 89 121 124 114 108 76 34 30 15 -17 -2 -0 9 10 23 14 19 48
271 245 221 214 247 195 144 124 155 137 129 141 128 142 144 152 153 169 195 227 252 223 211 165 172 200 233 217 196 185 162 189 197 199 158 116 111 140 111 88 140 80 28 11 -9 1 2 12 18 18 7 29 20 18
316 226 287 294 229 178 163 179 123 149 147 127 141 162 176 158 162 195 207 217 217 194 208 179 212 230 194 167 160 150 133 125 128 136 94 129 140 119 91 59 9 -29 37 19 -20 -21 -9 17 10 9 2 28 33 30
413 361 336 258 203 223 216 215 187 164 131 107 145 166 161 157 154 188 172 142 162 163 185 199 196 165 160 120 68 19 18 24 35 66 113 143 146 119 68 30 28 22 -27 -24 -43 -30 -23 -22 4 2 19 27 51 45
338 295 244 199 196 203 181 206 185 163 147 182 180 161 156 169 203 219 158 148 181 182 184 157 142 121 75 52 66 86 83 113 101 76 99 99 40 -49 13 -6 71 2 -20 -75 -40 -18 -17 -12 -13 22 30 47 66 75
264 269 192 257 180 184 169 184 179 170 187 184 177 165 180 203 202 168 117 104 107 101 101 81 95 98 108 114 116 117 110 143 138 92 66 120 74 -27 -39 -13 -23 40 39 -96 -47 -9 -0 6 2 21 39 51 71 80
288 233 243 221 202 195 150 155 143 175 173 159 137 193 202 211 210 135 101 98 72 67 78 70 90 138 159 195 191 151 103 90 119 112 16 77 110 113 -46 -29 -17 11 53 3 -44 -25 -25 -13 8 4 34 52 55 70
263 249 242 216 193 179 203 223 197 164 129 131 189 202 202 217 156 72 53 49 41 49 72 83 130 170 189 174 187 179 119 129 169 141 88 113 74 129 -23 -2 -7 3 69 10 -23 -32 -16 -29 -11 1 15 54 74 78
233 177 181 170 203 202 180 162 124 89 168 209 249 200 206 215 118 85 44 53 81 94 116 128 160 208 208 201 172 139 127 139 112 88 -20 122 107 27 14 -23 -53 -35 2 15 -21 -22 -1 -5 -6 19 14 13 39 54
203 166 187 206 209 181 160 177 154 155 180 200 205 212 199 188 133 104 93 87 98 131 118 103 115 128 145 141 154 182 184 159 100 -2 -19 -16 -1 -28 20 -19 -60 -60 -27 -19 -14 -4 -4 22 63 63 47 58 59 70
147 160 200 195 187 148 133 126 125 136 155 178 191 213 192 162 125 132 123 129 177 156 143 147 133 162 152 157 147 142 142 135 117 79 -11 -16 -14 -13 -68 -64 -45 -28 -12 -4 -5 3 40 76 132 157 121 114 99 95
166 181 190 167 128 131 140 147 147 154 188 191 204 173 134 56 39 66 151 146 137 150 125 94 112 173 197 179 190 172 124 82 24 3 54 93 -64 -71 -47 -38 -11 6 2 -5 4 14 33 73 96 106 102 93 97 96
142 139 149 135 120 109 125 148 147 143 136 128 109 139 105 83 47 22 85 132 137 120 123 157 175 159 149 146 125 113 82 115 71 20 -0 45 -42 -80 -61 -31 -18 -1 14 29 39 54 72 84 92 99 96 96 94 92
148 140 135 135 142 143 134 137 143 107 88 76 75 103 120 120 86 69 56 75 89 99 106 119 138 142 125 110 90 72 82 84 59 25 -4 -39 -75 -67 -54 -37 -17 20 42 56 70 81 96 100 101 104 103 98 93 90

GFSWCAN_con_3kmhel_051.txt.gz
Helicity
401 458 303 223 200 87 106 75 39 41 54 47 41 15 -15 -0 25 -10 14 9 31 49 52 9 11 5 -9 -28 -18 -22 -10 56 76 76 60 52 46 41 44 32 27 28 36 31 43 43 62 56 29 55 27 4 -1 8
487 390 341 300 161 145 86 74 27 38 46 28 17 -15 -29 -21 -3 -25 -17 5 19 33 31 6 13 5 -7 -15 -8 -9 3 65 81 75 73 58 57 50 44 50 46 63 55 54 38 35 47 16 26 61 17 -31 -10 -0
470 369 247 282 218 105 80 49 26 42 22 1 -10 -17 -31 -32 -37 -53 -62 -43 20 22 7 -1 15 4 4 -10 -19 -22 -3 50 67 54 68 74 63 49 54 42 41 58 73 65 64 77 15 -36 36 20 -28 -30 10 16
473 307 308 194 101 96 89 28 26 27 -7 -27 -28 -22 -31 -46 -50 -72 -47 -68 -41 -27 -14 -10 30 24 26 6 2 19 37 55 67 81 89 94 83 66 49 48 47 32 51 56 18 25 -58 28 21 -1 14 13 -31 19
393 295 309 246 170 85 63 27 23 2 -29 -42 -53 -39 -18 -7 3 -1 -21 -41 -13 -6 -24 -15 5 30 41 29 35 29 43 46 71 98 117 103 83 79 65 62 70 68 41 -5 13 22 6 82 71 74 12 -6 26 11
355 342 249 170 113 103 46 38 17 -10 -37 -77 -75 -65 -34 -12 -83 -74 -36 -33 -0 14 31 35 15 25 26 10 25 20 21 25 41 67 91 113 92 115 124 87 32 10 -25 -16 26 10 4 -4 -5 -19 17 15 20 34
322 295 330 317 115 112 64 25 19 -18 -36 -75 -101 -67 -62 -105 -125 -85 -54 -42 -7 4 9 15 37 44 39 21 18 9 20 31 31 25 32 40 58 66 53 45 64 61 31 11 -2 -1 19 22 10 10 -6 11 16 15
322 362 335 314 142 101 65 35 31 9 -21 -79 -44 -37 -36 -11 -19 -56 -62 -76 -40 -18 -7 17 11 40 60 52 42 -1 12 14 15 33 30 16 13 23 33 52 54 46 40 5 13 14 -2 -10 -14 9 4 -7 17 23
391 324 337 201 153 104 69 66 52 41 -14 -10 14 34 -0 -6 -15 -38 -45 -27 -20 1 -8 -3 -10 9 47 51 51 40 19 23 14 15 24 14 40 59 38 49 42 32 3 1 -16 -30 -26 -3 -21 13 9 -4 1 18
462 272 313 183 169 118 90 91 81 45 44 51 33 51 44 7 -5 -16 -11 -0 -2 -5 -4 5 4 -0 27 16 11 58 43 55 64 35 -17 23 33 31 44 37 24 14 -2 -16 4 6 -2 28 -2 31 23 12 10 36
581 356 150 203 143 130 100 95 71 51 66 14 69 75 44 60 32 29 33 39 22 32 17 18 23 19 24 27 18 30 31 50 72 56 65 67 59 53 41 31 22 22 10 -3 15 3 -25 -62 -50 -30 8 13 24 41
560 290 192 181 149 119 95 86 90 26 42 46 55 67 70 58 48 63 49 35 50 52 24 36 30 36 40 44 36 38 45 52 52 104 91 120 75 29 36 47 38 35 23 9 8 3 -3 -19 -39 -48 -31 10 23 20
540 242 214 171 151 111 84 69 16 54 67 104 107 78 62 54 110 93 86 70 79 36 33 39 43 47 56 59 60 61 73 102 126 103 94 86 120 66 73 66 70 51 52 63 47 27 10 -4 -11 -28 -42 1 24 37
204 213 202 175 125 95 70 99 49 52 117 88 64 84 70 48 79 102 83 68 52 76 81 72 63 74 81 91 86 86 109 144 156 156 105 197 202 132 68 38 37 71 67 48 27 29 39 49 20 -3 -31 -12 -18 26
208 197 193 149 114 81 94 44 16 110 116 67 55 85 88 87 80 51 50 65 78 80 85 84 71 85 89 101 98 106 117 143 126 142 166 191 137 98 90 73 52 52 78 69 33 34 44 57 53 15 -18 -1 -22 -12
209 252 208 128 90 91 81 55 72 170 96 85 69 84 54 62 33 4 19 50 38 72 76 75 86 97 88 94 106 115 184 175 152 139 129 102 91 87 78 71 74 63 55 57 58 43 42 50 47 55 25 -16 3 -25
329 428 117 100 121 73 64 135 175 124 71 85 90 73 53 52 8 -0 17 22 66 78 58 78 93 73 106 107 110 93 139 148 129 149 123 117 116 89 93 97 87 97 101 96 91 76 70 63 41 29 26 -3 11 -14
296 171 131 137 151 128 233 206 151 103 94 116 130 60 72 60 47 26 14 60 83 84 108 88 142 149 126 163 141 116 110 124 166 179 156 126 116 116 124 130 124 114 100 93 76 77 66 21 -7 -0 20 -2 14 -2
212 134 77 47 185 347 247 181 171 112 128 139 149 141 115 96 76 64 60 83 109 141 185 158 144 142 148 146 126 138 113 120 135 156 165 151 142 116 113 134 132 107 77 82 99 105 99 44 -10 -32 1 2 12 20
160 119 108 260 318 298 249 182 158 121 117 108 132 141 126 112 111 111 130 131 152 182 195 193 187 176 160 134 169 174 161 164 178 164 148 142 110 111 114 126 109 89 58 63 51 52 36 -7 -14 -45 -30 -15 3 7
211 195 268 315 306 258 157 163 173 124 123 125 153 153 126 149 147 147 158 198 232 236 238 204 187 150 181 181 163 167 147 167 180 189 154 115 110 117 87 106 115 98 99 58 53 -14 2 -22 -41 -47 -48 -19 -10 18
226 227 311 314 259 206 173 216 159 158 146 115 143 145 153 153 144 182 195 246 238 189 236 202 172 172 158 135 135 133 98 74 70 73 41 69 118 116 121 116 113 94 98 113 103 -39 -25 -26 -55 -47 -42 -35 -35 9
290 298 319 290 206 206 173 218 211 203 156 141 159 181 160 155 156 169 158 156 136 148 148 131 134 148 130 96 65 42 67 87 91 99 114 145 163 158 177 174 182 131 15 3 50 -56 -47 -52 -54 -37 -28 -42 -31 1
333 344 263 239 190 196 186 247 213 181 168 196 187 185 160 149 169 196 183 163 142 126 118 121 130 113 100 109 105 92 102 134 133 142 129 156 159 134 141 145 135 168 148 -26 -58 -50 -22 -67 -49 -19 -21 -33 -30 7
266 302 195 243 229 250 296 244 221 214 203 192 205 176 160 171 204 196 171 109 125 107 117 123 137 128 115 115 118 106 116 190 170 124 145 177 163 143 113 113 67 93 105 -80 -73 -62 -26 -33 -40 -34 -29 -25 -23 16
234 238 238 215 219 236 227 244 227 210 213 204 191 178 189 208 207 160 132 112 101 115 115 124 113 112 103 122 125 118 147 155 184 214 172 151 137 151 90 -21 -13 -3 57 102 17 -28 -12 -28 -27 -15 -32 -25 -6 6
219 213 291 262 210 198 239 243 236 227 200 198 185 191 193 216 156 118 84 84 99 84 90 111 140 124 128 124 149 184 166 177 225 198 160 148 150 147 142 73 -14 -23 5 -42 -16 2 -23 -15 -10 4 -8 -24 -9 -5
256 259 217 239 241 209 199 201 183 180 195 175 205 175 165 179 124 135 79 127 76 66 78 112 156 163 142 131 136 135 135 154 159 158 155 101 73 58 53 98 30 -52 -65 -62 -59 -45 -36 -32 -9 7 -2 -11 -15 2
284 204 212 270 230 185 170 188 147 139 149 142 179 175 163 160 149 124 113 105 106 100 121 96 45 80 102 143 163 177 170 173 174 145 116 81 81 24 15 23 -55 -69 -75 -75 -53 -28 -34 -32 -10 -6 5 31 40 39
191 160 207 208 190 151 141 117 119 130 174 181 171 166 155 140 105 131 122 102 123 135 121 114 114 141 146 133 102 119 144 174 208 213 211 149 95 18 -38 -23 -24 -56 -64 -57 -45 -26 -8 -1 10 56 81 68 54 55
167 184 180 163 142 148 151 162 177 170 158 138 155 160 158 128 104 111 156 121 100 118 116 108 127 137 116 100 103 128 134 127 149 143 152 133 97 -17 -17 -5 -37 -59 -54 -34 -24 -19 -9 5 21 34 49 52 58 64
188 182 180 183 171 174 169 151 135 129 129 137 124 146 132 144 112 59 33 78 105 93 78 95 113 105 97 117 123 134 119 156 139 133 113 99 65 33 -23 -38 -57 -61 -40 -22 -11 5 20 37 53 73 75 73 78 84
174 183 180 162 153 150 146 132 138 109 95 97 93 92 92 95 64 40 66 63 52 64 69 71 79 98 100 75 100 133 139 117 102 86 67 50 21 -36 -44 -43 -46 -34 -14 -5 7 20 44 64 70 84 93 98 100 98

GFSWCAN_con_3kmhel_054.txt.gz
Helicity
705 489 302 397 318 155 147 96 89 119 87 70 55 35 23 27 -29 -33 -21 -39 -31 59 50 12 14 33 16 -6 23 -36 -14 -30 -19 -5 42 56 45 45 39 44 37 25 33 39 43 44 58 177 61 67 61 26 26 26
595 280 346 399 267 163 207 100 104 118 69 66 39 23 9 0 -28 -38 -13 -40 19 21 31 2 13 7 2 -6 -6 -15 -37 -27 -26 -19 50 62 66 54 55 67 47 53 63 61 51 72 64 51 -24 64 61 11 3 1
749 143 349 420 216 210 213 195 121 100 73 56 36 21 11 -19 -59 -68 -38 -65 41 26 10 -13 -1 17 1 -9 -16 4 -30 -36 -25 50 68 64 73 76 75 83 75 69 91 60 47 55 35 29 24 72 17 -9 1 0
554 252 470 345 223 193 194 109 131 86 73 45 35 28 14 -11 -24 -66 -69 -103 -106 -49 -33 -43 10 9 24 10 -6 -4 0 -5 1 38 41 63 92 74 97 104 102 80 81 72 32 33 15 38 57 26 34 32 8 16
516 68 467 280 239 201 153 111 110 91 61 50 33 33 17 -7 -34 -58 -55 -51 -41 -67 -61 -52 -4 12 21 19 17 24 18 4 13 27 27 43 111 100 103 97 115 98 101 74 58 40 15 29 64 60 29 40 30 11
135 260 492 306 208 192 127 134 100 84 55 35 36 26 38 36 -39 -92 -62 -36 -40 -69 -37 -30 -7 6 0 10 5 3 11 21 34 34 36 46 94 98 108 130 101 56 26 16 49 25 0 -3 8 6 21 21 23 17
230 311 336 270 287 160 121 121 95 59 27 10 15 4 -36 -71 -116 -83 -63 -92 -59 -64 -61 -22 -1 23 29 27 23 24 19 14 20 29 31 28 33 26 48 56 35 35 34 7 2 16 -2 -1 10 2 11 -7 5 15
246 529 324 301 334 144 128 109 91 39 0 -14 -23 -38 -78 -95 -82 -46 14 -37 -69 -65 -40 -10 -19 9 24 17 34 35 32 17 14 31 30 27 10 18 29 40 27 25 24 18 15 3 3 -33 -41 -24 -16 -15 9 38
278 448 348 372 212 95 131 107 78 26 -18 -23 -29 -25 -16 -44 -18 -35 -7 9 -16 -36 -6 -14 -5 14 17 8 4 43 35 62 32 63 49 38 40 40 28 16 4 24 27 16 13 -1 -2 7 6 -15 -29 -30 -13 4
402 450 339 323 161 135 118 109 78 33 43 77 95 95 89 10 18 1 1 -1 13 20 22 19 -5 23 15 13 12 21 31 26 50 80 68 81 53 21 31 37 19 0 13 24 31 39 29 -1 -12 -1 2 -12 -33 -16
440 411 360 321 171 150 126 115 102 109 100 155 119 96 27 30 20 26 21 37 37 55 46 36 22 35 22 30 48 41 52 51 46 64 66 83 89 102 70 32 35 35 38 35 46 48 50 54 40 16 3 -13 -13 -14
512 504 383 311 141 142 142 130 131 182 117 47 66 83 47 74 47 55 58 51 63 69 62 44 38 35 45 38 59 63 74 76 94 119 105 97 111 160 82 48 42 42 46 43 33 36 32 25 19 33 25 21 7 -11
543 452 388 210 135 143 139 133 142 112 82 117 144 137 61 61 62 43 58 67 91 86 66 44 62 53 65 72 94 99 113 131 138 138 157 175 214 169 112 94 93 58 39 34 43 50 43 29 21 21 22 34 31 22
508 452 318 162 145 151 119 137 104 103 167 242 232 259 104 73 44 60 73 86 87 67 59 61 89 103 98 119 121 143 135 136 184 221 196 185 165 168 146 110 67 24 18 44 61 73 58 34 13 8 19 21 33 35
574 449 211 149 163 125 146 123 99 99 172 265 200 234 134 47 80 88 93 82 64 42 61 81 99 105 128 148 136 153 151 173 176 164 154 162 154 118 91 37 7 5 28 61 90 102 95 82 67 34 -5 -9 15 25
611 304 184 169 168 148 143 153 153 116 214 230 232 174 102 121 71 53 40 45 16 30 39 59 88 117 135 134 168 160 211 204 206 165 142 132 113 93 78 61 54 77 94 100 91 76 66 61 50 49 25 6 3 7
590 529 149 179 158 136 149 230 223 287 239 277 187 81 53 72 32 21 21 19 3 20 43 56 74 91 152 154 165 153 189 223 165 117 118 107 94 76 93 105 112 116 98 81 68 66 69 56 50 54 35 3 -28 3
668 273 194 170 278 265 290 217 320 203 241 190 135 86 91 93 75 49 31 42 37 36 49 52 108 127 136 177 165 163 177 152 110 84 81 102 113 115 127 103 82 79 74 77 84 86 77 96 46 44 42 23 -8 -14
378 294 174 152 283 365 351 334 271 195 151 114 150 155 156 134 114 82 72 75 64 74 97 85 99 119 152 170 155 143 118 87 72 93 114 102 94 87 95 100 94 92 103 102 82 90 79 70 118 69 26 28 -20 -15
203 209 213 257 282 382 316 243 232 137 100 93 173 195 182 150 128 110 125 108 109 96 93 95 114 158 167 156 139 120 114 111 115 106 93 80 85 72 75 77 83 100 99 92 89 44 60 72 88 92 44 -14 -37 -28
314 251 307 311 371 324 195 255 150 77 117 142 194 196 157 164 151 123 125 137 150 107 120 137 159 155 159 141 134 127 112 120 101 106 108 81 61 86 87 98 99 97 112 109 95 93 81 83 23 49 4 -24 -36 -52
379 310 418 330 323 263 174 223 124 144 153 161 216 193 154 157 151 146 156 188 167 142 187 190 181 163 156 135 123 119 93 89 84 59 34 53 99 109 107 107 102 96 104 114 118 115 -14 30 19 36 -9 -40 -41 -39
398 436 356 297 270 255 213 254 228 228 171 164 209 184 145 160 147 167 145 145 129 113 157 154 130 129 111 90 68 59 89 102 92 90 84 98 132 141 140 125 122 130 119 112 113 127 100 27 3 2 -24 -35 -29 -31
390 307 321 312 236 215 212 221 226 253 212 206 192 168 143 162 155 182 174 179 130 155 157 131 114 97 95 95 86 82 109 136 114 136 143 137 123 127 126 139 146 143 146 113 -4 73 111 54 22 -4 -50 -25 -23 -30
263 327 240 200 232 223 203 249 248 225 211 199 207 182 160 159 182 184 178 142 112 147 137 109 103 111 132 116 77 67 80 111 97 91 109 166 154 135 132 125 132 139 112 121 41 -29 -14 -43 -7 -18 -36 -25 -15 -23
261 236 184 203 240 232 188 199 194 198 191 205 213 204 187 184 185 148 172 107 109 117 109 117 140 163 125 113 114 85 79 92 121 140 115 157 153 152 164 159 104 97 109 106 33 -44 -68 -63 -19 -21 -23 -14 10 -10
186 185 255 300 242 184 194 207 200 197 205 183 156 183 187 192 147 168 122 100 105 101 98 100 148 161 147 120 107 100 85 106 141 138 124 137 144 162 203 209 134 129 93 36 -16 -21 -53 -30 -6 -10 -23 -1 7 -15
181 175 150 220 235 205 170 167 166 163 164 150 172 167 168 167 144 130 126 115 95 137 104 83 96 115 108 103 88 70 69 107 114 114 133 159 165 186 194 172 124 71 62 -8 -33 -38 -47 -35 -17 -10 -12 10 6 6
178 176 216 262 251 204 172 178 169 154 135 116 163 168 150 121 125 121 111 124 147 141 124 109 86 52 47 80 104 145 144 128 126 105 127 164 171 172 190 148 95 62 -5 -46 -37 -38 -41 -36 -27 -13 -6 4 14 17
253 223 246 246 221 193 186 165 140 132 158 171 157 134 124 102 80 105 110 123 140 140 123 98 74 79 82 85 89 102 110 127 159 178 192 180 189 191 140 89 63 35 -6 -51 -60 -50 -17 -9 -2 14 12 21 31 28
244 239 228 232 207 181 149 155 186 181 151 107 121 115 115 99 73 76 122 104 102 106 97 86 97 107 111 109 117 127 122 94 103 116 137 162 146 129 104 74 58 12 10 -36 -68 -66 -44 -24 -1 18 38 50 60 69
245 186 142 148 156 176 179 171 151 139 134 126 107 106 99 117 116 65 52 59 89 118 115 105 98 89 95 120 128 130 105 132 139 141 120 102 83 84 90 71 6 2 -7 -55 -65 -49 -38 -33 -18 13 41 69 84 93
181 188 214 195 187 179 179 165 162 130 111 115 112 105 103 98 67 51 59 72 85 96 97 107 106 111 111 115 116 121 126 113 74 60 68 66 52 50 54 37 9 5 -23 -45 -41 -26 -22 -12 1 27 46 62 71 80

GFSWCAN_con_3kmhel_057.txt.gz
Helicity
-32 -139 224 615 414 306 324 189 119 162 39 62 114 84 66 49 52 57 86 81 33 5 32 -14 7 27 8 13 41 -33 -10 -30 -22 -16 -23 -20 -5 60 63 75 62 45 44 43 51 66 68 108 89 114 108 42 39 23
-71 -65 298 766 107 281 398 150 92 138 53 71 93 80 71 36 26 54 49 45 67 81 14 -2 33 11 -31 -33 11 -6 -22 -25 -30 -10 -14 -18 -9 49 65 58 53 57 73 85 68 91 81 70 47 39 25 22 21 19
-47 -22 363 602 90 189 276 183 102 70 70 110 100 58 41 25 11 -8 42 30 85 92 18 -51 -47 -10 -39 -29 -9 33 -8 -28 -24 -24 -24 -31 -15 10 25 86 81 60 69 56 59 84 48 49 57 47 71 38 21 27
-17 -25 255 385 109 274 252 162 80 85 95 99 83 53 29 22 23 34 16 -28 -4 4 -19 -87 -78 -81 -61 -36 -23 -11 -8 -25 -20 5 -7 -11 -13 33 -12 100 116 121 84 77 45 46 45 44 90 69 37 25 33 41
-37 72 421 62 310 274 259 182 70 89 97 114 86 71 62 68 55 29 -24 -48 -3 -36 -49 -93 -77 -67 -62 -39 -0 33 44 29 29 35 29 14 5 26 93 112 96 89 100 92 101 103 39 33 43 36 20 37 52 28
36 271 488 144 345 282 245 177 66 90 128 131 114 95 110 87 15 -29 -30 -42 -8 53 -28 -37 -106 -84 -44 -12 1 14 11 -2 11 36 35 32 19 49 55 70 94 114 85 58 55 67 41 19 17 26 33 28 29 27
60 273 389 326 312 265 214 75 91 134 153 125 143 150 142 93 34 -3 -42 -80 -17 4 -38 -23 -46 -95 -93 -64 -26 -3 7 8 6 22 28 45 56 48 64 72 91 57 35 19 19 24 28 27 43 39 24 21 12 16
-136 92 291 205 229 292 199 84 119 155 133 132 164 159 139 39 -31 -41 68 33 17 -35 -40 -17 -38 -50 -88 -59 -31 -34 7 19 15 31 38 55 58 51 50 71 57 22 13 28 39 25 19 22 18 17 15 14 16 20
13 234 248 259 228 218 96 101 141 156 132 141 108 119 179 57 -0 -0 29 43 13 -13 -8 -16 -6 -7 -34 -26 -11 4 8 9 39 43 58 66 89 90 63 75 58 48 59 29 10 -14 -10 11 12 22 29 22 20 21
43 117 342 199 257 227 94 142 128 149 115 120 184 144 43 40 69 49 1 -32 -18 -9 10 16 -2 18 -4 14 24 41 38 40 40 49 87 69 49 91 109 109 107 83 54 37 37 62 49 43 37 24 23 32 34 42
338 372 328 251 284 185 106 128 121 98 125 239 185 104 79 84 61 52 32 21 15 35 41 42 33 40 19 48 65 55 82 74 96 102 76 85 91 146 179 173 126 98 88 72 59 51 42 33 31 29 24 17 19 22
126 424 311 303 327 156 129 101 71 212 131 91 59 171 121 64 83 73 75 39 43 48 56 53 46 53 59 58 86 91 118 126 162 130 131 156 147 202 238 217 179 130 101 91 69 57 28 17 9 23 24 32 25 18
355 381 341 349 248 104 96 41 131 76 61 218 272 220 120 114 130 77 50 52 67 53 61 61 76 69 71 90 143 131 151 183 158 173 197 202 191 224 212 195 155 129 109 83 59 23 2 13 52 89 82 54 9 -14
446 383 363 320 117 112 75 96 103 169 218 287 245 223 183 159 175 91 47 58 78 86 90 83 87 89 91 97 113 132 145 153 193 207 202 165 155 126 105 84 66 40 19 16 18 10 26 86 121 113 99 79 54 45
419 426 378 204 114 107 88 141 206 187 248 274 198 256 235 133 135 85 74 101 105 77 83 82 73 69 87 97 96 108 118 127 131 141 144 133 105 97 97 84 67 57 63 74 82 102 109 117 113 111 94 74 61 50
511 426 368 170 124 127 116 220 233 147 179 196 180 196 154 228 177 105 58 91 64 41 33 34 49 57 65 78 111 116 158 165 172 146 130 104 76 77 76 78 80 90 95 100 91 87 92 97 104 88 62 65 56 53
531 568 237 150 169 160 201 230 119 235 205 246 238 170 164 217 151 99 74 53 8 7 32 27 45 47 83 77 101 145 163 172 176 130 86 64 69 77 88 90 101 109 102 90 80 88 103 108 103 97 81 68 84 83
474 440 214 221 296 303 333 216 193 215 258 323 289 241 203 191 108 78 57 36 16 24 26 39 60 70 68 109 153 169 161 168 128 97 83 77 75 76 95 87 86 87 86 88 99 112 119 120 113 109 86 77 77 85
555 497 187 202 337 382 325 207 220 248 260 232 252 227 209 152 149 92 89 68 58 61 74 52 59 63 90 139 171 200 183 148 120 92 91 83 80 85 89 80 82 87 96 111 110 134 137 120 124 120 110 96 102 108
481 259 241 306 309 385 294 283 219 291 374 180 283 298 172 145 140 127 135 103 92 73 57 49 47 79 117 156 182 182 140 119 113 111 121 107 92 86 75 86 95 99 106 114 120 93 97 107 116 115 118 98 83 79
468 352 469 360 350 233 261 274 289 260 185 247 204 195 152 180 159 139 129 125 100 69 55 71 88 125 173 192 179 149 126 124 119 127 131 113 74 77 91 100 104 107 109 109 106 94 79 103 101 111 116 107 119 120
513 351 569 391 318 289 260 287 243 264 242 187 194 175 120 123 130 123 116 120 88 101 138 144 134 160 176 173 159 134 120 120 111 107 85 65 100 121 137 143 149 135 116 107 113 117 112 107 76 98 110 128 107 45
483 520 455 369 304 289 339 327 332 265 181 205 198 152 132 128 131 134 103 91 89 116 154 157 169 196 165 148 123 110 128 131 115 108 87 93 112 138 152 143 128 150 156 133 104 110 123 74 59 76 97 125 -70 -42
496 447 354 333 299 345 312 357 259 225 201 219 166 145 123 144 134 149 124 111 125 154 157 153 177 164 140 130 138 152 150 124 111 77 79 91 101 106 112 140 136 146 171 175 127 99 89 91 5 -9 18 -100 -67 -39
490 499 322 464 293 348 344 273 250 234 191 194 178 161 139 144 148 148 126 117 117 134 129 148 156 135 144 169 168 141 112 122 117 82 89 136 131 103 106 124 146 167 179 176 147 91 90 62 -28 -61 -51 -84 -46 -24
670 375 425 496 391 300 262 247 219 207 194 185 176 173 156 156 142 112 114 108 124 124 123 141 161 164 138 148 174 164 125 110 97 111 92 118 143 134 127 121 140 172 243 223 169 87 72 17 -51 -71 -60 -59 -46 -29
360 326 311 310 300 270 276 270 228 190 170 145 130 142 145 118 86 107 125 115 132 130 126 132 143 146 154 183 190 156 130 129 140 130 107 117 129 142 160 179 192 236 294 212 141 94 63 -17 -44 -57 -42 -44 -51 -28
290 196 261 285 290 275 191 196 170 155 155 135 136 120 84 98 116 109 114 147 123 159 160 146 143 147 148 144 149 123 89 97 107 103 110 119 111 118 153 188 203 196 203 160 103 73 29 -37 -43 -41 -24 -19 -8 -11
258 241 236 331 274 221 186 154 163 142 125 77 113 121 120 108 112 134 151 153 138 145 143 139 133 105 93 98 98 99 103 113 124 113 100 100 92 133 150 158 159 156 134 110 57 30 -34 -44 -51 -41 -23 -26 -24 -10
286 243 282 264 251 216 203 180 163 142 153 151 148 133 120 120 113 122 126 122 121 119 108 96 99 108 110 132 130 125 122 119 132 147 164 154 167 148 125 122 114 97 107 80 51 -9 -16 -26 -29 -20 -2 4 8 10
277 260 297 307 266 224 199 186 162 146 164 142 147 143 130 111 103 106 112 107 103 100 101 118 139 142 135 129 118 107 92 93 145 158 155 148 127 111 96 81 76 80 79 68 37 -11 -37 -42 -47 -38 -27 -12 10 34
355 347 324 304 254 176 145 171 164 150 138 132 139 123 126 133 126 99 98 98 103 108 116 116 117 117 105 87 80 82 92 148 135 116 101 99 99 96 95 88 62 54 74 62 38 -4 -45 -54 -49 -34 -16 -8 7 22
403 370 303 210 169 204 209 167 129 127 146 145 153 144 128 122 110 102 110 93 84 89 100 104 94 85 82 79 109 117 94 104 96 72 64 50 50 55 79 73 9 7 52 33 3 -28 -49 -48 -38 -7 11 9 10 20

GFSWCAN_con_3kmhel_060.txt.gz
Helicity
-10 -0 7 -8 30 95 564 74 121 213 120 45 62 53 42 57 88 103 128 144 109 12 104 73 34 -0 -31 -12 34 -3 9 -15 -15 -4 -12 -4 -18 -23 -14 52 56 53 61 58 68 71 64 71 60 85 93 92 70 46
-7 5 19 19 12 83 370 339 165 195 110 23 10 46 43 34 47 126 177 145 165 76 42 53 64 53 -2 -36 -12 13 -11 -1 -18 7 -10 -14 -4 -20 -14 -32 72 63 81 72 92 75 61 67 59 56 65 30 17 -2
-11 12 23 59 -9 218 548 135 161 176 60 27 33 68 36 23 35 99 134 91 185 147 76 9 12 53 83 35 -31 -9 -12 -13 -8 -2 8 -15 -11 -29 3 18 -24 45 63 82 86 105 68 56 132 137 51 -2 -11 1
-4 19 30 94 84 511 98 164 176 155 144 113 41 78 45 63 79 128 118 138 82 41 -3 -46 -7 -37 40 25 -7 -31 -24 -17 1 22 27 25 4 -14 -1 25 34 62 74 102 91 147 101 147 83 27 6 24 31 29
22 26 24 55 146 212 416 132 177 123 107 21 48 48 50 83 114 188 176 153 138 -49 -33 -71 -95 -54 -41 -26 -26 -2 -15 10 28 35 26 35 17 12 3 32 40 99 111 100 103 101 86 75 58 45 49 51 36 24
25 30 92 52 20 228 118 154 128 92 38 52 46 47 65 72 80 166 107 91 71 52 25 -19 -97 -77 -41 -29 -37 -56 -53 -32 -20 21 18 8 24 40 42 52 84 110 114 105 95 96 81 50 39 45 33 27 26 17
28 59 119 133 199 74 207 184 125 67 84 45 55 87 111 104 121 126 57 17 74 13 -39 -22 -74 -116 -89 -71 -46 -56 -67 -51 -31 1 10 14 26 34 57 93 127 110 91 81 62 38 37 61 40 47 54 47 31 15
53 69 297 465 81 239 206 219 114 107 73 50 103 115 92 66 7 140 255 122 62 -28 -13 -9 -34 -82 -107 -86 -69 -69 -42 -27 -29 6 21 48 53 59 57 99 130 102 86 69 56 43 38 43 50 54 35 27 24 14
88 111 248 396 98 196 199 198 127 129 61 100 125 100 152 160 133 148 123 103 40 -1 -23 -54 -15 -23 -66 -55 -37 -21 -20 11 17 31 52 62 67 58 65 133 133 128 110 113 100 77 53 58 66 50 46 34 17 12
76 83 181 336 227 204 200 142 116 96 83 84 188 182 119 136 147 187 103 35 22 -6 -17 -11 -18 1 -17 -9 -3 19 22 46 62 68 89 97 74 95 150 204 169 139 129 116 143 165 146 129 99 83 67 39 28 14
23 82 92 293 211 235 173 88 103 56 106 219 159 108 172 174 221 106 58 48 13 26 4 14 16 31 3 31 32 26 56 73 96 106 113 108 97 124 195 204 182 162 151 141 121 98 74 56 53 38 26 23 32 41
99 186 235 215 219 219 120 111 97 226 200 166 56 185 226 148 143 73 99 52 39 37 23 39 34 31 36 38 59 51 91 101 129 129 136 147 132 194 187 200 199 183 159 125 89 52 36 17 11 13 5 13 32 46
243 134 254 254 234 132 107 97 65 98 140 194 225 226 148 130 126 120 139 109 51 18 22 42 52 48 51 60 86 75 86 110 112 105 106 104 104 131 153 158 142 108 77 56 42 40 33 26 34 64 74 82 79 73
165 342 291 226 184 48 87 36 103 160 249 219 211 190 146 122 146 120 132 59 64 60 84 78 68 55 61 71 70 91 88 105 88 79 73 94 109 125 125 88 77 66 59 52 44 55 86 103 105 97 96 82 63 50
227 375 283 196 137 62 60 100 91 289 206 215 212 186 146 66 145 141 124 125 94 64 66 69 79 61 69 77 52 71 82 72 77 87 98 117 129 127 111 98 85 79 100 122 123 124 103 87 93 85 89 88 99 96
399 342 255 165 97 98 98 156 210 211 182 199 154 152 165 215 148 90 106 108 33 33 70 66 66 67 60 55 69 59 88 74 76 106 120 152 143 132 111 100 104 112 116 111 104 97 87 87 94 101 94 105 100 101
423 361 197 129 113 125 187 229 274 232 195 187 182 191 208 213 123 40 55 40 25 74 74 43 58 51 51 65 46 55 72 78 120 132 137 146 130 107 111 99 108 113 99 88 86 88 97 103 121 123 113 88 111 124
296 300 209 135 202 281 341 379 326 230 200 250 221 184 218 130 20 133 165 64 44 35 25 33 37 56 50 63 60 68 112 130 138 138 133 121 111 114 116 100 100 90 72 81 95 119 141 131 137 154 145 143 142 124
337 338 175 137 323 434 392 361 295 259 259 260 278 235 183 191 232 204 132 61 52 38 42 29 48 29 26 50 85 113 144 153 152 145 129 116 108 106 104 110 95 82 82 113 123 126 127 134 152 140 130 115 128 126
341 204 140 206 351 413 418 362 226 237 356 263 245 232 201 204 205 175 123 83 63 36 29 23 16 30 56 68 115 135 147 165 176 148 127 126 115 127 127 114 109 112 113 114 133 92 133 127 112 109 114 97 96 120
418 383 330 354 398 343 242 347 274 251 274 317 239 226 223 254 185 110 86 84 47 30 19 20 39 79 131 139 158 180 174 178 154 162 153 153 123 124 105 119 120 118 118 114 111 124 134 157 115 96 96 106 115 136
618 376 495 447 384 267 269 349 227 267 308 279 292 263 221 180 114 82 82 62 27 40 59 64 85 152 172 169 166 163 161 151 128 128 116 129 135 139 140 138 139 138 152 160 151 154 171 159 142 106 80 72 1 127
630 545 526 385 325 290 304 338 375 352 432 343 262 203 162 129 95 115 61 41 46 61 90 113 135 169 191 190 178 157 160 159 139 130 125 134 131 138 147 152 159 155 139 136 158 180 175 120 126 110 73 -30 -60 -88
591 572 446 390 290 398 348 483 444 419 416 235 188 180 150 120 104 89 54 57 72 93 98 108 153 179 175 166 150 147 159 182 153 113 115 124 141 138 129 136 134 150 165 147 160 186 168 163 128 109 46 -84 -75 -80
771 550 379 547 327 405 471 454 464 482 334 206 163 144 105 102 108 85 72 58 68 82 97 121 142 147 158 151 138 131 163 205 178 154 122 124 146 135 120 124 126 122 121 144 168 169 138 145 135 95 33 -70 -61 -49
973 629 559 529 485 504 559 539 466 295 221 195 152 114 107 97 103 72 63 69 81 88 92 101 141 158 136 137 132 132 135 170 192 188 153 110 120 151 160 146 111 82 135 180 157 108 126 129 97 64 -23 -50 -37 -34
609 592 490 416 385 436 516 442 357 247 193 134 102 114 131 123 77 82 88 91 91 85 111 152 159 163 148 140 133 124 132 159 162 157 126 115 127 157 166 151 141 142 165 134 126 132 137 112 72 30 -44 -36 -43 -30
328 421 472 486 495 454 409 328 198 157 143 133 128 113 92 72 68 76 77 96 85 115 159 166 158 146 136 129 115 113 99 120 115 110 113 109 99 127 151 170 174 151 139 140 129 131 120 101 62 -50 -43 -40 -30 -36
383 274 374 467 387 383 349 245 171 154 148 91 134 123 91 78 77 91 105 102 130 157 153 148 128 122 102 82 94 119 136 150 164 153 152 137 117 113 157 140 132 131 120 116 71 66 61 51 1 -42 -44 -53 -45 -46
420 200 291 323 327 291 222 199 179 158 177 160 134 118 116 94 80 96 128 137 120 96 92 99 101 122 120 142 146 139 110 113 118 132 139 151 158 141 109 109 93 79 74 65 62 48 37 27 -12 -46 -48 -54 -54 -52
327 283 318 264 201 232 233 199 174 152 145 136 138 117 107 102 106 123 125 102 101 108 112 109 117 113 122 117 123 131 118 94 141 143 117 119 114 113 115 111 105 91 85 86 58 36 18 -18 -49 -48 -47 -41 -34 -28
383 372 337 342 311 199 198 195 180 158 145 135 144 119 109 131 124 100 86 107 110 102 87 93 107 88 83 90 88 77 62 103 87 74 81 107 125 132 124 114 92 87 79 61 51 47 20 -18 -41 -44 -40 -29 -21 -14
380 357 326 297 267 249 226 201 183 161 154 133 138 120 121 113 89 88 77 69 67 57 60 69 71 66 58 52 53 63 66 54 24 44 87 82 59 66 78 71 51 46 52 42 38 28 -9 -55 -38 -31 -23 -16 -7 3

GFSWCAN_con_3kmhel_063.txt.gz
Helicity
-4 -3 0 -4 41 28 41 72 378 6 97 42 91 82 15 13 61 63 78 115 94 63 230 186 125 2 -17 -49 1 -15 -19 -50 -34 4 -3 -6 -16 -18 -21 -16 -29 -36 -51 -54 22 20 39 57 73 63 53 67 62 38
4 0 2 -3 41 31 28 22 285 313 74 86 85 43 12 29 82 59 102 155 131 93 141 117 135 158 80 -28 -37 -25 -37 -24 -19 -12 -19 -8 -7 -11 8 4 9 -22 13 -7 49 41 58 104 126 109 98 57 30 8
-6 23 2 22 31 40 11 31 94 54 98 103 95 49 8 23 65 62 156 149 187 171 203 153 148 182 161 105 7 -52 -55 -46 -51 -14 10 1 14 7 45 28 11 15 56 97 84 94 126 156 122 91 56 43 29 43
-6 5 0 27 36 17 127 103 5 126 115 64 75 129 17 31 51 93 152 155 117 128 56 109 124 94 150 97 45 -10 -38 -32 -22 -19 -13 6 28 -1 20 30 39 45 44 55 123 156 198 155 101 58 58 46 35 24
5 7 3 37 50 0 188 56 137 92 84 40 102 96 26 42 41 136 179 156 115 48 22 68 107 116 96 58 48 57 -3 -3 -12 -28 -35 -8 -4 6 7 35 45 75 91 111 90 128 119 110 105 89 88 81 50 36
9 -1 29 39 27 58 267 348 70 120 160 50 30 41 42 26 94 138 148 114 102 12 91 20 47 40 44 14 5 3 -20 -38 -53 -55 -53 -46 -26 8 29 33 17 53 78 83 73 62 65 60 69 59 61 53 52 52
-6 -5 42 44 43 90 187 227 83 149 120 116 59 57 47 56 68 79 73 81 63 70 4 63 4 -24 -11 -29 -27 -41 -55 -73 -78 -68 -59 -20 -6 13 29 39 60 67 69 83 78 68 87 71 62 74 81 77 61 46
-16 19 43 51 -5 99 134 112 118 75 49 53 56 51 66 17 -5 134 200 150 78 18 38 0 -18 -77 -57 -75 -79 -62 -79 -71 -60 -31 -12 15 22 37 38 43 114 104 79 72 74 76 75 66 75 84 82 75 73 63
5 32 44 171 200 52 130 153 127 76 61 67 57 57 140 120 147 150 169 166 83 31 -2 -16 -11 -42 -81 -73 -64 -45 -42 -7 -9 23 39 53 60 59 70 85 146 126 124 107 97 94 95 103 94 81 66 48 36 28
32 45 131 311 148 218 234 165 98 47 81 50 146 221 176 137 126 129 167 136 71 61 18 -10 -18 -18 -46 -30 -27 -2 6 30 52 58 64 77 69 90 118 166 174 155 142 134 151 139 123 130 90 71 48 38 33 37
27 80 250 310 139 196 177 121 36 73 112 225 200 162 163 165 140 163 110 69 57 39 23 18 -3 28 -21 -2 17 14 39 55 85 74 78 68 83 89 115 164 167 159 159 157 143 105 70 47 42 53 59 75 84 81
56 103 174 196 139 186 153 50 100 246 196 208 115 155 172 139 129 106 119 85 73 41 29 40 38 20 10 10 38 44 76 85 87 62 69 78 79 88 111 123 139 139 113 92 68 52 56 63 67 71 83 85 86 76
59 103 151 238 237 178 91 66 141 110 191 188 252 177 119 117 133 85 73 76 61 10 28 55 58 31 32 34 60 71 83 87 70 68 74 63 82 103 124 121 123 92 75 78 79 85 84 92 89 95 94 92 100 92
44 159 167 234 196 95 55 120 112 197 293 252 199 116 118 99 108 71 47 38 30 42 104 106 87 41 42 60 61 81 80 72 92 98 80 64 78 102 112 114 110 95 92 92 91 97 96 104 100 87 95 101 98 99
109 71 237 213 142 27 87 120 219 266 306 238 185 141 91 74 107 98 113 110 98 65 93 100 79 57 73 75 60 76 83 89 93 91 87 78 109 126 127 116 113 110 108 110 114 109 92 85 85 75 80 90 100 91
117 309 271 145 67 65 130 241 290 229 247 220 157 144 114 95 97 91 102 132 62 59 85 75 84 84 65 74 78 81 116 76 69 81 90 138 138 137 129 119 124 121 118 109 98 86 72 76 86 85 83 103 110 116
377 289 185 121 143 116 218 358 318 286 218 226 202 140 139 103 78 -14 -28 -1 14 80 81 70 74 66 61 79 75 53 59 54 68 94 122 133 136 135 127 133 138 124 112 98 91 74 84 92 110 120 112 99 114 107
259 252 145 151 238 312 443 345 291 230 194 231 186 173 195 147 51 78 83 39 61 47 44 43 43 63 65 78 46 29 45 63 93 134 136 129 129 128 131 129 127 120 99 89 87 95 99 72 85 110 136 123 105 109
253 253 160 181 353 461 368 355 272 212 232 246 206 233 183 124 89 50 67 45 46 31 39 39 67 58 36 14 33 41 56 95 121 117 118 114 119 123 120 129 130 122 103 108 108 102 108 108 110 115 130 141 152 134
259 212 211 270 337 387 400 358 196 265 285 235 236 245 162 118 154 123 93 64 48 34 47 47 40 10 17 18 41 55 62 118 148 131 104 98 116 125 116 147 159 152 117 116 119 72 115 115 113 122 129 133 124 145
297 262 293 309 412 373 272 359 328 266 261 293 246 223 148 160 128 117 89 70 42 38 20 3 4 24 48 62 78 88 116 138 135 136 120 115 124 128 122 142 161 148 148 133 144 120 102 120 113 125 124 133 147 154
406 329 552 451 418 290 288 354 256 302 348 299 304 325 227 153 118 101 83 61 19 -2 4 18 27 78 91 88 103 117 126 126 125 119 108 114 130 135 141 159 161 144 145 156 154 133 126 132 118 114 126 127 122 123
475 372 500 455 389 346 379 387 380 405 393 342 419 312 228 147 133 161 84 31 15 14 27 55 75 92 109 118 134 131 126 126 108 118 121 122 122 132 155 146 149 142 129 128 152 147 145 93 102 117 123 101 93 58
469 601 510 448 326 321 366 439 365 382 424 471 373 235 165 127 172 100 36 39 30 32 47 69 103 122 112 121 109 95 80 120 121 104 119 144 146 139 133 136 136 139 154 143 128 121 113 122 121 109 94 79 55 -4
581 569 468 538 405 351 445 488 539 503 514 533 327 195 141 112 106 66 44 42 34 33 52 81 89 94 95 103 92 77 99 155 166 141 115 142 148 146 127 129 130 115 114 118 124 130 126 114 115 108 92 78 31 -35
555 462 420 509 556 439 504 500 518 524 520 394 242 128 122 84 67 18 31 50 54 62 62 55 73 85 84 89 110 128 129 127 180 172 143 137 152 170 164 150 133 127 146 131 121 116 115 121 123 99 73 43 -5 -41
331 292 523 491 513 474 529 504 519 495 356 200 143 102 112 90 42 49 70 66 88 56 44 69 95 89 133 138 115 108 107 124 140 143 130 136 150 159 174 185 180 175 159 139 123 117 104 94 93 70 44 28 -52 -68
329 314 449 585 655 664 616 553 458 391 231 102 131 105 107 99 104 82 69 68 62 89 129 123 114 114 128 118 102 100 117 126 124 123 127 157 174 185 223 208 160 118 132 118 112 115 110 103 94 77 39 -32 -35 -45
372 426 479 633 598 567 474 394 317 239 152 116 145 136 129 116 96 100 93 83 88 110 127 143 128 120 119 117 128 135 146 165 177 171 152 142 132 112 119 115 121 122 123 114 74 76 78 66 51 42 2 -56 -50 -42
421 423 482 563 525 413 360 281 221 196 181 161 160 161 155 131 103 90 81 87 91 83 82 92 98 118 122 133 132 141 144 133 128 140 138 138 128 115 109 114 122 122 117 110 107 89 49 63 59 23 -21 -50 -48 -49
398 318 391 378 313 279 246 237 243 217 202 178 161 138 118 93 71 58 75 84 90 94 105 110 110 94 115 112 122 132 113 87 113 104 101 103 92 94 104 115 110 106 110 104 91 76 65 47 42 42 8 -22 -25 -27
361 332 286 321 273 158 186 162 169 179 187 164 163 128 91 82 97 80 83 105 100 102 87 83 95 59 56 81 77 69 70 85 87 85 67 72 74 85 93 79 81 79 66 66 58 54 55 53 52 44 36 -10 -17 -18
369 379 341 331 271 196 160 176 202 210 199 178 141 120 118 114 91 88 82 64 70 73 54 40 57 72 63 57 67 72 83 78 48 23 29 23 27 33 57 68 73 83 69 61 53 55 54 48 36 13 -1 -13 -15 -10

GFSWCAN_con_3kmhel_066.txt.gz
Helicity
2 13 24 24 10 20 52 68 71 132 245 -76 19 79 28 22 4 49 66 88 58 43 205 170 165 119 65 -57 16 -9 -12 -33 -57 -21 -13 -7 -17 -11 -18 -12 -3 -5 -2 -0 -5 2 -11 72 105 111 73 97 77 61
3 27 15 11 25 30 70 71 62 121 271 -14 75 62 37 18 58 110 81 123 117 83 149 187 167 175 141 96 -42 -30 -48 -3 -36 -43 -41 -33 -14 -11 -1 35 -16 10 2 20 37 29 64 65 77 98 92 85 65 62
23 21 41 11 43 35 60 104 38 67 197 91 81 88 48 33 53 90 94 108 148 134 185 174 208 237 181 133 104 -67 -70 -35 -65 -31 -23 -36 -14 -5 30 4 20 2 21 36 51 73 119 132 125 104 85 79 81 74
37 32 27 31 17 37 59 48 59 39 8 80 63 64 36 44 47 61 84 95 97 108 69 151 174 154 203 129 60 37 -47 -20 -43 -38 -43 -49 -38 -25 -8 -4 26 40 62 92 110 126 151 107 108 91 94 91 81 78
18 36 18 38 25 25 56 91 3 -135 79 96 99 34 22 63 57 136 114 94 74 34 74 138 182 178 155 103 77 56 13 -8 -28 -51 -58 -58 -45 -20 -13 -4 17 56 77 114 82 95 128 111 107 102 104 90 88 80
37 31 46 28 20 60 180 -28 55 81 120 140 101 31 53 42 78 132 133 84 59 -7 89 85 122 137 150 124 103 83 40 18 -13 -42 -51 -46 -23 -11 4 19 1 45 69 68 78 139 127 121 113 112 96 78 72 67
47 42 24 15 47 107 144 205 118 112 104 79 57 68 68 65 86 104 95 90 59 51 73 40 71 95 123 99 67 47 39 -7 -30 -55 -61 -46 -36 1 8 37 36 70 85 103 107 134 137 109 101 98 84 83 88 88
48 14 -0 18 66 88 154 218 98 108 71 22 23 32 125 61 -9 93 144 147 87 56 68 10 21 52 49 -35 -68 -8 -56 -41 -30 -38 -38 -9 13 28 39 45 78 99 111 112 111 114 119 117 113 98 104 109 111 93
32 8 5 30 50 30 96 76 162 114 56 39 54 78 184 133 98 114 92 96 55 53 19 30 -7 -15 -29 -29 -40 -34 -29 -11 -15 11 13 26 56 76 80 86 104 99 95 95 105 122 117 115 99 90 89 78 74 66
17 -1 45 40 54 30 98 154 125 65 50 74 172 240 198 165 120 124 118 124 106 77 36 42 67 29 -9 -16 -36 -21 -4 25 36 44 62 81 74 91 109 84 111 107 106 113 137 126 103 99 80 68 59 54 51 60
5 18 36 67 61 7 126 193 97 34 95 253 259 228 163 118 125 166 158 143 101 76 55 46 12 52 7 6 20 15 32 36 56 55 96 78 60 73 86 118 113 112 114 126 129 112 88 76 69 73 76 84 104 112
14 31 35 189 95 286 253 137 68 134 227 236 166 189 163 163 171 131 141 138 114 69 49 61 55 60 47 16 26 24 61 61 69 58 68 57 37 44 73 76 86 104 123 118 102 88 80 81 82 89 98 101 103 101
25 51 264 153 240 185 102 53 31 122 176 215 310 246 199 165 181 148 160 161 96 57 66 70 100 75 48 33 47 63 81 81 73 79 70 47 29 41 58 79 99 116 121 105 94 92 98 102 99 110 91 96 95 109
33 191 211 156 149 89 80 65 76 180 174 245 251 239 224 191 162 138 97 80 76 75 131 135 135 70 50 67 62 96 90 85 91 86 68 40 27 51 77 92 118 123 113 104 95 103 111 115 96 83 90 96 105 104
12 119 144 93 105 90 71 86 151 134 226 203 184 212 158 103 90 125 156 115 124 110 167 155 118 61 77 78 81 91 87 81 70 68 54 33 59 95 93 115 129 119 116 119 124 131 128 105 95 76 78 78 102 106
15 125 164 153 123 117 133 177 164 186 214 207 140 129 91 111 113 141 129 120 117 107 142 121 95 114 104 93 84 76 124 86 65 55 46 90 111 99 110 134 130 130 134 131 134 136 111 99 86 89 71 85 97 103
42 195 142 181 160 158 189 278 261 226 196 191 163 112 57 95 92 90 46 47 42 109 142 107 125 97 96 85 77 71 76 57 44 45 60 88 112 99 120 132 132 145 145 141 147 128 121 108 102 97 76 93 90 102
146 121 204 177 234 340 362 235 217 201 189 213 93 140 137 130 65 57 32 48 77 88 91 95 81 85 77 82 51 43 30 43 52 58 77 95 103 113 131 130 138 149 146 148 144 136 135 111 108 114 116 112 96 101
100 280 172 182 321 492 340 236 239 263 192 140 162 193 206 195 155 118 115 84 106 73 69 66 71 74 52 41 45 30 31 57 76 75 81 94 102 107 114 131 143 153 164 173 154 151 146 128 132 126 126 123 121 125
185 199 177 197 323 425 396 289 162 186 188 160 194 263 255 171 140 102 96 120 80 64 75 69 67 47 52 21 10 37 45 68 101 102 87 95 102 118 129 157 164 186 175 165 161 122 150 144 148 146 138 134 117 117
292 259 319 318 383 333 252 316 264 204 206 197 257 306 235 194 121 88 92 92 76 64 69 53 41 19 19 34 47 64 77 95 88 100 102 117 126 145 155 169 183 175 187 173 175 147 134 159 143 141 128 122 119 129
384 391 517 343 390 322 216 362 235 249 226 254 310 271 174 140 129 117 93 90 74 56 43 32 12 30 48 48 63 79 93 113 117 112 107 108 140 168 165 168 191 179 169 170 163 160 150 159 143 120 108 96 95 106
533 592 557 476 403 322 318 362 289 320 258 325 317 305 264 164 116 133 114 72 65 39 43 59 66 61 65 75 92 98 103 124 113 98 94 118 130 138 145 146 168 182 178 151 153 160 153 108 110 120 109 109 95 94
588 719 602 472 358 315 375 387 295 363 357 414 385 357 342 235 192 160 114 93 62 58 61 72 84 98 87 84 76 82 92 109 105 91 109 155 145 136 144 156 153 156 169 162 172 166 150 142 124 119 101 97 95 89
640 574 460 469 392 303 365 412 425 438 470 495 464 442 338 234 168 123 95 79 70 69 69 82 82 73 75 77 101 99 97 112 115 101 122 145 173 165 154 152 140 135 166 202 169 139 119 120 107 94 83 83 62 26
497 382 340 412 440 340 378 406 383 450 506 551 465 392 342 171 127 69 80 73 73 68 78 74 65 56 56 95 142 133 110 99 134 138 126 161 176 196 181 166 149 135 176 154 149 131 116 105 95 78 75 68 35 10
247 252 457 414 411 374 389 428 541 559 562 379 373 335 273 168 87 66 91 85 123 109 79 75 73 95 108 126 106 87 88 101 121 123 140 148 156 158 179 172 146 138 127 124 128 144 140 137 121 104 90 67 63 27
239 183 402 417 473 472 464 579 501 444 371 312 262 194 82 66 86 81 117 134 131 127 122 87 72 109 129 125 105 102 117 106 110 155 176 185 189 180 155 109 114 103 118 127 133 144 148 145 141 105 71 44 24 -40
202 324 343 570 483 556 483 474 403 341 294 203 162 132 109 103 104 133 133 102 105 101 127 124 125 149 162 147 148 141 126 133 150 153 137 129 129 120 105 105 114 108 115 114 87 87 76 81 97 89 75 61 51 -23
202 358 378 455 457 489 459 434 414 344 286 238 181 165 136 128 127 115 105 91 68 62 87 122 129 120 104 107 104 107 117 113 125 145 138 124 118 105 94 101 102 99 105 96 83 79 60 85 77 76 69 63 52 -14
322 343 389 451 379 375 428 470 407 318 276 229 185 167 196 171 135 113 91 81 96 128 140 139 135 108 120 107 110 115 104 89 119 118 117 106 89 92 103 107 105 95 82 66 60 69 72 71 71 66 61 49 32 31
347 315 258 273 303 288 324 282 257 248 231 184 184 168 165 157 130 82 68 102 117 107 104 113 116 68 53 84 92 92 100 102 103 103 90 85 86 96 107 95 77 69 61 56 57 58 62 62 60 60 64 57 45 2
343 322 300 289 225 189 179 195 189 171 181 158 160 157 155 131 93 62 91 96 120 107 90 69 84 95 86 79 85 91 102 100 85 61 54 51 63 55 71 59 63 65 54 49 49 52 50 45 49 49 45 53 53 29

GFSWCAN_con_3kmhel_069.txt.gz
Helicity
31 33 -2 31 31 43 44 51 48 60 129 112 -58 -2 45 10 12 66 123 131 91 87 233 145 138 120 76 24 -2 -20 -32 -27 -62 -63 -59 -45 -48 -23 -33 -16 -16 3 19 25 20 30 35 41 67 66 27 48 37 42
32 17 25 32 41 48 70 51 54 76 136 -11 -78 7 78 41 -53 -7 79 116 109 106 175 186 177 164 134 85 -19 26 -49 -13 -48 -54 -48 -51 -32 -41 -16 15 -26 26 18 20 36 31 7 20 36 95 80 77 66 70
21 4 26 38 55 59 82 49 59 76 151 -105 -25 31 17 24 -21 -23 46 91 101 128 213 195 216 220 163 137 100 -52 -51 -20 -63 -22 -30 -42 -34 -27 2 -4 2 -4 14 17 23 29 55 77 127 127 117 116 108 109
10 14 20 47 37 59 73 47 66 57 79 57 60 77 56 32 46 72 86 100 85 98 84 164 190 161 212 155 102 86 2 37 1 3 -31 -48 -37 -32 -10 -19 -1 16 26 52 38 41 73 64 109 132 140 124 119 103
7 16 26 44 49 64 53 54 37 25 8 52 33 54 45 65 56 111 94 96 84 55 61 135 163 181 181 149 119 100 62 44 17 -23 -35 -41 -20 -17 -10 -9 6 40 75 115 70 59 95 57 127 131 109 84 80 90
9 13 20 54 73 71 71 173 54 -37 -87 42 39 56 47 43 59 109 102 75 80 28 49 106 111 130 169 160 153 148 103 62 27 -12 -22 -15 1 4 11 25 21 45 75 88 81 120 117 127 135 127 114 107 107 103
11 24 46 54 76 39 131 192 84 131 115 80 80 62 83 98 106 136 79 79 80 48 64 75 101 123 138 137 119 115 101 46 16 -15 -32 -19 -9 21 25 53 32 44 85 113 117 157 141 122 111 107 121 114 110 110
11 34 45 40 51 43 120 125 105 107 84 92 94 99 100 116 69 114 98 134 112 50 80 87 67 109 134 63 20 100 31 34 24 -22 -30 -8 17 47 46 48 87 133 145 142 140 132 130 157 153 125 123 121 112 105
20 38 34 16 52 51 98 68 109 87 82 112 114 140 167 116 93 93 94 105 70 52 96 77 1 19 87 47 22 23 16 -17 -4 5 22 31 53 85 77 77 84 87 113 115 131 140 150 152 135 122 126 117 107 94
19 35 27 18 50 44 88 87 66 58 81 95 176 184 121 93 86 104 137 130 93 85 81 77 84 45 67 48 10 11 5 22 22 37 50 84 74 92 81 79 93 115 124 164 169 151 144 150 139 123 106 89 96 102
18 23 18 31 42 32 95 79 88 112 157 229 238 200 130 132 134 178 141 129 110 103 73 61 49 74 49 41 45 28 30 44 59 48 103 92 63 61 80 106 133 140 140 130 133 146 138 128 120 111 104 106 111 108
19 12 8 40 45 32 90 87 107 166 172 200 128 147 181 160 179 134 141 136 114 103 62 100 85 79 70 41 49 35 58 65 71 71 80 79 54 39 62 96 121 141 153 145 140 142 131 118 119 117 117 122 126 108
8 9 17 57 75 65 42 115 39 86 184 169 247 208 164 142 166 115 130 180 155 74 68 105 95 74 73 55 63 64 84 95 79 99 86 73 43 27 54 87 111 126 141 146 153 155 137 125 137 152 137 139 118 110
7 15 59 87 79 3 54 73 25 109 199 278 264 219 181 137 130 104 120 143 91 86 128 110 140 100 87 93 61 90 95 99 102 93 77 52 9 26 58 85 131 120 136 144 146 143 138 152 155 153 144 127 112 114
21 49 111 169 96 181 87 92 82 156 201 244 204 197 139 80 83 85 96 153 125 117 184 163 164 108 130 101 87 105 96 91 72 67 73 41 38 81 96 106 111 131 143 149 159 157 162 166 178 153 127 118 127 105
79 79 234 102 177 124 186 161 180 177 196 192 167 160 134 97 104 122 162 155 130 135 199 190 141 135 120 107 124 110 137 93 85 64 44 55 76 88 106 107 121 139 157 157 160 171 167 178 177 149 121 123 116 93
139 178 277 91 171 227 166 254 239 247 196 225 226 104 93 109 96 91 135 122 107 164 176 152 174 147 128 152 137 108 92 75 54 45 55 61 76 91 103 116 127 143 158 169 180 179 184 175 173 159 141 126 121 110
236 194 207 207 262 328 390 225 279 301 243 233 187 113 90 126 136 167 159 130 156 142 134 153 114 157 117 102 77 61 36 53 57 56 67 79 97 105 111 112 127 151 168 170 174 177 190 177 179 169 148 126 120 107
222 203 249 241 350 538 388 301 343 320 310 227 102 127 142 214 221 154 139 124 123 107 109 140 124 114 91 68 55 47 45 53 67 69 78 93 99 98 105 122 149 167 168 170 179 183 195 185 181 168 163 163 150 126
116 187 283 271 372 452 412 329 323 356 304 165 152 174 225 229 180 155 116 153 151 149 148 130 87 58 61 40 42 47 43 60 90 101 92 86 93 115 129 152 159 160 161 168 167 158 190 183 171 172 170 152 147 120
237 364 367 445 407 353 306 344 331 301 299 222 178 264 269 254 220 143 155 139 131 114 102 83 70 72 73 59 37 46 60 70 74 91 100 111 110 142 155 150 147 162 180 176 195 170 169 168 158 161 150 141 130 115
356 558 605 568 553 470 311 393 306 302 366 205 257 307 260 242 185 144 117 119 119 102 94 75 49 46 46 45 40 49 72 100 115 120 127 127 145 149 146 158 171 160 163 178 168 159 153 162 166 161 152 135 120 117
514 629 720 647 582 379 359 437 400 404 313 275 298 295 317 249 175 160 130 89 123 104 103 93 62 56 70 61 74 99 89 118 120 121 116 120 122 120 130 146 163 174 167 158 152 145 146 137 141 147 136 114 99 93
572 580 685 525 394 312 402 465 423 378 346 307 284 325 336 260 217 175 125 92 101 113 118 106 99 116 93 90 85 68 71 119 135 114 116 137 116 119 142 148 151 149 155 140 142 126 125 124 103 113 112 108 97 92
378 408 306 398 390 256 399 456 453 387 333 378 386 315 302 252 236 143 126 104 100 103 111 120 113 107 104 96 77 81 87 119 122 120 128 129 138 127 138 143 145 156 149 142 100 88 90 99 103 97 85 81 64 52
424 364 265 268 410 283 311 315 317 344 351 346 362 290 315 322 264 159 122 109 103 95 105 102 120 133 122 98 102 96 97 112 144 141 115 118 134 153 150 154 150 133 132 106 101 103 103 102 97 89 85 63 40 52
273 263 301 354 361 327 334 342 352 350 290 281 339 395 377 251 193 159 130 107 139 171 110 127 118 121 101 79 90 116 150 133 135 114 117 123 142 156 158 157 143 115 96 105 104 114 111 97 91 98 80 82 93 85
219 144 195 299 396 386 324 371 355 336 316 322 374 356 269 157 145 124 84 128 191 202 207 200 189 164 153 134 140 154 160 149 152 151 161 167 159 171 156 124 111 90 108 93 94 105 88 100 101 85 91 81 74 68
217 214 286 394 388 432 350 346 319 320 335 316 292 214 210 235 196 171 166 160 148 166 204 180 179 172 193 189 187 176 142 120 120 122 114 114 141 140 135 129 109 103 95 99 74 80 72 76 80 69 74 80 83 74
215 347 258 376 443 349 400 319 299 310 278 260 264 259 231 203 157 162 177 166 130 107 124 116 107 112 104 130 130 131 115 102 102 109 112 112 123 123 114 100 93 90 94 87 76 75 56 70 60 63 65 71 78 84
193 246 273 286 239 323 357 381 374 378 335 287 233 142 138 142 175 174 134 117 128 146 152 129 103 88 123 125 113 110 90 65 96 114 112 115 114 108 93 89 89 89 88 82 75 67 65 61 57 47 40 43 44 52
198 203 225 311 313 290 328 321 333 310 315 268 240 215 199 208 214 150 106 136 133 101 64 81 100 67 75 102 99 102 117 104 96 87 89 101 97 84 93 86 88 97 89 77 68 68 67 55 46 42 40 34 36 40
295 238 263 314 254 238 245 264 284 267 239 196 193 177 188 179 172 113 118 84 71 56 55 71 125 133 100 88 90 97 109 94 77 75 78 83 83 83 89 82 94 92 85 72 68 68 56 53 54 48 37 35 32 34

GFSWCAN_con_3kmhel_072.txt.gz
Helicity
51 35 21 19 28 38 66 75 69 94 68 37 6 -26 64 114 85 95 77 92 44 50 155 124 119 82 60 9 -58 -27 -31 -26 -48 -62 -59 -50 -63 -37 -47 -41 -34 -19 -12 -14 1 -5 -18 -20 35 31 27 51 56 60
62 32 15 21 22 54 71 78 89 91 66 23 -46 -37 2 71 96 103 108 112 115 65 125 136 139 139 104 65 -62 -13 -64 -35 -59 -84 -66 -73 -64 -69 -38 -21 -42 -4 -3 3 27 24 5 8 45 65 77 74 65 70
64 28 19 21 31 63 65 79 81 64 76 29 -117 -14 25 22 33 84 108 136 104 120 190 138 177 194 138 88 50 -86 -50 -63 -75 -51 -69 -82 -65 -53 -32 -22 -18 -14 12 13 11 21 34 48 86 97 104 100 86 81
50 23 13 28 43 54 68 71 61 46 50 -27 -54 16 53 60 24 62 113 120 91 62 73 123 160 132 198 117 66 43 -27 33 28 -21 -63 -68 -50 -31 -16 -6 5 23 34 41 37 34 39 48 80 113 132 121 112 106
40 18 15 13 53 70 52 57 75 50 28 -55 15 22 27 54 65 73 88 90 74 47 48 136 138 161 169 142 120 125 85 64 38 -4 -20 -32 -15 -6 1 1 13 54 67 90 55 57 85 75 91 131 134 125 120 125
28 16 13 28 66 55 34 71 89 56 -3 -50 4 19 47 35 88 146 74 88 95 38 38 87 103 131 159 153 154 147 110 86 58 14 7 8 31 16 23 21 20 42 64 84 91 96 101 103 110 134 140 135 136 135
24 7 20 40 69 29 49 202 47 9 -34 -1 57 71 77 97 136 128 70 80 108 57 31 71 83 129 137 123 98 98 91 63 46 19 9 23 27 52 61 98 83 78 96 106 126 163 149 124 128 145 162 157 152 148
27 3 9 35 77 15 105 77 76 106 39 89 92 100 118 149 128 91 88 109 112 66 43 62 61 106 129 94 55 73 35 43 40 17 19 21 39 66 56 62 76 119 151 146 131 141 142 158 188 187 174 160 165 154
11 -2 19 40 67 54 80 56 105 103 111 107 83 92 192 165 107 64 75 122 93 59 43 65 40 30 123 93 73 49 40 10 14 17 34 36 61 81 61 80 86 105 124 123 155 164 167 163 170 174 167 162 166 150
2 -16 27 42 43 60 49 30 59 86 90 106 157 214 153 121 94 84 106 122 110 81 58 70 86 60 91 110 57 32 27 31 32 32 46 77 88 81 96 109 120 129 131 167 173 147 151 153 160 171 157 159 165 157
-10 -22 29 39 49 75 47 38 48 32 118 209 226 203 138 140 84 118 108 106 91 80 56 59 84 89 56 82 56 28 38 48 51 40 88 78 60 53 70 84 86 123 130 125 143 161 164 163 166 163 151 160 166 162
-14 0 30 25 46 88 50 25 37 61 135 177 116 134 162 125 120 114 109 119 80 80 64 66 80 77 70 50 58 53 73 67 58 63 87 80 59 67 66 68 112 130 140 147 152 149 140 147 153 155 160 163 174 174
-13 5 43 26 43 75 58 22 65 55 124 185 198 187 160 145 144 105 118 127 93 40 56 101 127 79 79 58 77 79 84 76 76 87 92 80 74 48 50 95 113 129 141 151 148 144 140 146 157 177 165 177 176 175
-11 26 44 43 30 73 66 44 34 103 180 230 232 203 139 124 99 67 58 55 67 63 94 151 151 109 115 115 80 111 104 96 106 92 88 78 48 42 75 90 127 114 133 143 131 136 143 147 154 170 173 175 175 156
-1 42 52 79 61 76 92 49 65 137 208 282 239 170 103 135 107 63 54 53 105 94 204 156 143 116 150 132 110 135 118 110 78 65 82 79 62 82 102 103 103 121 130 124 136 145 140 152 171 165 175 164 157 142
29 40 86 115 71 85 79 107 167 137 207 265 227 136 115 157 114 93 83 87 136 135 151 157 158 169 166 144 156 141 184 128 95 104 79 66 80 89 92 98 107 124 127 119 132 145 142 159 180 187 173 169 161 153
92 174 39 61 82 55 80 218 227 223 284 269 212 165 94 117 102 79 89 108 156 170 201 177 215 181 133 164 181 142 126 99 99 63 65 69 88 88 98 111 121 122 111 114 143 141 162 184 202 193 184 152 157 149
234 120 32 38 208 411 505 284 265 245 265 305 201 155 102 86 83 112 144 184 195 164 140 169 149 173 149 137 109 59 52 94 72 69 72 85 106 113 110 110 112 107 104 119 147 158 183 177 179 182 186 173 165 146
221 148 117 454 589 587 364 351 278 250 239 305 209 129 103 88 130 124 193 181 150 129 141 146 151 128 115 87 78 80 64 53 60 61 85 102 112 111 109 106 105 113 121 143 162 171 176 166 185 189 182 186 191 161
152 113 278 347 424 552 483 276 234 254 196 293 205 140 122 138 189 266 241 192 176 176 183 158 131 94 85 82 67 49 29 39 77 87 82 89 103 114 106 115 129 134 138 149 145 174 182 178 166 152 151 157 174 162
208 169 355 488 487 465 368 193 327 251 200 286 249 147 135 201 236 199 165 196 171 152 147 117 129 150 120 97 61 43 47 45 45 62 79 114 120 129 134 139 133 137 152 164 176 165 179 164 128 120 128 139 146 146
377 418 735 548 475 504 306 225 330 184 266 324 336 221 169 195 219 176 158 137 124 113 108 125 90 91 96 76 54 40 41 73 85 115 162 172 151 149 157 138 140 134 157 162 163 168 160 129 109 119 128 122 120 115
542 547 562 425 343 400 312 310 384 305 251 373 348 231 222 231 211 233 189 123 140 124 129 125 108 110 109 96 79 84 68 71 91 127 138 141 147 146 150 133 140 151 150 168 174 164 132 92 96 117 122 111 99 92
531 446 411 393 387 309 274 337 388 368 400 402 327 233 241 244 283 259 184 152 134 130 135 120 139 193 165 119 84 60 56 86 141 152 133 151 148 140 136 137 154 171 168 159 156 129 104 101 95 106 102 103 92 94
286 241 250 256 365 351 267 321 353 395 373 379 323 246 275 284 303 228 156 152 135 111 125 132 123 130 135 123 112 100 92 119 151 147 134 135 135 140 145 146 175 185 171 172 139 93 86 90 99 92 88 88 78 63
217 202 233 271 395 333 224 241 253 327 409 382 321 256 282 301 293 219 173 129 149 136 137 140 164 180 168 156 155 128 101 130 169 162 133 122 132 135 130 152 159 148 145 142 101 78 77 84 81 80 84 82 52 60
189 150 306 400 379 405 331 358 378 384 354 274 316 314 321 255 266 274 238 198 153 110 128 158 152 185 206 208 227 217 191 170 151 154 148 141 132 131 140 149 136 131 126 109 79 71 79 71 74 71 83 99 99 86
194 180 263 321 364 417 306 322 316 313 283 284 280 216 179 158 244 277 271 195 174 200 296 325 323 291 235 209 191 181 182 179 209 202 186 160 147 150 148 124 115 107 114 72 57 69 62 69 65 65 74 76 76 81
205 231 319 359 354 340 327 324 283 275 285 284 273 256 268 240 249 239 199 143 119 205 340 331 315 300 304 260 203 166 152 146 159 142 128 100 102 100 116 119 129 115 85 70 61 65 56 75 65 74 67 66 69 66
278 322 269 384 319 243 291 249 236 228 279 299 291 279 267 280 245 160 144 134 94 172 237 219 169 195 165 152 150 170 145 115 110 121 109 89 83 100 111 124 111 81 71 83 88 85 77 89 74 75 71 65 62 61
278 278 241 258 290 307 252 297 348 309 255 234 226 203 217 210 256 233 183 108 151 267 272 218 182 138 149 136 133 140 116 86 109 108 110 107 97 106 115 103 83 73 84 93 95 89 83 77 75 73 66 57 46 43
257 230 182 216 209 243 405 368 346 316 328 262 232 224 251 245 177 149 157 194 222 178 124 107 120 71 90 143 142 135 130 115 78 69 70 78 88 94 97 72 68 85 96 98 91 84 83 81 75 70 62 53 50 49
196 218 261 283 291 272 276 252 267 259 260 224 210 219 178 131 90 113 167 124 75 58 79 86 144 163 134 138 138 132 121 90 76 71 65 73 74 88 83 74 83 97 103 91 85 85 84 79 71 65 55 53 50 48

GFSWCAN_con_3kmhel_075.txt.gz
Helicity
89 79 39 9 36 36 85 111 95 92 44 66 -28 44 60 97 35 61 33 58 43 39 96 93 78 39 36 8 -25 -1 -5 -0 -17 -43 -40 -42 -60 -52 -53 -38 -47 -37 -22 -29 -19 -18 -21 7 8 12 23 43 41 49
90 77 17 10 37 52 86 94 115 68 30 55 -0 69 33 14 78 88 45 82 67 37 67 87 98 72 72 43 -36 10 -34 -7 -28 -64 -62 -70 -69 -64 -50 -23 -41 -15 -6 -13 13 8 11 17 27 51 65 77 65 72
94 65 -13 -4 26 57 76 91 102 63 44 10 22 16 22 28 46 67 69 102 83 82 120 74 117 138 105 62 42 -61 -35 -35 -62 -48 -66 -71 -70 -52 -34 -19 -8 -8 23 19 12 27 26 38 55 73 81 87 103 102
87 53 -4 9 20 72 92 98 68 63 68 61 30 9 -0 14 44 80 91 111 58 24 31 70 108 82 152 81 21 -5 -33 -35 -7 -29 -25 -27 -25 -14 9 12 20 28 48 42 35 33 47 47 69 96 111 122 135 127
80 50 -2 2 34 79 97 78 69 51 35 70 -2 8 47 31 32 92 88 99 73 9 23 65 84 103 125 115 108 76 31 20 -7 -28 -28 -15 6 15 19 24 37 86 84 93 46 62 89 66 76 137 149 140 131 129
69 42 -6 -2 42 89 68 91 84 39 17 44 -10 -15 27 41 75 65 57 92 110 28 10 60 60 87 108 106 102 116 80 48 28 1 -8 -1 13 9 24 31 24 57 69 85 82 94 103 99 114 147 143 127 132 133
57 27 16 -2 49 77 94 139 104 15 -20 -3 -18 6 37 62 84 53 2 39 80 59 9 51 53 97 98 85 44 44 64 34 20 9 7 14 20 45 66 122 83 96 84 85 94 117 117 111 115 108 128 143 142 134
48 16 6 -3 41 55 123 105 37 117 69 49 2 29 57 72 80 83 62 78 85 72 50 31 41 63 126 67 22 41 5 11 23 19 17 32 40 66 44 35 48 94 123 125 128 123 111 119 136 131 138 138 133 137
47 10 -3 16 51 60 44 51 44 64 57 24 18 47 106 70 45 29 38 90 89 76 35 32 44 28 87 69 52 15 11 12 14 31 48 44 71 66 54 68 89 104 97 101 127 119 118 115 116 119 125 129 133 138
51 16 -5 27 47 57 28 55 62 45 44 67 80 138 89 55 61 58 80 76 88 84 72 33 59 48 71 84 66 42 26 34 29 30 43 63 82 67 95 105 99 115 120 151 139 101 98 104 104 117 120 136 144 143
40 18 8 10 29 49 20 55 44 94 105 77 110 124 94 114 95 95 69 64 80 65 47 55 71 62 48 84 71 30 47 41 54 33 62 50 42 49 55 78 74 98 127 107 110 110 121 127 122 122 123 144 157 163
39 29 18 18 50 59 50 60 34 92 77 81 93 81 121 152 118 83 94 101 64 65 52 74 72 90 69 70 74 40 82 74 70 55 66 60 49 58 65 54 63 106 129 124 115 128 130 121 127 127 135 149 163 157
40 28 32 34 53 72 57 41 20 79 88 106 179 168 148 125 119 94 76 82 61 33 60 88 141 102 92 60 78 81 105 106 87 88 73 57 70 64 55 73 108 121 130 127 131 137 124 126 132 140 145 162 156 156
51 31 39 56 61 72 61 56 41 125 122 189 219 179 140 107 77 79 57 75 74 67 100 152 187 122 106 99 84 126 114 117 124 95 68 59 77 73 73 87 118 108 119 121 123 121 124 137 126 147 156 152 175 181
48 36 50 69 68 79 80 105 142 187 148 257 231 204 120 137 94 77 84 73 90 89 183 205 174 113 119 139 99 148 131 120 89 70 68 69 94 87 91 98 102 112 107 107 119 122 132 138 158 147 160 175 183 178
57 72 73 81 79 93 80 223 221 214 201 192 225 231 159 152 150 95 90 115 102 112 191 192 164 151 138 156 159 134 174 119 98 69 66 99 91 87 96 102 98 110 115 117 115 126 134 153 167 176 165 166 157 147
94 174 115 122 94 107 190 289 243 203 116 174 160 182 157 129 88 123 116 92 110 178 207 204 194 144 133 172 178 139 126 92 68 64 92 88 87 89 105 110 111 114 116 115 117 132 148 165 188 193 175 173 139 135
221 183 131 151 189 221 292 216 225 187 128 109 130 162 148 142 81 115 116 154 206 178 177 194 156 186 165 144 117 66 70 89 97 109 87 75 93 106 105 119 110 107 116 124 124 134 162 177 183 186 181 145 115 120
259 220 177 192 249 362 359 222 168 251 142 114 97 93 94 122 96 90 129 208 254 223 205 178 164 132 125 85 62 45 41 72 96 79 74 80 91 101 112 122 120 116 125 128 133 139 161 176 181 185 157 130 123 131
181 169 160 158 272 388 371 260 173 216 79 89 83 41 47 77 113 132 184 297 264 223 199 160 122 101 85 63 44 44 58 76 122 111 66 51 70 102 110 118 116 119 125 123 137 174 191 188 187 161 125 119 129 131
124 185 168 147 307 254 322 298 222 227 250 125 116 140 47 60 144 155 208 256 278 232 166 97 87 103 129 117 115 125 92 74 50 45 38 53 71 112 120 118 120 125 135 140 159 174 198 186 161 126 119 122 130 136
349 350 584 426 370 223 220 349 329 207 371 312 221 185 93 91 155 193 259 301 217 146 114 99 126 140 145 155 121 94 85 87 83 96 107 142 99 105 121 119 134 136 147 152 165 172 172 165 127 114 122 116 109 116
377 520 506 445 308 248 310 413 457 463 284 339 338 211 151 116 140 264 292 222 198 109 104 163 173 178 174 158 153 145 88 89 84 77 80 100 142 154 156 136 131 147 157 155 164 171 164 124 100 111 110 104 104 104
541 567 454 365 223 277 318 457 532 437 428 367 310 235 189 149 124 272 275 189 113 116 143 182 218 250 224 189 128 84 70 74 108 98 81 126 151 141 140 140 146 149 157 159 167 163 140 110 96 101 97 94 93 98
499 387 389 401 222 313 372 463 510 471 325 371 352 262 206 200 214 270 258 128 140 139 166 200 178 188 188 159 130 108 89 80 90 88 72 116 171 172 163 151 154 161 163 177 163 148 109 92 100 95 98 86 67 80
322 295 381 361 253 303 291 387 369 366 271 306 313 328 250 195 201 159 183 115 174 186 197 187 178 188 158 155 162 124 72 72 128 150 107 113 141 144 135 145 140 125 143 154 146 112 86 90 91 86 95 82 56 73
358 250 419 304 356 316 371 416 372 307 260 254 296 319 250 160 121 154 136 191 195 190 187 188 180 191 193 215 237 230 226 169 137 143 174 165 157 137 130 131 120 123 145 145 122 94 82 83 84 82 82 85 78 69
333 186 252 363 346 399 373 422 322 239 265 236 327 267 164 139 165 176 216 219 217 298 349 313 246 244 309 327 334 344 326 259 258 253 246 203 162 138 127 126 131 139 149 126 82 71 75 73 72 67 75 75 71 71
373 341 310 415 490 350 350 328 276 325 294 242 221 213 183 201 188 175 198 245 281 310 375 382 389 434 529 520 406 276 220 174 188 146 123 109 107 79 93 111 134 141 127 97 59 56 56 81 68 79 66 58 54 54
306 360 327 277 356 361 331 333 311 315 420 374 323 275 210 197 178 165 202 196 236 242 279 321 351 389 353 307 265 217 117 101 120 136 123 109 86 110 111 122 134 127 109 92 80 70 64 84 81 86 82 74 75 76
165 282 381 313 260 285 364 380 379 371 371 311 278 241 249 265 245 227 195 200 209 211 243 233 316 331 312 245 199 173 107 71 103 125 141 133 125 112 110 115 116 109 97 96 95 91 89 96 100 91 81 79 64 61
177 239 264 300 287 306 374 367 350 310 297 267 295 299 247 258 269 241 166 177 149 131 121 197 215 135 140 165 144 117 125 138 109 97 118 109 98 94 101 107 108 103 103 101 94 92 97 100 88 79 73 65 57 53
78 193 302 287 269 233 312 341 303 275 271 240 255 225 164 156 145 179 189 128 109 110 125 152 208 208 162 153 156 179 174 147 117 108 109 100 94 81 80 95 108 100 100 97 92 89 96 87 74 66 61 57 53 50

GFSWCAN_con_3kmhel_078.txt.gz
Helicity
110 89 32 -6 42 117 99 76 72 62 64 48 67 18 -10 -5 30 30 44 85 43 39 52 57 52 47 43 33 -4 -16 -4 -19 -19 -48 -44 -38 -27 -31 -12 -17 -14 -8 6 -1 -10 -5 -5 28 33 0 35 46 51 44
117 94 8 15 44 111 100 76 65 31 39 16 43 1 -28 29 77 56 41 70 87 22 31 61 55 41 50 37 2 -7 -24 -29 -30 -54 -45 -41 -22 -16 -6 19 -6 8 4 -1 14 11 30 33 30 45 45 51 59 56
124 102 20 11 59 90 114 92 47 31 22 22 30 -16 -21 39 65 51 44 70 72 75 61 53 57 66 57 32 20 -29 -37 -35 -48 -31 -45 -34 -10 -10 1 10 11 21 32 11 4 31 30 42 42 45 60 61 76 85
125 102 14 3 79 122 126 101 57 69 20 -23 2 -11 -55 -20 41 61 73 71 31 21 29 23 57 25 94 38 2 -6 -32 -33 -21 -19 -26 -16 -10 -9 3 3 13 17 43 23 19 20 27 41 53 60 77 90 103 109
119 91 27 -9 62 104 123 76 63 50 41 21 -18 -20 -4 0 13 51 48 65 43 15 15 36 31 31 66 77 64 -30 -5 -12 -13 -11 -15 -8 2 16 11 15 41 86 70 67 32 42 53 69 58 68 93 100 110 109
111 83 44 -12 56 67 115 89 53 -3 11 6 -15 20 38 36 42 50 15 44 64 1 -12 18 -9 9 48 29 38 26 -7 -9 -10 -8 -4 0 8 5 13 17 15 55 52 52 54 67 70 73 75 91 104 112 113 108
92 78 30 22 44 63 108 115 64 -32 -23 -12 -15 23 40 55 28 10 -3 24 70 35 17 33 -7 5 43 -2 -29 -28 -23 -15 -5 4 12 15 20 19 39 102 69 52 73 81 82 82 72 77 92 95 106 119 118 125
74 60 27 8 32 65 116 89 42 50 46 19 6 47 45 79 35 19 38 40 60 41 45 31 25 30 92 32 8 -3 -12 -9 -5 6 8 16 19 33 26 28 41 59 83 82 88 99 105 96 98 103 108 110 113 131
70 55 22 9 11 44 66 102 73 95 67 35 23 60 62 66 49 28 45 51 44 51 46 39 43 35 50 45 27 19 11 8 2 16 22 18 40 42 35 45 74 86 84 88 105 96 98 90 99 105 111 117 125 140
54 56 32 7 23 5 50 85 48 56 48 26 73 90 83 64 65 64 54 68 74 81 88 53 61 54 41 63 47 45 39 44 41 32 29 38 42 38 57 81 92 98 104 115 125 105 90 90 99 110 124 133 135 129
48 51 35 10 29 45 14 64 61 64 75 106 110 118 68 79 78 92 68 69 76 53 59 86 97 83 47 85 74 45 67 63 70 66 64 59 45 43 57 76 89 88 102 108 117 117 111 123 121 123 133 136 133 125
50 45 35 23 47 55 67 76 67 148 117 96 69 67 122 135 119 100 102 100 56 56 62 71 115 141 90 86 96 65 89 90 91 66 86 77 43 50 63 75 81 86 114 126 126 129 127 127 127 127 123 126 142 145
56 49 45 28 51 61 88 65 68 86 109 177 151 188 160 132 161 156 109 94 92 64 54 105 138 131 117 103 118 83 95 106 98 120 105 62 78 58 86 115 110 98 110 133 136 129 133 133 127 122 125 155 158 161
62 60 60 51 55 83 110 103 102 59 142 220 196 311 231 205 162 119 97 92 106 81 86 134 184 125 124 137 102 124 123 119 142 129 90 84 51 84 111 119 120 108 115 129 130 133 131 124 125 138 160 174 177 168
63 70 76 54 69 90 117 168 126 77 154 221 197 225 229 199 139 78 76 70 91 119 135 152 156 112 139 167 126 158 139 144 105 83 73 81 104 120 134 109 104 114 120 125 124 123 127 128 135 147 185 182 176 176
85 118 115 74 71 103 142 228 185 150 193 177 210 235 131 154 111 93 95 71 85 119 175 150 144 154 152 191 190 144 181 129 106 78 84 116 106 124 114 95 101 121 123 117 120 120 130 142 150 158 153 176 180 161
118 225 92 82 106 180 220 280 279 268 152 257 213 229 171 113 108 60 86 103 116 162 176 186 154 149 163 194 229 156 146 107 97 98 97 96 115 111 101 108 115 121 114 115 124 137 142 150 164 175 175 184 149 119
228 171 120 126 198 358 384 277 276 312 291 348 288 170 202 117 51 71 60 94 178 180 169 196 196 205 205 180 117 82 77 110 131 137 121 123 118 100 84 108 117 115 116 130 140 141 138 148 168 188 187 154 112 109
226 130 133 158 303 443 435 381 373 389 301 346 321 256 187 150 95 57 60 66 166 190 202 177 192 179 159 118 94 98 89 108 121 134 132 108 88 84 97 123 125 121 129 135 130 132 147 165 174 192 170 134 108 113
125 105 119 162 313 429 446 367 369 461 285 307 320 310 245 148 77 49 69 98 199 185 204 240 198 161 113 107 117 115 113 135 191 179 131 80 63 71 91 102 112 132 134 128 127 136 159 176 202 179 143 113 112 110
128 133 69 238 379 375 426 410 430 358 388 369 264 357 358 215 147 80 83 134 204 251 197 163 126 152 159 142 122 149 156 145 114 109 76 65 31 66 108 114 128 117 116 129 143 159 171 183 169 147 112 100 102 97
249 111 292 433 426 426 495 394 441 426 379 309 363 421 383 251 138 144 116 168 187 166 183 131 130 174 204 184 153 159 163 148 111 113 134 152 99 92 81 99 113 112 122 138 150 162 178 169 158 128 102 92 87 92
257 258 349 435 437 452 498 520 564 450 340 222 345 393 396 379 180 217 147 37 49 175 184 128 112 230 243 241 235 262 178 140 121 108 88 85 104 111 130 114 113 131 137 141 151 167 172 164 141 108 98 92 90 87
457 400 347 433 550 608 544 698 709 608 603 406 340 374 369 398 257 167 114 102 39 184 181 161 223 308 307 263 234 169 129 129 160 140 118 154 131 102 106 119 131 139 152 164 161 170 169 164 124 105 97 90 89 88
545 369 353 531 567 711 807 850 791 639 583 519 510 487 371 333 298 124 70 45 114 168 205 212 226 227 260 225 181 159 155 135 142 120 76 105 149 157 134 129 135 143 144 157 161 161 165 144 119 109 94 88 82 77
516 519 598 680 668 658 737 827 606 582 562 519 459 479 400 343 222 21 20 112 126 225 275 239 215 219 189 221 235 179 106 91 164 164 100 84 113 131 122 124 121 116 125 152 163 159 153 131 115 106 99 88 63 66
594 629 612 500 495 507 549 603 589 540 463 485 505 471 493 368 128 52 78 126 201 208 270 233 239 252 234 233 250 239 249 203 166 152 173 152 134 119 138 130 123 132 158 154 151 140 136 120 114 109 96 74 68 63
406 358 476 439 576 508 462 492 525 467 454 357 373 426 320 219 41 52 82 98 200 196 233 271 288 303 277 288 324 394 392 342 357 349 316 242 188 166 164 173 169 178 153 146 134 115 112 110 104 94 83 70 56 55
413 325 422 425 489 470 444 430 442 428 435 474 480 394 284 199 178 130 140 100 175 188 268 339 372 368 417 450 398 377 392 367 352 244 166 135 121 95 127 135 136 137 138 140 121 118 102 107 95 84 76 61 51 48
435 298 408 432 394 311 373 409 431 428 417 402 404 320 256 200 167 157 177 153 200 187 174 238 379 422 440 426 399 369 319 246 187 174 140 110 87 146 144 121 119 126 138 140 142 132 123 106 97 91 81 74 72 73
413 404 359 357 331 327 255 337 385 369 318 299 378 274 210 178 186 210 134 139 226 243 244 282 326 311 399 388 383 329 199 127 135 121 138 165 174 150 125 115 121 137 145 152 148 129 108 99 94 86 80 75 69 74
393 324 324 373 316 272 215 248 332 337 349 323 275 215 210 219 171 136 105 158 168 147 104 174 249 256 261 245 210 259 213 171 126 131 151 152 144 131 123 124 135 148 157 155 131 108 90 88 87 81 76 68 66 64
376 368 338 305 267 277 289 299 276 281 279 236 230 265 266 239 152 133 163 156 130 143 153 192 237 267 264 255 220 214 200 174 146 133 134 140 137 120 122 129 140 147 154 135 106 93 84 86 79 71 62 57 57 60

GFSWCAN_con_3kmhel_081.txt.gz
Helicity
127 106 6 16 47 69 81 84 45 32 33 22 5 -6 3 11 10 26 37 44 67 45 28 42 36 32 25 19 -27 -31 -3 -9 4 -9 -12 -19 -7 -14 12 9 17 21 26 22 20 21 16 48 39 12 36 46 55 58
130 103 -18 -11 41 103 81 91 63 31 48 23 0 13 45 79 58 62 55 72 109 7 10 30 17 26 22 17 17 -15 -12 -20 -30 -23 -24 -22 -1 -2 -4 22 10 17 8 9 19 13 29 41 31 52 48 50 58 59
118 93 -4 -18 46 97 92 77 54 42 45 12 -13 11 33 73 110 63 62 70 56 46 33 26 10 17 44 30 15 -3 -17 -14 -18 -18 -27 -30 2 -12 9 12 9 12 19 25 5 33 30 37 41 42 53 64 80 98
101 93 16 -32 59 82 81 67 41 48 25 15 3 -19 -22 53 80 90 57 60 55 6 16 -8 -5 -17 33 10 -2 -2 -3 -10 -18 -13 -30 -16 1 -7 2 8 26 31 48 28 20 13 30 34 40 57 71 91 103 119
85 87 67 -31 38 96 104 81 62 38 37 -6 -6 -56 -50 -2 30 35 50 59 39 21 -1 6 0 -29 -12 -27 -55 -43 -24 -21 -23 -22 -15 -9 -12 0 11 14 57 95 79 77 55 85 60 86 74 62 86 98 124 137
79 78 54 18 17 64 97 62 43 41 32 12 -5 -27 -29 0 41 54 5 33 60 38 7 15 -33 -18 -30 -39 -38 -45 -45 -45 -36 -28 -15 1 7 7 23 37 20 53 35 45 67 67 87 91 87 92 103 130 145 144
91 56 51 17 19 67 101 80 57 20 3 6 -5 -12 -5 11 23 22 13 27 69 40 10 22 13 0 -1 3 -4 -3 -5 -18 -13 -10 7 20 25 19 41 76 93 64 70 88 101 100 90 89 110 115 131 145 145 142
93 56 38 23 9 27 92 83 35 20 31 34 26 11 14 -17 -2 17 32 41 44 23 32 40 37 26 51 57 34 37 32 24 25 29 21 25 22 34 43 40 55 68 88 94 109 119 143 134 126 131 130 126 121 120
76 64 28 32 18 13 9 66 130 99 82 73 46 19 10 30 19 28 52 48 35 50 46 43 53 56 45 89 75 50 58 52 49 51 59 45 53 67 44 63 82 101 108 119 136 132 126 128 136 139 126 122 117 119
71 60 32 22 57 56 15 47 127 132 92 60 45 45 81 65 54 57 37 59 70 96 109 59 88 74 58 56 98 79 62 80 73 80 72 90 61 51 58 92 112 116 124 146 155 127 130 134 129 134 126 129 120 117
77 52 26 26 53 95 60 67 100 69 108 76 50 118 90 73 97 110 85 74 75 72 72 104 146 129 77 99 96 87 91 93 98 104 112 102 74 87 94 96 137 128 127 115 131 160 158 150 148 142 133 127 119 115
87 62 44 37 49 86 99 60 98 104 19 51 90 92 81 152 160 138 125 112 69 86 82 87 120 189 124 102 116 93 114 109 128 100 122 107 64 121 118 113 118 145 151 145 146 168 169 167 156 145 133 127 124 137
107 82 63 43 54 79 105 103 65 101 97 64 107 143 115 156 176 160 146 120 104 66 70 92 128 143 165 136 141 115 119 149 124 139 151 86 105 107 111 138 156 165 161 158 161 156 162 164 144 131 128 131 134 141
126 96 82 56 65 81 98 148 113 108 129 154 113 131 136 193 218 234 225 163 126 99 83 102 150 121 151 155 145 140 142 123 174 175 103 84 104 105 128 147 181 166 147 148 147 157 162 148 137 134 134 145 153 164
143 111 101 80 77 83 108 165 135 133 152 191 158 159 257 205 170 127 113 111 115 95 100 124 134 120 143 184 163 213 174 166 127 85 72 78 139 167 165 173 174 153 144 134 144 144 135 140 142 139 156 163 166 180
181 199 170 102 81 109 160 247 203 189 226 212 215 227 255 278 131 95 97 84 70 82 116 134 138 157 149 192 211 203 266 170 95 78 78 130 150 155 181 190 160 138 135 142 145 141 148 147 144 152 158 173 195 189
295 336 138 132 115 189 236 324 309 295 202 218 298 308 243 271 204 101 35 98 84 123 157 127 152 160 199 180 229 214 202 143 110 99 117 141 138 161 183 174 153 144 146 148 145 149 163 164 159 154 161 191 181 155
418 282 167 167 185 333 357 306 319 346 337 234 292 310 239 206 224 130 44 60 113 155 190 174 152 177 232 210 106 87 96 100 151 158 148 147 162 169 154 153 136 138 143 146 154 157 154 151 152 162 173 179 156 123
360 297 169 224 341 442 348 314 380 446 378 232 284 350 302 223 183 176 53 3 108 196 203 198 169 150 166 140 89 103 132 140 145 152 166 161 155 151 161 156 154 147 141 140 132 140 152 164 168 173 171 166 141 119
323 257 188 244 278 414 365 310 333 433 403 315 252 308 339 274 238 211 182 113 107 137 170 259 275 233 99 79 64 61 109 183 231 225 191 158 147 152 141 133 126 141 139 135 135 145 153 156 166 166 165 149 126 117
357 261 156 264 346 339 344 284 296 301 368 370 248 256 298 313 297 254 260 299 294 305 140 189 160 173 122 8 9 92 129 181 145 151 173 168 129 133 135 128 149 126 114 122 138 153 156 159 165 158 156 137 119 108
514 209 446 447 417 383 375 316 324 324 340 309 219 275 293 269 306 291 314 343 393 355 159 171 188 188 167 66 57 80 104 155 199 207 228 242 202 146 124 126 137 112 125 145 154 159 162 155 152 151 146 120 105 98
443 570 535 438 418 372 342 434 464 358 340 265 264 263 286 266 318 396 293 319 289 290 309 216 233 209 153 91 126 141 150 182 206 179 163 179 176 157 158 138 118 137 146 149 163 170 157 154 152 153 137 110 96 92
592 540 557 475 411 459 455 484 561 517 466 418 426 395 279 233 269 292 244 283 301 305 304 295 292 293 217 159 171 177 186 209 213 225 176 211 186 155 153 146 137 152 169 187 176 169 155 155 158 152 129 104 94 82
611 452 464 512 571 543 568 530 540 529 578 581 540 528 401 318 265 330 318 136 247 347 313 307 261 222 236 197 207 187 186 195 202 184 160 184 248 248 190 155 153 160 175 187 171 165 158 160 160 147 117 101 89 77
548 450 426 413 534 570 572 633 572 658 607 564 541 566 454 365 382 365 233 231 330 305 363 369 287 239 224 216 249 225 152 196 229 223 170 182 190 181 158 158 149 131 152 158 193 171 167 167 167 142 110 98 78 80
527 511 547 583 572 650 648 626 599 576 568 556 502 504 459 440 364 305 346 356 279 287 331 380 355 278 257 298 249 272 262 269 251 197 187 227 220 173 159 173 158 154 202 194 186 173 179 175 167 136 110 99 94 88
521 543 577 579 660 612 562 563 556 487 494 488 479 506 493 435 392 389 233 225 248 216 174 233 225 224 198 275 387 429 430 390 346 367 402 321 242 194 200 217 209 223 219 202 184 179 175 170 155 126 111 102 93 88
535 485 581 524 558 491 478 511 533 527 519 505 423 385 403 409 388 338 256 194 161 221 292 296 336 364 416 293 346 375 446 417 412 328 262 226 202 159 192 227 231 218 206 186 166 166 154 149 133 117 118 103 93 84
500 506 572 522 505 447 479 420 390 408 456 462 446 424 371 327 310 322 256 194 181 176 183 214 246 295 297 305 326 324 295 290 250 273 228 197 150 192 243 219 215 197 182 171 160 162 160 157 135 123 121 103 98 88
596 582 524 416 368 397 415 349 329 330 347 334 367 338 301 296 258 218 208 214 181 169 182 289 176 222 255 291 310 363 301 235 267 243 225 238 243 216 227 228 212 189 166 146 153 163 162 141 125 119 108 99 89 83
648 549 442 397 360 353 319 281 276 270 267 242 283 284 219 200 191 190 197 298 214 145 72 157 139 228 179 212 263 354 273 283 230 199 230 220 215 226 243 240 204 174 148 142 162 167 141 135 122 108 99 90 83 72
564 555 515 394 285 234 283 299 263 199 191 198 192 194 194 179 109 133 156 169 167 106 94 142 200 236 246 261 320 303 281 303 239 198 174 176 200 222 239 199 163 139 135 159 165 148 135 128 109 101 90 76 65 61

GFSWCAN_con_3kmhel_084.txt.gz
Helicity
38 77 56 -17 21 30 -8 7 -16 -13 32 22 1 12 34 30 15 1 10 43 31 -11 0 14 -4 -18 -10 -7 -33 -30 -13 -6 4 6 5 17 30 14 32 22 18 25 19 24 17 24 17 22 16 40 46 45 68 76
44 67 67 -25 24 61 43 38 9 6 26 28 7 22 56 124 43 16 -21 43 91 -31 -9 -4 -8 -8 -15 -18 -22 -27 -23 -31 -31 -7 -9 -3 22 11 10 44 14 34 46 50 51 44 18 36 40 47 48 64 69 78
63 77 72 22 -2 70 88 65 32 21 14 22 39 43 54 125 129 30 -1 63 -1 -16 -2 -2 -6 -14 2 -8 -5 -20 -31 -18 -25 -21 -6 -5 22 -2 40 50 40 39 38 59 17 52 52 65 83 80 75 89 99 110
72 71 75 64 -21 40 100 73 46 27 23 10 -3 27 40 79 88 87 7 65 11 -6 -18 -27 -47 -35 -9 -13 -17 -21 -22 0 -6 -12 -10 7 22 0 46 38 52 60 74 64 53 44 91 67 87 104 118 132 137 156
58 61 68 57 35 11 71 80 75 49 33 28 31 -14 16 68 70 62 21 53 31 -41 -26 -42 -53 -63 -44 -34 -40 -33 -22 -16 -18 -2 18 21 6 7 24 14 66 136 107 138 73 110 122 113 105 91 128 134 140 158
55 59 46 50 34 14 38 78 72 36 39 41 40 53 -5 25 66 31 -9 40 66 33 -20 -5 -56 -43 -56 -42 -34 -29 -26 -18 -8 7 19 24 38 37 52 54 33 97 75 82 107 131 142 148 133 121 156 181 180 176
64 60 25 36 31 24 2 35 61 46 10 16 15 30 59 24 17 23 13 34 113 48 17 23 14 -10 -1 8 3 0 10 17 22 25 43 66 64 70 87 110 108 130 130 136 146 160 138 131 131 160 177 188 177 173
67 49 38 14 17 4 15 17 36 42 30 29 23 24 47 87 67 44 31 30 53 44 47 44 33 41 52 78 64 40 37 35 34 63 70 76 70 94 79 75 112 128 152 148 147 158 162 174 172 158 161 156 155 150
69 52 31 19 -2 2 6 -2 -6 55 89 78 37 35 46 65 74 71 50 40 36 67 59 66 71 67 44 99 111 82 69 64 72 88 95 96 104 119 72 78 134 141 131 136 194 169 165 149 146 145 146 155 157 150
81 69 32 17 -1 12 29 79 116 118 126 107 80 26 50 49 99 91 78 83 85 106 152 92 96 98 85 76 93 111 101 91 100 71 94 126 112 76 45 68 115 152 167 247 231 173 150 146 142 143 141 154 152 146
86 71 43 19 19 32 44 108 156 188 150 68 -16 -51 56 41 89 134 102 105 95 73 86 88 146 154 102 114 96 96 109 111 103 92 140 113 63 77 101 201 195 204 210 174 169 137 128 133 140 164 160 146 146 141
86 75 52 29 26 57 58 103 139 126 99 75 58 52 41 32 69 101 130 135 118 94 96 73 80 128 154 135 124 101 115 133 134 135 123 77 34 77 118 167 184 186 226 230 181 183 181 184 172 169 155 147 151 142
106 93 73 42 43 65 72 71 96 123 105 93 107 122 79 64 90 147 169 155 137 122 121 111 108 88 115 135 152 117 145 148 151 170 143 107 76 89 107 131 142 182 226 218 206 195 180 169 161 147 146 138 136 126
134 127 99 77 67 82 94 89 110 135 120 136 121 121 131 123 93 150 151 162 143 141 116 126 151 116 113 138 151 187 137 164 202 160 120 73 82 118 119 104 160 173 205 195 179 171 163 155 145 140 132 129 127 128
171 156 133 110 102 110 122 133 155 158 165 158 112 62 119 142 170 185 168 134 106 122 115 125 143 138 147 186 170 237 233 194 87 22 51 24 55 132 125 128 141 169 174 173 158 159 154 146 142 124 116 122 129 146
224 221 237 141 115 134 164 247 221 194 220 224 150 121 133 141 90 134 143 139 90 111 152 187 183 139 108 185 205 179 245 137 65 66 58 63 91 100 129 128 151 172 163 156 145 146 150 136 126 120 119 122 145 163
375 412 238 229 191 184 223 300 313 295 220 288 153 188 250 184 125 133 153 137 146 154 140 143 160 116 166 130 162 138 114 93 60 25 63 69 77 107 140 166 174 175 163 162 171 169 171 162 150 141 137 138 151 162
453 390 318 328 269 355 371 283 309 343 310 288 202 144 187 190 192 167 148 179 178 147 192 180 201 275 231 173 161 113 76 119 132 112 72 107 129 145 161 180 177 161 167 179 182 175 164 147 127 116 133 144 151 157
419 450 400 345 424 497 414 355 396 414 351 312 224 211 233 230 188 161 157 152 207 216 244 275 264 393 240 223 124 106 21 -38 -17 47 122 121 137 168 181 197 192 176 171 178 179 149 133 128 133 140 142 155 160 157
349 428 357 354 431 528 413 353 382 413 336 334 287 249 274 255 227 214 219 256 296 281 310 493 469 492 310 137 123 82 61 23 108 138 142 171 173 196 187 195 165 184 207 209 189 159 139 129 129 139 142 156 158 152
478 361 241 347 453 482 380 317 349 360 459 472 401 306 296 282 251 256 309 387 384 447 391 426 363 306 243 201 168 141 55 48 68 164 192 189 170 197 207 194 199 199 194 173 157 125 127 132 145 139 145 155 152 140
624 354 457 444 519 403 376 338 376 440 444 386 365 373 323 278 258 253 271 376 489 449 406 372 294 264 232 216 170 181 136 95 97 147 172 187 257 223 196 181 211 184 166 155 148 136 139 145 143 140 155 153 145 124
579 744 741 595 493 413 328 346 464 425 368 299 372 380 355 306 293 317 253 291 377 443 285 303 283 309 265 231 263 203 159 156 188 196 209 178 221 259 215 196 192 203 194 165 176 180 166 154 144 152 163 156 146 123
711 803 763 466 459 446 399 521 514 539 523 514 436 437 359 325 342 305 306 335 366 297 236 150 310 377 357 316 260 245 209 204 196 224 243 245 243 216 184 209 194 183 169 180 185 187 174 157 146 156 166 157 139 122
684 525 492 586 496 492 523 596 655 603 544 568 507 452 423 378 331 346 360 285 260 349 313 241 295 337 311 242 195 207 265 263 279 232 263 255 291 304 277 258 223 178 196 235 202 189 175 169 157 168 163 149 134 117
531 467 470 449 600 583 615 616 563 686 630 564 413 498 463 400 346 306 215 156 170 234 268 350 358 371 356 300 213 254 251 262 266 205 263 267 247 271 261 238 195 126 132 186 225 193 174 159 161 170 151 131 118 133
462 465 566 582 537 631 703 671 592 546 505 519 463 428 379 368 316 319 199 188 223 254 303 366 371 323 306 297 262 291 228 233 243 199 253 303 256 235 223 206 165 132 171 208 223 197 178 167 171 162 150 147 132 127
483 457 512 695 760 646 600 601 551 531 554 481 468 470 357 305 273 227 209 170 210 239 199 198 287 298 243 238 309 407 356 347 370 377 386 399 342 271 238 244 233 212 199 230 212 194 185 178 178 164 153 147 123 121
441 489 623 592 625 537 447 454 452 466 481 456 386 380 372 320 270 258 219 174 173 184 194 178 214 323 351 345 383 265 170 311 340 300 250 301 284 217 230 267 323 247 237 238 181 184 193 186 180 154 155 141 120 123
573 485 590 517 516 483 439 389 372 375 377 357 354 330 252 244 247 241 252 248 219 200 181 183 152 184 279 353 317 172 151 190 219 230 280 224 221 255 253 248 239 233 240 242 219 193 180 201 189 173 161 130 121 122
486 550 525 441 394 433 456 396 375 344 332 318 298 262 263 230 151 132 191 207 207 216 253 249 208 191 226 263 268 222 183 175 207 191 201 239 276 266 287 254 228 242 243 230 198 185 198 166 147 158 141 118 110 122
559 474 473 466 429 408 359 305 281 258 248 244 246 220 219 202 169 97 135 216 226 227 230 245 227 196 144 158 156 226 89 254 271 247 240 273 282 274 270 252 265 253 238 203 190 175 161 140 152 143 117 103 106 98
491 521 532 467 386 324 312 308 248 238 225 198 168 159 176 178 154 96 126 132 140 173 240 244 197 196 115 142 136 194 193 211 227 180 180 189 206 246 248 238 230 222 218 199 173 163 139 155 150 120 106 102 96 72

GFSWCAN_con_3kmhel_087.txt.gz
Helicity
52 55 94 62 -26 -55 20 22 14 -31 -51 -23 -37 -18 38 104 39 -50 -33 -27 -56 -67 -6 -19 -18 -18 -12 -17 -11 4 -15 -10 -8 16 29 39 45 51 46 51 41 49 42 51 40 43 35 36 31 65 49 37 56 66
57 45 87 65 43 -27 21 44 14 -8 -36 2 -27 12 52 138 113 -32 -47 -9 -30 -59 -39 -28 -39 -32 -27 -23 -28 -14 -13 -7 4 7 23 28 52 49 56 57 32 54 70 57 80 60 47 45 53 59 62 75 73 92
58 53 80 60 50 14 25 62 47 19 14 8 -6 -14 41 64 68 -31 -52 4 -68 -98 -59 -55 -31 -29 -48 -33 -29 -11 -18 -14 -7 -1 8 28 58 42 55 54 47 35 53 61 17 36 69 88 83 91 86 97 125 139
47 48 75 58 52 29 23 87 72 35 2 29 20 -1 4 15 41 33 -77 81 -66 -70 -51 -54 -72 -56 -52 -44 -33 -25 -27 -26 -15 -7 21 47 59 49 74 66 76 74 85 74 56 35 57 74 95 97 120 142 167 166
44 39 62 60 46 41 1 69 91 60 16 23 53 51 41 28 7 25 17 35 -1 -61 6 -49 -77 -63 -58 -58 -38 -34 -33 -24 -2 15 33 38 39 41 50 55 112 201 188 198 94 79 97 66 116 121 139 132 142 160
44 54 49 51 40 30 20 -18 74 77 49 16 32 61 76 74 54 38 38 28 46 25 -30 -37 -42 -1 -3 -36 -20 -22 -26 -13 7 19 16 13 35 54 70 74 43 52 60 87 81 114 99 124 134 127 153 165 165 171
51 70 55 38 40 21 16 -2 -28 22 61 33 28 36 94 89 92 74 43 24 55 55 48 11 11 25 46 61 78 84 65 65 68 52 57 75 73 75 95 159 152 55 95 126 133 164 135 128 115 138 169 161 167 161
50 75 66 31 35 20 14 6 -9 -33 -25 16 51 52 72 133 129 101 95 51 48 66 70 48 38 53 58 75 74 68 81 105 109 127 145 111 86 116 78 77 38 99 165 147 152 169 146 168 186 177 153 151 150 140
67 68 69 32 22 26 1 8 2 -10 -11 8 34 68 63 80 93 116 129 88 55 76 77 87 73 40 53 62 85 90 102 79 100 113 130 137 148 163 46 62 67 115 99 100 164 167 174 168 162 150 146 134 136 121
79 81 84 52 24 32 20 16 34 85 95 63 44 42 22 29 54 87 148 121 118 129 212 155 136 115 115 89 82 88 91 81 104 88 102 98 177 227 131 124 58 91 131 203 207 151 157 156 140 127 112 125 124 120
78 91 97 76 46 32 39 58 114 198 194 103 54 52 42 37 36 48 28 49 56 68 80 71 81 92 92 130 117 123 122 117 102 88 115 69 92 40 42 51 134 191 202 172 142 134 151 135 132 134 133 128 124 115
65 102 101 105 64 31 51 92 119 143 112 84 56 54 63 92 121 158 147 96 76 22 102 94 68 95 116 124 145 124 137 173 144 132 116 58 23 27 51 79 125 174 196 190 167 171 160 157 151 151 139 131 121 121
70 104 114 114 81 53 56 89 91 110 131 110 97 83 68 77 117 153 266 251 155 110 52 43 42 50 88 104 145 143 153 154 133 145 66 44 38 44 47 85 103 104 147 179 179 189 195 194 174 146 133 125 129 125
103 109 129 125 114 93 71 107 125 151 157 152 125 104 72 77 46 73 133 142 170 159 112 101 92 70 70 83 115 127 116 116 111 95 28 32 17 15 61 76 116 94 122 147 159 166 166 156 148 144 133 126 125 117
138 151 145 169 145 124 98 135 152 198 208 200 157 85 65 67 52 48 70 101 111 115 142 140 143 142 126 139 142 168 149 114 79 50 74 76 62 48 64 66 94 118 123 137 158 153 152 141 140 139 127 125 117 114
172 192 243 221 204 179 148 209 245 231 268 269 232 152 111 100 51 60 77 82 86 150 152 147 157 175 174 221 300 210 251 191 135 107 95 88 85 72 63 67 88 118 136 151 154 135 151 140 129 132 131 117 120 114
251 350 260 269 260 238 257 398 363 317 226 293 245 208 224 196 121 95 124 123 139 208 167 179 192 138 266 229 344 324 220 164 93 43 67 75 52 65 80 95 111 125 144 154 156 143 152 168 175 160 133 109 111 106
401 350 262 361 380 396 463 380 367 342 300 368 206 188 199 191 183 181 172 210 262 187 242 200 247 355 328 273 360 267 111 106 90 56 -11 -61 -14 65 120 114 120 141 157 171 170 175 187 178 150 129 117 108 113 120
363 388 335 458 538 708 555 410 414 297 269 331 268 251 265 223 180 164 198 204 237 242 278 241 185 307 331 352 240 175 176 150 92 25 53 29 15 48 101 142 171 192 200 204 176 149 165 137 132 137 126 121 116 113
295 323 407 496 635 751 579 455 385 405 224 269 315 304 276 242 229 236 261 292 374 375 364 320 308 387 409 344 255 173 158 166 174 119 79 44 58 127 127 192 210 227 240 209 191 186 192 158 139 132 116 111 117 116
468 381 434 624 821 645 501 399 387 354 393 411 281 288 276 289 276 276 277 314 406 537 487 393 378 316 329 307 241 215 196 197 167 148 124 93 71 153 178 230 272 270 257 221 185 162 150 135 138 121 107 115 119 119
571 551 623 600 569 426 407 320 323 395 381 306 306 366 289 282 260 251 289 372 466 461 431 311 214 252 256 252 275 300 235 227 190 155 125 155 187 254 234 224 279 246 223 188 167 162 160 150 132 122 118 125 127 118
700 805 764 648 464 406 313 340 400 315 302 241 339 283 264 237 212 278 286 358 405 381 351 351 280 225 225 185 239 243 261 266 233 228 213 209 216 234 222 240 260 282 218 162 166 178 183 141 139 145 140 143 128 131
754 794 744 537 469 395 358 445 443 451 445 429 365 356 290 270 312 319 325 353 320 311 334 297 253 193 263 279 259 234 262 326 293 277 260 260 240 222 211 210 240 225 195 212 220 207 196 193 151 148 150 144 137 148
677 515 454 550 489 422 424 480 550 527 489 476 468 470 372 329 277 285 313 233 228 279 252 266 291 279 266 271 286 309 288 335 314 263 271 287 259 306 260 222 224 223 235 273 225 196 180 198 175 159 152 140 142 152
472 414 405 352 433 396 421 420 454 553 525 499 425 460 446 374 281 233 173 60 101 149 187 249 273 303 319 330 285 300 371 423 363 316 232 279 280 308 275 255 253 197 184 195 233 198 192 186 173 162 148 125 137 174
412 460 470 459 410 414 470 501 521 479 470 494 493 563 474 346 255 242 185 136 101 101 231 297 359 395 382 350 308 245 267 247 283 260 210 201 219 260 283 279 206 165 194 181 200 202 201 184 173 157 147 149 150 170
415 319 394 533 580 544 454 515 533 546 603 540 607 580 406 274 205 176 96 91 89 211 236 221 228 267 319 300 232 292 303 334 287 284 305 322 327 250 216 194 163 143 195 186 211 226 197 181 180 162 147 148 158 162
336 385 497 440 488 427 396 389 427 513 610 594 492 431 370 346 283 198 128 152 205 245 270 281 247 242 258 234 218 263 269 299 281 204 184 222 278 214 220 223 226 244 229 235 152 196 184 193 189 158 158 162 172 163
355 410 435 390 377 324 331 364 375 426 435 440 399 362 301 269 199 184 221 241 264 253 214 215 245 291 280 264 273 243 160 157 179 200 202 179 204 251 268 249 252 253 269 222 263 239 209 233 222 201 189 189 178 152
336 467 426 365 306 345 401 440 467 424 386 332 307 236 209 206 205 158 184 201 202 191 231 245 234 251 295 318 300 293 102 70 100 174 122 141 223 257 228 229 227 250 235 215 261 213 209 197 166 170 175 175 149 123
407 344 377 378 336 363 354 332 324 299 298 268 257 256 263 267 256 171 192 273 276 250 193 199 211 225 263 256 208 169 97 163 112 173 150 164 204 258 262 254 234 226 220 274 229 201 189 170 156 154 160 144 118 95
421 436 417 353 327 299 350 333 292 277 286 252 214 213 224 236 230 147 123 167 257 253 222 205 206 208 159 155 164 92 111 164 107 163 119 134 191 246 267 254 251 203 266 253 201 198 183 171 163 158 146 122 96 78

GFSWCAN_con_3kmhel_090.txt.gz
Helicity
50 46 53 58 53 36 6 25 10 1 -28 -48 9 -15 -32 -2 -87 -86 -77 -65 -65 -59 -37 -44 -38 -27 -23 -27 -12 -2 -8 -2 1 31 50 65 66 54 44 53 39 48 45 50 37 43 32 52 57 60 38 38 56 65
41 44 38 64 50 44 18 33 30 16 -5 -39 -26 16 30 -7 -44 -55 -87 -62 -82 -83 -48 -60 -63 -53 -42 -43 -34 -27 -14 -17 -4 6 24 28 41 38 42 43 23 41 60 41 73 42 25 39 33 39 54 57 53 72
33 70 43 56 51 47 26 11 41 32 25 9 -10 17 53 48 3 -57 -57 -60 -74 -93 -86 -75 -54 -55 -45 -33 -30 -20 -13 -26 -20 -17 2 17 44 42 47 46 38 29 52 51 15 18 45 54 57 70 70 74 89 90
38 49 44 58 52 44 38 2 30 46 41 42 33 18 51 71 69 19 -15 -58 -11 -45 -52 -40 -48 -65 -60 -53 -29 -12 -8 -11 1 6 21 35 40 40 50 51 91 65 90 62 44 16 20 33 65 84 97 111 127 136
32 44 35 39 49 45 41 26 -29 52 58 54 68 48 50 50 49 73 57 66 37 47 21 1 -68 -30 -1 -7 -26 -35 -38 -22 9 42 83 84 89 75 82 81 139 174 152 175 93 56 76 57 84 120 143 117 116 143
32 55 46 32 36 39 34 25 26 -41 41 82 75 87 83 59 31 40 40 35 45 43 84 34 61 73 93 112 104 88 70 69 69 47 31 41 88 86 76 131 85 81 33 50 61 75 85 93 112 118 128 136 136 142
43 71 59 40 27 35 27 18 28 31 34 58 101 105 95 73 75 61 45 31 19 34 71 46 47 34 44 107 145 161 160 155 143 124 136 161 161 160 196 274 256 152 97 84 93 170 139 113 104 136 159 171 168 155
53 76 67 54 33 33 24 19 14 24 52 74 54 106 106 90 72 85 85 101 75 64 76 69 52 64 52 67 81 120 134 150 156 168 226 184 173 207 158 84 77 54 75 123 124 122 109 149 192 195 191 187 174 150
62 77 79 67 34 23 25 21 13 34 30 84 108 108 117 74 32 62 86 103 92 95 75 97 86 35 61 64 58 80 112 114 141 147 134 116 155 151 46 98 78 91 78 68 139 135 144 154 166 181 189 158 151 132
72 73 98 89 61 28 25 23 16 31 82 126 159 135 141 94 48 49 83 70 82 146 214 126 180 158 128 88 60 56 71 87 105 80 86 85 150 129 13 37 51 74 97 153 163 117 123 142 158 164 138 131 127 129
78 68 103 104 88 56 34 25 26 118 226 166 129 131 105 64 92 127 149 159 121 103 57 100 107 121 91 146 121 109 102 89 61 72 78 70 62 18 34 30 30 67 190 137 112 88 107 112 143 152 139 130 133 135
93 78 119 113 114 80 47 40 112 176 134 116 115 120 111 144 161 155 187 209 206 166 129 122 78 79 73 91 105 99 88 107 57 99 100 67 41 36 55 56 49 58 116 162 134 107 119 128 143 149 151 139 135 142
106 92 116 145 125 102 72 72 72 117 156 196 153 167 122 125 131 85 135 111 98 139 120 134 133 100 89 85 113 99 104 94 155 158 140 66 90 41 30 40 69 76 86 114 121 138 147 167 169 156 152 143 150 147
111 123 125 157 144 138 105 85 98 142 190 181 169 190 156 121 63 114 139 94 101 111 103 119 125 101 96 101 137 159 177 196 229 242 168 130 90 90 50 46 76 72 68 83 107 126 152 169 164 148 141 141 133 128
128 143 153 180 176 171 120 108 137 184 217 208 184 179 167 166 190 130 89 120 108 129 169 142 132 114 113 124 127 212 173 96 90 74 126 111 106 91 48 44 52 53 75 96 116 139 154 156 146 138 137 144 150 156
125 151 236 206 228 191 148 181 297 247 305 277 288 274 160 161 147 156 110 110 131 179 192 158 137 140 104 138 135 85 111 113 155 112 121 117 84 61 47 42 54 59 85 117 132 142 151 145 130 124 143 137 136 126
175 270 195 253 291 228 210 389 431 348 269 321 339 268 167 131 110 169 170 126 166 240 187 178 145 95 180 150 127 146 131 124 127 102 78 59 16 0 16 62 90 142 130 129 140 149 155 164 176 174 143 159 135 120
272 267 194 283 379 321 462 396 381 353 317 362 283 190 214 158 168 181 184 235 293 215 244 210 212 220 171 184 194 203 77 62 90 92 58 8 -11 6 45 71 112 118 138 156 175 204 229 210 162 138 154 195 158 128
164 273 199 334 575 695 587 485 483 390 287 338 323 240 244 154 155 180 195 200 279 286 303 278 224 243 243 305 240 193 150 134 126 120 102 79 78 45 9 42 103 134 160 197 232 227 229 177 142 172 157 193 182 113
88 205 237 515 625 580 609 536 498 435 212 229 322 283 296 236 187 219 252 267 337 338 361 409 415 293 269 235 208 175 152 142 169 141 102 139 85 34 20 56 117 163 220 251 260 249 242 197 170 182 159 169 211 136
194 282 373 714 616 471 428 450 505 425 366 263 201 273 273 276 271 273 295 347 386 459 427 431 340 260 346 314 286 244 171 193 222 235 187 105 60 94 85 61 116 180 256 273 275 226 192 169 170 162 165 196 172 152
246 473 769 631 392 432 430 360 388 404 388 361 370 423 311 298 278 268 303 333 410 437 421 362 332 218 169 145 191 231 188 207 213 194 182 204 156 159 168 181 213 230 260 295 283 235 183 176 179 188 198 160 188 144
521 732 738 595 392 333 295 409 439 359 329 249 346 324 310 279 250 291 249 253 318 369 350 387 336 320 278 196 199 188 195 226 235 249 224 261 270 249 233 228 247 327 301 261 260 246 201 182 167 201 179 172 195 151
499 588 532 425 437 381 327 424 431 407 406 409 394 413 364 366 364 328 291 320 336 226 226 270 318 261 264 267 190 139 158 273 259 269 333 377 339 305 298 268 272 282 249 283 289 270 245 209 190 201 165 183 188 155
478 423 393 524 543 476 417 439 506 458 407 465 503 503 384 343 304 346 330 261 241 182 234 245 292 285 248 205 184 173 210 326 317 295 291 359 335 407 380 321 265 265 310 339 304 271 243 229 220 217 152 193 198 153
276 325 362 314 460 430 427 407 392 432 464 487 397 451 438 390 309 220 186 150 101 91 175 216 215 229 204 198 178 201 231 306 323 292 216 300 316 300 294 337 309 249 216 240 296 272 237 227 199 175 127 181 156 166
241 308 408 448 417 462 474 419 405 435 423 412 418 499 382 275 208 204 128 125 167 128 134 203 210 195 173 203 261 275 328 309 286 239 213 203 208 241 274 267 242 178 244 244 221 221 216 207 192 125 168 207 166 166
253 260 290 476 560 523 419 444 429 402 419 373 398 427 284 216 143 159 41 53 72 139 131 164 206 222 240 261 296 309 340 361 370 317 264 198 174 164 157 203 203 163 278 280 230 196 212 203 180 162 214 202 159 165
216 295 433 413 457 400 349 327 333 355 401 430 401 388 362 346 256 144 130 164 205 214 165 168 180 247 264 275 295 310 341 372 358 318 242 196 206 120 155 196 222 237 255 247 181 195 189 183 170 210 222 188 175 196
294 331 362 343 353 312 315 301 277 316 323 325 333 309 286 218 196 237 271 304 260 191 154 182 225 283 266 306 299 297 258 276 279 305 258 183 156 161 204 308 275 284 230 229 254 207 151 212 252 304 268 210 193 177
315 412 374 318 291 311 364 399 390 344 325 254 246 184 154 187 199 203 221 212 200 219 213 195 225 270 310 307 277 277 230 221 190 175 189 206 183 209 304 324 230 158 240 225 239 186 179 192 236 260 203 175 154 161
378 347 356 330 294 363 368 337 285 261 270 237 209 219 241 210 174 180 176 239 244 232 185 217 241 217 254 252 269 257 213 215 221 214 228 232 208 227 299 251 209 165 195 236 216 152 157 233 241 202 163 161 159 152
438 417 403 325 268 230 282 271 242 208 221 208 211 194 198 188 161 183 199 151 202 193 207 242 244 271 239 204 185 203 206 184 201 189 176 217 211 257 232 215 218 171 193 228 178 160 216 247 228 173 160 162 155 130

GFSWCAN_con_3kmhel_093.txt.gz
Helicity
46 25 33 19 35 33 39 15 28 30 24 4 5 62 119 129 2 -48 -27 -46 -54 -22 -21 -15 -24 -28 -27 -22 2 -5 1 5 7 31 38 39 43 35 30 44 33 33 27 35 29 46 24 53 66 52 35 40 37 45
41 28 34 46 33 32 31 14 24 38 43 31 18 24 71 130 91 -29 -40 -39 -50 -53 -36 -40 -34 -35 -27 -35 -28 -27 -1 -16 -0 1 27 34 61 58 51 39 22 26 40 24 52 27 -3 17 33 29 42 48 49 61
51 37 40 57 43 28 31 29 -4 50 46 56 38 20 41 75 90 36 -1 3 -25 -16 -42 -31 -18 -21 -28 -19 3 -1 -10 -2 2 1 4 4 27 42 44 45 51 30 62 66 27 20 27 44 48 63 80 72 84 86
56 64 48 55 48 39 29 29 27 14 57 45 69 40 44 66 76 59 62 60 83 70 30 10 1 -1 15 59 41 34 65 52 63 65 86 105 106 112 98 99 162 114 129 100 74 21 30 35 81 93 113 118 124 132
53 68 77 50 47 48 38 32 33 27 41 48 57 56 60 58 56 53 55 55 48 68 29 36 110 122 140 134 96 90 95 125 124 124 136 122 159 158 167 173 200 250 114 165 92 53 88 40 49 126 149 126 124 149
67 64 58 57 56 51 40 44 33 37 37 61 61 68 62 62 56 61 51 81 71 63 61 32 53 106 135 129 109 120 124 124 131 123 101 121 156 128 108 162 146 85 107 128 101 86 96 82 84 106 115 128 145 153
59 73 54 61 61 63 46 50 39 32 34 59 82 78 74 47 88 97 87 57 56 56 73 52 51 37 64 85 80 111 136 141 140 125 142 176 174 176 211 267 240 77 67 74 103 127 107 101 80 112 137 160 172 183
47 68 85 79 67 76 57 53 50 35 43 57 79 91 85 76 103 110 104 96 81 92 102 89 68 66 69 90 89 95 121 146 153 156 194 170 167 172 122 87 46 61 71 79 109 124 100 108 162 170 189 209 210 188
76 56 86 101 74 87 81 56 54 43 52 68 80 107 105 112 101 95 97 132 128 106 77 117 86 18 70 80 83 81 85 89 120 119 128 122 176 94 58 97 82 83 92 82 126 129 106 100 122 153 186 182 186 168
77 70 74 97 84 97 93 82 66 56 67 86 131 133 73 77 108 104 120 136 175 192 233 147 205 134 116 112 70 59 77 78 93 77 103 96 117 44 -24 46 80 66 83 170 187 143 123 120 122 129 122 137 142 149
74 82 85 101 105 118 104 87 82 84 116 137 109 121 114 72 90 120 120 194 223 255 229 190 190 255 156 148 113 88 99 101 79 89 104 110 88 104 73 60 66 64 73 152 139 113 99 103 120 129 129 128 142 152
90 60 85 106 123 132 130 98 88 142 162 107 108 117 116 131 130 142 137 155 154 147 232 206 129 162 116 131 142 117 137 147 104 163 218 209 158 53 62 49 42 53 69 98 91 82 88 90 112 137 146 151 146 148
108 95 72 103 139 136 158 126 108 184 203 188 180 160 131 152 201 137 109 97 73 87 128 166 182 133 130 122 156 137 143 127 155 180 180 117 90 96 45 49 20 60 83 79 49 55 89 122 152 180 189 174 176 171
86 90 80 120 156 138 177 158 190 216 272 290 233 211 172 182 151 176 165 98 99 105 127 178 228 181 148 158 152 163 158 148 151 124 73 98 106 77 59 49 13 40 80 102 93 89 112 144 169 188 190 202 191 152
90 85 105 154 168 166 191 164 218 320 385 346 288 223 204 236 181 110 116 159 153 150 194 177 179 161 175 162 118 158 123 76 69 44 59 92 96 82 64 48 33 46 70 92 116 146 162 193 210 215 204 184 153 159
64 71 167 135 177 215 213 177 344 371 420 394 326 320 272 200 146 127 147 158 149 162 188 173 158 152 158 159 153 97 141 82 84 86 89 129 114 78 50 31 11 47 78 97 133 155 182 185 189 196 204 173 155 152
44 65 20 106 222 285 235 489 458 434 317 309 285 359 300 203 155 152 148 137 168 246 211 166 175 141 183 182 145 140 99 147 81 46 96 117 101 57 22 6 11 41 77 116 133 153 166 185 221 231 208 186 167 147
59 50 2 102 305 342 583 545 450 426 311 276 274 286 287 185 188 168 150 234 279 250 222 216 194 245 231 152 165 129 23 28 46 73 113 113 72 14 14 20 36 55 75 104 132 170 215 240 232 199 230 233 217 171
55 35 19 122 424 631 544 506 558 489 293 256 309 314 256 203 209 213 195 197 339 310 322 308 282 279 231 215 147 121 91 98 124 106 83 83 66 18 50 81 58 52 73 136 204 224 225 225 215 218 215 233 198 164
35 19 8 261 615 439 442 472 541 567 277 221 287 318 301 230 207 262 265 241 323 313 348 418 407 371 241 128 52 70 86 104 134 156 145 108 40 53 93 114 98 81 106 138 201 220 275 271 231 232 234 212 209 172
48 58 29 503 655 486 312 281 384 478 427 272 154 268 274 299 290 309 341 347 324 406 412 401 331 256 254 213 156 150 170 177 166 163 138 75 46 135 171 196 184 197 206 210 241 266 240 261 253 254 234 201 189 169
80 166 279 543 434 392 362 261 300 322 410 352 350 303 281 249 249 279 357 367 378 396 446 333 287 221 202 297 346 318 233 174 168 167 131 141 171 202 230 238 307 299 290 284 322 304 306 278 302 294 256 218 191 177
244 312 313 523 493 422 323 408 368 296 315 227 281 299 295 272 259 308 275 304 351 382 336 307 276 276 242 231 298 289 264 237 215 214 199 217 221 233 282 290 312 324 320 294 331 319 332 267 277 303 263 239 216 174
184 216 252 269 476 389 357 410 384 309 331 331 290 300 287 316 356 371 295 285 268 280 257 226 280 220 198 252 234 236 205 281 223 172 188 211 235 227 272 275 297 294 303 314 337 333 351 343 316 294 292 250 198 184
114 119 149 222 393 403 500 417 409 376 289 324 341 293 236 253 312 351 274 205 237 281 261 289 299 279 268 207 177 187 172 241 222 191 163 264 205 214 197 207 212 213 314 354 302 286 336 347 340 314 272 227 194 189
118 113 106 88 273 369 376 364 378 362 329 367 288 316 347 339 302 216 160 152 228 192 245 265 267 271 224 213 172 148 145 225 241 194 120 197 209 199 172 198 174 153 232 253 298 295 309 318 290 265 222 167 148 196
104 130 160 287 310 304 363 425 442 397 322 343 250 345 311 213 144 166 124 151 208 255 193 181 243 206 148 162 154 123 172 192 168 148 153 149 174 177 201 190 162 140 186 242 286 298 291 277 235 222 196 192 180 214
85 69 142 236 287 325 294 373 434 381 361 306 292 292 140 141 105 136 97 117 59 72 117 183 193 132 145 124 152 185 195 201 218 211 182 158 152 145 133 160 173 151 185 230 265 260 256 254 254 213 198 206 230 229
97 133 219 233 276 244 266 254 298 318 346 397 345 327 310 314 292 251 200 165 91 91 127 132 124 175 172 189 204 188 214 241 244 207 160 143 148 125 191 204 238 276 263 240 197 220 245 237 206 194 216 219 216 265
137 213 225 226 272 250 245 245 245 299 344 357 349 308 269 270 213 190 165 163 157 128 114 162 225 219 181 186 160 187 196 232 243 238 192 138 109 140 245 266 267 255 268 317 341 305 260 250 230 252 251 257 268 255
272 310 257 256 256 238 257 277 280 292 293 263 266 197 175 205 207 166 181 180 187 211 210 216 226 210 203 196 202 198 157 193 192 173 208 212 158 182 223 232 241 271 309 336 384 300 220 227 218 228 222 208 187 194
274 260 247 195 236 255 261 232 206 208 254 271 259 246 224 189 154 141 172 239 264 240 185 203 226 180 198 204 219 222 193 158 175 186 254 255 230 230 237 234 282 329 343 302 237 204 208 215 219 180 177 190 184 161
248 269 316 276 206 199 233 259 230 204 229 217 211 189 207 209 192 187 196 190 218 233 223 224 193 182 202 198 183 167 160 180 149 148 142 198 244 270 247 261 303 292 262 204 202 205 190 194 195 183 192 190 164 158

GFSWCAN_con_3kmhel_096.txt.gz
Helicity
44 57 49 34 50 61 54 32 -10 -46 19 31 33 20 39 66 56 -42 -8 -39 -42 -24 -1 13 26 20 5 6 29 4 2 3 3 14 33 33 44 28 26 42 34 34 38 49 50 60 27 51 70 62 41 38 40 39
38 42 43 36 47 61 55 44 28 -8 -49 33 39 33 34 48 74 67 23 3 -54 -46 -35 -28 -16 -24 -11 -7 21 24 37 22 34 32 40 37 59 69 79 64 59 59 86 91 118 85 68 63 77 85 90 77 69 75
33 47 45 44 50 61 66 52 40 25 9 -27 47 35 29 48 56 53 75 83 96 45 -38 -17 8 -15 -2 5 30 61 46 61 73 71 85 88 70 120 100 81 105 62 101 120 98 46 61 78 77 89 111 88 84 89
29 38 60 65 66 57 66 67 54 40 29 15 -5 40 40 42 49 39 53 54 87 93 80 50 83 68 82 88 99 103 97 122 141 128 116 128 128 119 103 88 156 133 172 144 125 73 64 64 98 98 131 127 136 138
48 39 49 62 59 60 70 69 52 54 40 43 24 14 35 56 39 39 42 52 62 80 70 45 64 96 142 144 123 131 144 140 130 137 161 144 162 149 183 176 196 203 164 230 154 70 95 71 67 98 145 158 150 176
67 55 56 57 55 51 74 79 64 51 49 46 70 62 39 58 72 77 78 75 78 76 80 18 52 88 126 150 123 83 90 116 130 130 108 140 208 148 126 167 150 114 135 150 166 125 98 78 70 81 98 116 140 142
70 45 55 66 55 47 58 87 81 56 51 48 64 98 79 76 87 109 104 65 53 68 68 -41 16 53 73 90 109 125 130 106 115 126 149 182 199 189 226 214 284 176 117 96 115 128 83 111 99 110 113 123 144 167
58 58 29 57 71 61 60 84 84 68 55 56 60 86 106 86 86 101 100 111 107 116 105 74 57 83 108 122 107 112 123 132 125 147 186 142 146 190 94 119 72 70 65 77 93 123 127 104 110 118 130 160 169 162
38 53 42 51 68 81 74 90 96 81 69 67 80 103 119 116 88 85 83 118 139 162 211 224 189 94 148 142 132 115 125 63 134 157 143 128 157 111 62 108 86 107 114 86 115 124 157 136 99 103 116 142 159 152
54 25 62 60 69 90 94 102 113 111 87 112 129 112 61 76 81 96 116 118 140 197 316 322 325 256 214 185 183 172 116 109 147 106 147 137 132 117 44 75 100 88 72 117 155 118 143 136 170 151 117 126 135 156
63 36 31 65 65 91 119 128 136 172 190 194 150 124 125 100 80 105 113 145 141 147 189 244 296 294 236 245 209 142 195 186 210 170 166 153 148 83 97 99 84 67 78 97 124 74 134 145 161 129 107 125 149 168
63 57 25 44 69 78 124 140 152 260 231 143 163 148 124 138 144 138 180 182 132 101 150 126 114 208 200 207 199 140 245 265 253 254 242 220 139 100 94 59 56 54 30 50 91 55 38 53 75 120 140 158 170 180
60 63 49 38 64 76 129 150 177 275 306 291 267 243 171 165 234 265 216 141 169 128 70 104 128 146 156 158 175 156 190 243 242 234 243 180 95 66 56 60 40 26 17 49 62 29 28 44 75 108 144 170 199 212
48 43 74 30 31 87 179 170 221 296 323 307 264 278 194 185 178 209 239 223 245 207 124 155 180 137 126 133 132 156 154 165 184 181 125 49 57 70 61 49 33 27 29 51 62 66 72 103 120 144 164 191 204 187
36 36 54 65 50 54 186 201 266 418 395 377 310 247 202 273 321 213 154 142 118 146 195 219 216 192 180 171 118 137 137 96 65 44 60 52 80 92 80 63 36 35 60 66 83 100 122 144 164 195 205 208 205 207
56 50 31 44 44 65 192 282 463 466 457 414 358 312 285 252 174 205 197 164 134 152 254 255 223 224 190 233 226 112 139 92 55 82 45 83 97 97 64 38 10 1 17 25 53 101 143 161 179 211 227 204 199 206
56 62 17 31 15 58 245 575 563 468 350 449 251 316 345 315 203 185 234 176 168 244 259 224 259 228 271 256 195 163 175 115 103 60 40 43 71 67 27 -2 -20 -9 21 55 85 114 134 176 248 275 235 196 203 195
63 68 15 17 18 119 396 583 472 452 468 381 270 262 333 331 284 220 184 222 275 231 240 240 247 324 375 330 268 134 118 114 110 60 44 61 64 59 32 -2 -41 -25 8 32 69 111 177 235 249 213 205 260 251 235
73 70 44 32 75 238 307 459 510 422 366 354 306 264 276 293 285 256 225 215 307 280 278 242 230 330 379 339 226 182 125 106 110 98 105 113 94 81 82 62 2 -29 17 85 120 143 180 211 240 251 269 319 260 250
64 58 55 72 161 244 211 252 437 516 297 264 235 302 314 250 264 303 294 276 354 350 269 330 386 401 290 223 203 168 131 73 95 90 112 121 108 109 143 150 101 73 130 164 187 193 241 237 257 290 313 316 307 248
69 73 62 99 161 194 112 171 205 282 299 253 157 180 227 317 332 360 424 432 383 369 349 388 351 237 235 206 199 205 195 233 246 214 202 181 172 178 181 155 138 200 266 283 290 263 270 277 285 336 353 316 257 272
44 83 113 183 156 120 166 175 236 297 290 259 265 233 208 278 242 309 384 428 413 370 379 352 345 285 241 210 243 307 268 249 245 291 252 255 231 196 184 179 211 234 268 279 301 278 270 284 351 337 349 304 300 301
100 132 114 135 122 131 162 191 314 362 262 186 230 238 240 255 282 378 321 314 322 324 278 316 319 310 268 225 247 220 239 225 218 276 263 256 258 226 201 181 240 228 209 207 269 263 267 276 253 301 324 362 369 310
109 77 70 77 121 112 184 197 293 350 320 300 286 235 170 156 239 275 284 306 285 265 282 278 305 268 242 206 223 237 218 272 265 225 213 202 195 166 180 160 187 205 199 201 252 255 278 277 244 307 355 381 318 283
97 84 115 313 227 177 306 277 223 297 285 336 348 265 239 148 122 216 218 185 208 224 236 285 345 350 343 267 193 181 205 265 276 220 177 212 165 154 143 151 159 175 224 240 266 262 246 274 307 332 339 313 279 251
119 46 49 92 195 139 145 216 217 277 365 364 277 268 309 248 180 118 112 96 154 184 190 223 205 246 276 307 278 255 239 307 274 209 133 181 174 146 112 120 136 137 178 203 232 233 256 259 305 295 250 194 185 236
105 125 202 243 220 212 188 228 277 244 224 242 247 301 218 183 112 138 105 81 138 215 245 239 264 271 231 188 215 188 197 199 193 131 127 103 113 121 143 159 173 137 126 146 194 228 247 272 250 220 206 202 188 183
182 150 172 201 243 285 234 208 206 225 253 242 230 287 214 198 186 141 11 42 32 39 105 93 114 148 174 162 181 178 159 165 168 136 108 75 84 105 107 152 154 123 125 130 160 214 223 227 226 236 231 208 192 166
137 110 157 191 253 191 175 170 177 144 228 320 244 235 261 252 190 151 139 81 89 72 71 77 67 123 190 195 175 189 171 188 196 160 116 107 124 102 103 131 133 156 161 146 90 131 212 246 234 228 231 222 199 187
174 173 200 199 232 190 162 135 156 172 253 255 233 191 188 217 200 180 150 135 121 103 99 74 62 70 147 172 152 142 120 135 158 169 141 141 132 98 94 91 120 150 169 180 185 170 209 281 254 315 320 261 206 205
254 268 241 191 145 97 157 190 158 142 198 206 249 197 119 146 160 158 193 195 173 161 142 119 108 90 161 180 189 175 100 78 81 78 185 192 154 129 90 81 127 167 184 199 223 251 310 306 251 231 218 173 160 201
312 253 256 198 174 184 197 159 129 64 111 182 194 223 196 179 162 172 191 240 237 209 163 182 206 164 156 171 197 181 176 165 98 115 174 215 198 152 148 159 186 198 205 206 265 300 253 224 209 163 138 162 179 182
240 233 222 201 162 131 112 131 108 104 146 195 219 253 237 199 137 142 193 210 230 212 212 236 220 202 225 228 236 199 161 130 107 97 78 87 124 165 198 204 225 222 213 267 300 248 197 185 154 145 161 183 192 200

GFSWCAN_con_3kmhel_102.txt.gz
Helicity
35 12 10 -2 21 8 -35 -39 -32 -33 -14 -11 33 35 32 29 41 37 59 72 14 -5 -18 21 34 49 45 54 69 40 34 46 55 67 63 59 74 60 62 77 108 134 136 136 147 142 71 130 178 110 103 72 56 65
52 22 23 12 14 30 22 -19 -30 -24 -28 -21 -9 42 41 41 37 24 62 84 103 49 21 32 12 22 53 77 103 112 101 91 74 78 67 72 104 123 127 99 69 98 125 140 140 139 125 122 125 102 117 94 106 100
22 30 28 35 40 34 43 36 6 -30 -24 -13 -10 2 49 59 53 45 35 46 64 81 33 42 34 71 72 77 107 104 100 132 130 127 99 97 89 126 110 114 142 106 142 225 129 76 76 121 105 102 104 101 116 99
41 31 18 37 59 57 40 58 53 24 -9 -14 -10 0 9 38 67 56 54 54 58 80 32 26 72 55 63 80 94 112 126 166 172 147 135 152 161 124 136 121 165 173 232 198 190 88 88 89 106 65 52 49 70 124
74 50 42 44 44 64 58 42 60 66 40 28 4 6 23 28 36 72 74 71 73 82 72 53 89 139 141 146 157 160 141 141 146 144 155 142 171 118 163 172 264 264 246 261 200 87 95 112 122 81 53 51 52 73
99 100 66 69 73 73 77 69 59 67 61 51 63 27 31 35 52 61 72 76 79 115 106 69 113 117 148 204 219 197 206 186 161 130 109 156 212 146 70 167 202 160 109 85 118 110 112 102 85 68 40 26 49 70
131 125 130 85 87 89 77 72 67 53 57 56 56 54 54 57 83 117 126 97 99 89 90 82 100 163 139 122 138 146 167 193 193 194 195 222 216 174 212 251 208 89 62 75 82 121 77 98 74 87 77 84 80 108
125 127 126 123 98 91 87 71 77 65 58 48 57 65 57 84 78 83 106 139 125 119 124 147 170 162 190 213 201 188 182 193 197 234 248 241 224 299 322 249 118 89 61 46 47 94 89 89 68 78 98 95 93 103
114 104 110 96 95 80 83 89 52 66 108 92 77 92 108 100 96 113 124 167 167 195 237 272 270 132 133 149 189 204 185 179 228 275 279 267 349 442 304 78 57 52 69 96 118 126 109 65 52 70 95 100 93 89
101 99 97 89 68 64 50 76 47 97 147 141 130 90 86 74 90 77 101 152 217 278 358 325 360 324 266 201 178 179 193 206 220 236 254 272 411 389 235 177 123 110 186 167 139 119 125 97 78 75 83 75 77 82
106 111 99 92 89 68 47 50 93 194 236 190 137 147 153 135 95 78 96 184 190 226 179 186 220 309 226 250 216 132 176 181 145 175 197 237 266 141 80 71 65 41 59 106 112 97 101 93 90 78 74 66 66 79
77 89 95 96 95 85 58 42 62 262 187 181 159 197 159 110 134 177 298 323 305 199 168 127 134 168 223 183 201 182 197 198 156 173 139 144 32 4 41 36 30 42 54 58 58 53 54 53 36 52 62 58 70 97
70 72 76 88 82 71 68 51 55 240 348 349 195 143 101 123 276 268 306 313 88 86 100 135 149 186 191 160 202 180 195 204 218 218 166 138 61 53 39 12 7 26 40 45 45 36 31 20 36 61 65 73 94 119
65 68 77 83 86 70 62 67 68 290 303 203 144 218 153 243 246 241 220 204 199 162 105 110 159 143 183 171 200 188 213 248 235 257 121 89 69 22 30 37 37 38 35 33 23 25 34 43 54 72 82 95 121 127
69 69 74 80 70 70 32 17 104 260 257 219 186 219 186 211 269 242 172 132 105 94 156 183 195 158 154 175 165 238 215 198 147 69 42 48 61 67 55 63 42 24 17 14 13 -2 2 30 54 64 79 97 121 148
79 89 78 48 55 68 51 55 116 221 239 229 236 287 221 202 177 187 163 148 129 151 213 210 191 185 188 231 223 197 272 223 178 73 31 78 89 63 75 55 36 34 25 19 15 1 1 28 53 67 102 119 141 180
88 114 74 74 100 103 72 132 181 231 216 286 368 374 288 206 123 139 184 229 236 236 221 217 207 159 285 250 284 304 347 241 106 76 95 100 38 59 61 57 59 58 55 64 79 37 27 41 81 100 116 141 161 176
140 121 76 75 88 86 84 123 104 98 167 201 279 203 333 292 235 236 210 313 344 285 259 241 264 297 320 216 269 219 134 147 120 68 83 108 67 33 36 57 107 107 122 114 92 53 25 46 92 85 113 165 189 199
104 92 57 57 69 87 110 118 173 170 123 106 147 163 145 181 223 247 284 212 363 417 386 324 232 231 283 282 212 168 151 118 94 55 63 110 129 88 98 119 140 145 144 158 173 154 124 134 166 160 170 184 191 234
36 38 40 36 71 80 120 107 206 183 157 93 107 129 131 115 161 223 288 290 360 400 382 417 353 382 334 192 148 111 114 113 154 123 97 74 44 118 205 205 207 173 166 155 212 225 222 208 238 198 223 228 246 248
63 61 52 57 87 114 136 113 157 141 171 140 126 104 83 131 167 175 206 295 373 435 363 376 358 334 333 334 286 238 193 215 223 210 112 64 68 145 185 214 200 200 223 220 238 227 237 279 222 218 231 246 253 258
103 41 86 92 112 95 127 114 146 137 202 248 173 135 53 37 112 191 243 296 333 308 340 298 313 307 271 271 302 299 259 225 207 204 169 158 164 200 234 239 256 250 268 254 230 207 177 218 213 216 218 211 243 268
94 87 97 81 68 101 132 163 170 161 146 96 82 93 77 68 46 64 73 152 247 320 362 351 333 311 307 283 293 258 225 200 163 154 154 151 149 176 204 211 205 234 221 199 224 218 183 157 148 179 205 220 265 271
102 128 86 69 74 133 166 171 170 170 188 187 130 119 148 89 111 90 40 89 118 180 275 309 356 352 290 226 229 257 283 261 235 206 193 170 161 169 225 206 195 211 229 182 191 198 179 181 168 187 216 228 242 256
139 117 110 62 89 110 179 192 186 182 188 195 232 218 182 136 88 112 129 133 115 198 214 289 299 310 332 330 271 282 281 298 343 317 269 267 242 189 153 163 174 173 237 232 190 195 202 189 180 198 209 216 215 226
152 130 150 100 150 152 146 155 144 227 221 200 152 207 216 187 159 118 105 162 201 150 173 233 203 167 225 267 219 204 222 214 263 207 215 238 233 210 167 139 120 129 209 204 194 185 166 171 192 204 200 169 154 207
202 172 136 147 118 91 181 194 185 155 156 168 159 162 142 124 120 163 189 193 144 123 70 40 48 70 109 47 55 189 278 278 263 213 187 165 156 185 177 141 134 149 181 161 141 141 159 179 188 198 182 176 179 197
130 133 100 56 137 200 204 239 176 110 101 133 164 172 115 122 142 140 79 65 41 21 -5 -12 1 9 16 62 27 24 79 142 164 126 117 131 110 119 109 108 124 122 124 127 145 164 179 184 188 180 181 179 170 182
186 178 152 75 135 87 116 154 158 156 156 187 90 87 135 161 145 98 57 30 46 55 34 42 56 96 83 77 73 109 120 142 142 109 122 155 131 68 101 100 110 138 152 149 123 140 152 161 164 158 161 172 168 195
229 221 158 97 62 132 174 182 158 149 194 221 231 230 212 173 139 138 105 96 82 53 75 88 92 111 133 81 39 75 155 169 151 191 96 129 144 111 87 108 114 129 152 152 168 168 148 172 178 202 215 218 206 232
248 240 258 157 137 113 203 259 298 279 285 212 206 174 100 105 91 128 163 131 132 131 116 81 51 83 134 121 166 120 45 182 166 121 118 190 161 109 102 106 118 133 154 178 185 181 194 201 200 189 192 198 196 238
261 231 241 187 160 229 238 197 230 245 241 252 244 302 259 204 38 -27 52 142 144 121 129 197 229 77 177 251 182 156 100 160 186 175 180 180 227 216 169 165 145 156 165 184 187 195 217 200 196 176 174 197 215 204
196 261 287 267 245 196 162 200 186 167 202 224 223 245 206 162 1 48 114 117 170 218 256 233 224 229 210 247 252 185 165 190 200 193 162 130 160 290 285 217 183 205 198 202 214 225 212 188 186 167 174 207 194 163

GFSWCAN_con_3kmhel_105.txt.gz
Helicity
68 64 42 29 22 20 1 -17 -26 -20 -1 8 16 19 52 65 56 28 29 48 44 1 10 51 71 76 75 70 66 78 18 30 16 35 45 48 62 71 63 89 117 131 99 130 112 135 73 169 175 123 136 140 95 35
68 47 39 23 24 24 20 5 2 -13 -16 -2 2 18 19 38 83 67 49 34 30 41 60 81 53 43 100 137 153 152 129 120 104 78 53 46 73 100 86 72 137 77 100 129 124 112 176 141 120 117 170 135 75 57
81 31 16 22 22 21 18 12 18 23 7 2 0 9 22 30 43 59 64 74 42 -22 -18 42 53 85 86 108 126 164 166 200 157 164 153 128 63 94 64 55 77 123 139 213 161 85 66 128 101 99 128 98 75 95
100 45 28 29 37 23 16 4 8 28 35 26 16 18 21 25 40 48 40 64 52 48 20 16 38 44 91 101 99 122 176 200 226 207 160 131 123 145 87 46 119 150 230 110 120 86 8 44 97 99 71 103 98 68
115 77 51 46 41 38 34 16 11 25 39 43 43 28 24 26 24 24 41 71 98 88 82 37 67 149 179 167 141 130 136 144 160 184 197 185 207 208 134 137 212 258 196 177 131 78 44 95 147 131 125 135 118 91
114 85 68 76 69 56 57 57 39 57 58 53 46 45 36 37 30 15 74 65 45 60 62 20 92 93 119 128 145 171 196 187 188 193 197 210 337 222 188 259 145 77 48 40 122 170 136 129 122 108 111 86 77 83
143 127 125 115 103 90 83 95 81 62 69 76 72 61 45 34 54 74 95 98 65 59 69 41 74 67 60 89 110 137 167 185 207 225 279 296 293 315 404 442 336 189 137 116 97 107 116 100 116 159 133 100 104 93
178 164 143 130 135 110 100 104 111 80 67 90 106 85 54 56 50 62 88 107 119 115 133 109 126 110 111 158 161 140 150 164 192 238 293 254 308 433 420 429 250 128 149 101 50 89 73 149 158 119 102 112 111 112
146 139 143 114 116 108 100 100 96 106 63 119 117 94 73 69 74 88 108 132 169 195 227 195 214 103 160 163 167 163 145 136 192 237 286 212 276 368 307 229 158 123 173 132 91 69 78 87 77 85 80 87 90 89
97 98 99 97 101 106 84 80 88 118 132 186 122 137 158 101 79 63 67 117 194 307 419 263 280 324 241 190 158 131 154 167 218 184 182 204 292 342 311 276 132 141 154 104 139 139 121 108 81 54 63 69 66 69
91 94 87 81 86 91 85 76 94 124 193 190 145 101 105 93 65 87 167 244 202 183 124 86 83 215 207 196 187 139 188 175 180 202 185 190 154 50 40 54 47 48 65 86 104 101 96 83 70 66 65 60 68 71
83 92 89 83 90 100 97 87 48 107 109 132 134 128 70 72 123 221 294 315 248 106 80 70 93 81 127 166 147 162 178 201 209 222 214 159 66 61 40 46 55 50 56 51 28 24 39 50 49 51 36 40 55 65
65 67 77 86 88 89 97 92 63 132 187 202 163 120 152 162 267 298 363 305 160 77 65 75 100 87 95 100 128 149 167 172 215 216 236 111 65 58 66 68 53 26 30 37 42 37 39 32 25 14 21 41 47 76
56 60 72 85 82 83 87 91 77 130 160 142 168 215 197 295 296 246 240 195 157 117 58 34 74 66 108 99 121 121 148 179 201 228 94 84 36 33 18 40 45 32 39 38 37 40 27 19 9 13 29 51 73 86
58 59 70 82 69 70 81 99 52 147 145 157 189 288 283 282 297 286 202 134 82 75 78 64 84 90 98 116 153 190 167 185 121 26 46 45 50 23 32 68 58 49 46 31 28 15 -5 0 8 9 33 59 80 104
62 79 79 53 54 86 120 121 125 149 154 178 205 338 308 287 263 240 204 170 151 151 160 176 154 97 120 174 214 173 239 157 102 64 68 109 50 33 77 98 72 69 54 34 35 41 23 36 50 43 44 79 117 122
60 124 56 40 85 124 122 158 165 181 157 249 285 261 194 166 157 129 144 171 198 199 197 156 150 122 204 186 225 216 225 202 95 106 74 15 39 73 60 84 123 99 69 47 50 42 66 94 69 44 6 35 91 128
138 112 38 36 79 106 149 165 206 224 265 255 245 191 215 162 155 176 225 207 207 226 257 197 230 279 202 146 140 147 106 89 70 66 98 65 72 51 52 168 211 170 116 90 91 107 149 152 121 72 58 93 118 139
93 82 32 24 66 117 164 176 250 343 289 298 262 233 244 197 140 130 166 156 215 298 270 318 212 164 177 199 157 224 223 181 151 117 138 88 88 54 44 68 45 -10 50 131 193 224 202 173 158 146 137 184 196 180
30 37 43 29 71 125 190 226 205 271 315 289 224 196 197 150 118 112 117 191 273 331 327 380 366 354 287 196 210 236 203 182 157 112 81 80 108 119 139 133 97 31 48 147 164 132 209 212 215 236 240 235 241 213
74 71 54 67 125 132 173 176 247 234 216 215 209 183 184 184 151 152 175 202 273 304 299 283 301 232 206 201 211 235 233 244 241 198 162 107 69 79 57 36 60 103 134 158 169 170 187 242 208 228 219 224 227 209
113 87 125 136 163 159 181 181 214 172 169 140 91 100 162 160 152 165 189 217 242 188 235 189 184 204 252 238 228 214 220 193 166 176 183 179 120 78 76 79 126 131 148 187 203 214 197 195 203 238 263 216 194 250
115 134 167 169 144 173 215 186 183 155 173 166 140 139 146 162 154 166 157 165 211 218 227 249 211 188 202 151 123 130 174 200 220 224 179 126 88 82 120 120 153 175 171 180 191 192 183 151 189 201 212 201 223 219
122 153 180 181 193 207 186 178 189 163 192 182 185 190 196 162 141 143 165 161 169 163 174 191 233 134 125 163 219 195 177 161 148 152 182 184 164 157 171 134 149 200 208 170 160 175 187 205 200 209 215 207 201 199
114 116 173 221 231 204 184 187 171 195 261 201 191 208 220 191 146 134 149 110 141 164 153 155 163 203 216 223 203 138 142 133 141 169 149 158 154 139 151 173 158 161 178 176 179 176 178 191 201 206 212 194 188 187
115 78 128 135 187 217 216 221 198 156 146 179 169 174 185 188 186 169 141 159 158 147 138 156 162 114 129 159 124 129 117 66 79 117 132 145 137 112 91 76 62 94 164 159 148 151 161 185 178 173 170 149 145 200
170 149 151 165 206 250 225 223 209 166 168 206 184 155 201 196 179 185 148 118 102 142 165 116 109 75 54 61 96 76 47 95 151 64 33 162 268 214 186 155 108 141 172 150 138 128 128 140 131 138 155 170 176 191
202 177 159 169 196 206 176 188 153 91 114 150 162 111 151 186 149 131 82 64 22 16 34 69 104 108 107 131 119 96 109 110 111 58 75 48 125 138 162 191 178 153 157 104 81 98 103 110 127 149 162 175 175 186
231 243 224 185 271 221 168 181 161 197 120 159 173 133 156 180 172 96 100 134 175 120 75 58 39 87 86 86 86 132 166 184 132 100 31 26 -5 -2 46 130 131 132 115 111 72 88 98 110 121 132 149 163 182 192
253 291 270 237 231 235 241 218 196 182 246 207 183 175 149 135 131 166 140 117 107 107 80 46 22 41 51 54 47 54 137 186 195 133 79 40 18 84 151 89 122 124 134 141 148 138 108 132 148 171 186 206 208 225
258 294 249 234 215 226 228 234 236 198 186 198 249 247 170 107 37 98 164 169 143 116 92 48 27 55 67 48 137 137 53 56 73 70 42 24 36 167 141 143 178 175 155 169 180 174 164 155 151 143 153 171 172 189
285 281 297 261 225 196 236 179 174 165 130 169 192 239 219 192 102 2 137 137 99 97 80 118 116 64 102 164 187 232 179 135 133 133 52 57 49 125 192 203 238 274 220 198 180 192 197 188 152 136 140 158 169 173
336 320 335 281 229 223 216 229 153 126 170 185 175 163 137 134 -25 -29 132 203 206 181 145 150 192 235 212 164 128 105 122 150 59 34 52 61 92 165 272 278 271 292 283 248 168 212 221 182 144 142 149 166 187 201

GFSWCAN_con_3kmhel_108.txt.gz
Helicity
38 34 37 33 39 35 31 12 1 6 4 -3 6 12 24 25 51 20 28 44 55 5 -16 95 85 15 52 14 17 79 23 41 28 36 39 42 53 57 64 105 124 144 91 105 93 85 21 137 171 171 165 194 215 199
39 31 31 28 34 30 30 23 13 3 2 4 4 3 10 13 24 17 28 36 45 49 49 73 52 77 109 117 78 104 89 92 74 11 23 31 61 93 74 72 102 74 95 150 146 152 152 163 169 167 242 254 247 222
68 58 47 46 38 32 30 28 12 17 5 -0 -11 -3 11 13 19 24 23 36 40 21 17 65 51 102 115 79 144 145 95 134 120 127 70 54 75 54 119 124 137 145 100 208 174 156 66 214 211 197 222 237 229 238
93 77 63 51 44 37 35 39 19 14 17 11 7 6 3 4 10 17 15 37 37 41 18 14 42 80 43 87 139 188 200 176 136 135 144 143 189 129 154 102 134 270 272 242 160 134 26 -20 37 131 148 226 185 171
109 94 89 53 45 37 45 46 38 20 16 22 32 23 15 15 7 1 3 27 43 59 44 62 91 108 105 121 150 189 211 186 171 169 218 261 230 210 180 197 314 457 361 307 175 164 127 103 132 159 150 136 110 122
134 106 121 78 55 50 57 61 63 51 29 32 42 46 42 31 18 8 36 52 8 -11 20 1 88 127 85 74 106 166 183 217 245 234 205 195 285 247 213 342 369 346 208 171 205 138 161 173 124 107 116 97 94 107
145 114 101 76 63 69 82 101 98 94 75 36 64 59 66 56 51 65 75 86 51 39 49 36 45 85 51 75 95 110 175 198 216 221 264 278 332 293 331 459 473 316 223 186 131 141 128 154 135 88 99 97 117 100
153 122 117 111 103 110 107 98 88 82 99 64 81 74 67 74 66 89 121 107 120 96 97 74 81 118 89 115 123 102 123 160 156 202 272 256 232 351 359 445 225 92 44 115 180 133 143 144 136 143 136 129 108 83
186 150 137 146 144 142 123 104 98 78 76 75 124 88 81 78 77 81 82 94 129 185 179 206 140 44 92 108 133 108 116 131 198 276 264 206 189 320 270 217 189 136 141 167 207 209 94 75 83 99 99 100 107 82
134 118 120 133 133 131 126 135 111 84 77 132 131 108 82 98 44 34 47 134 193 293 399 248 294 303 177 111 67 33 35 44 113 134 183 228 185 224 133 111 81 101 140 172 187 129 121 101 85 80 98 93 101 98
106 95 90 93 98 103 120 120 77 87 101 118 149 131 122 78 49 79 123 196 168 140 49 37 80 139 102 176 140 86 147 108 203 171 172 205 67 68 32 56 49 56 54 86 104 105 105 95 65 51 69 73 67 61
84 85 85 87 89 100 130 138 18 74 75 95 99 108 98 91 122 144 238 259 184 78 59 71 67 52 44 58 71 108 185 215 223 186 194 137 -13 41 28 30 43 60 75 61 39 35 41 40 50 67 68 51 53 51
85 88 86 85 85 86 120 116 93 73 89 90 128 133 118 125 246 278 318 274 127 66 67 49 58 40 70 89 116 164 212 223 191 237 154 78 57 62 20 52 65 46 54 43 34 34 31 26 16 27 20 27 43 53
63 69 76 86 80 68 92 114 76 98 111 134 115 175 154 218 239 185 190 182 149 143 115 73 81 54 59 53 43 106 152 171 200 183 124 32 18 29 21 7 19 43 55 51 41 32 22 24 2 -9 -6 29 47 53
54 60 69 76 60 62 86 108 64 135 147 177 167 186 228 250 253 241 219 205 154 101 75 57 65 65 17 9 79 118 134 147 70 38 29 49 46 -10 -10 11 22 55 94 92 78 80 74 39 13 2 17 8 15 28
43 64 71 29 24 63 94 103 127 148 179 184 239 301 307 301 253 234 197 184 133 129 106 103 134 108 111 169 210 160 225 174 116 72 26 -13 -3 4 -27 -22 40 50 61 96 109 87 75 66 52 36 29 35 47 43
68 106 39 29 78 81 104 161 167 187 209 291 289 297 297 278 234 194 164 124 108 150 136 147 175 151 210 238 336 248 255 195 156 130 73 50 31 34 41 -1 -14 34 59 90 125 115 117 110 117 107 68 107 128 65
109 91 23 24 75 97 132 170 226 261 283 277 278 258 297 265 219 201 207 237 223 171 204 254 218 259 277 306 287 262 173 177 143 117 120 81 64 11 66 92 84 70 116 118 92 75 118 169 182 145 177 171 205 109
71 69 27 21 74 118 173 190 228 332 300 317 299 256 241 200 192 166 156 162 210 262 241 208 194 243 287 310 278 214 235 227 196 166 80 37 87 88 65 102 154 178 160 156 138 141 133 108 121 170 240 317 304 250
21 23 25 24 65 161 199 216 216 285 276 250 253 236 221 197 141 149 159 238 290 249 212 253 272 245 233 231 235 256 196 155 114 70 84 107 111 88 96 132 153 137 150 158 167 110 140 153 200 238 239 261 294 262
59 54 47 50 134 189 238 245 256 233 215 219 189 206 221 235 218 208 233 265 279 354 294 296 244 224 203 189 196 219 176 167 179 182 131 105 130 123 120 135 153 148 147 121 94 97 119 141 118 197 219 240 256 243
101 74 119 164 154 157 259 288 323 245 196 190 186 142 164 181 175 194 206 263 317 302 312 259 272 269 193 142 146 150 98 65 98 114 128 156 165 143 153 161 135 84 77 107 109 122 125 136 172 190 212 211 214 252
96 112 164 177 138 160 226 252 271 262 279 250 244 212 200 166 150 186 226 217 215 171 184 214 196 167 169 141 146 134 139 155 170 155 122 138 144 144 137 126 121 110 74 57 88 126 143 116 148 177 216 207 234 216
115 134 129 159 167 196 239 253 269 257 250 256 248 202 250 196 219 251 184 182 170 146 207 210 168 129 160 152 163 186 175 152 171 182 196 181 142 153 171 175 155 144 65 7 71 119 140 164 175 198 220 226 215 194
131 115 121 137 157 199 312 307 305 317 298 279 260 203 187 174 181 237 241 162 148 148 126 123 179 230 243 226 185 155 128 175 110 170 186 204 157 124 135 114 146 173 164 102 73 101 172 180 211 222 220 205 173 169
163 156 156 129 144 207 230 274 297 315 266 249 237 236 225 185 153 146 159 172 155 143 166 177 190 179 174 188 138 116 116 123 63 125 138 160 171 157 131 107 98 119 188 154 91 56 80 131 178 184 166 142 98 115
201 209 197 199 204 217 208 242 247 231 194 170 208 224 213 170 141 182 217 208 184 190 209 143 148 115 111 126 133 127 149 188 159 179 172 143 163 225 279 231 105 88 97 120 91 69 56 88 109 139 128 106 92 130
198 206 210 219 264 278 241 220 197 186 183 202 234 159 150 140 179 147 52 55 63 85 88 73 93 119 124 132 146 146 120 131 131 126 54 29 85 95 173 310 227 53 32 72 94 118 117 87 97 92 86 95 110 134
292 301 312 289 353 297 274 262 253 301 307 350 273 249 245 205 198 161 116 153 147 154 57 7 30 72 75 95 113 131 136 115 88 52 41 17 -6 8 83 125 99 135 104 77 56 96 79 83 87 89 89 100 106 138
266 374 352 334 318 311 312 385 316 282 286 283 263 204 178 176 191 162 140 112 119 149 127 124 112 95 71 47 46 13 81 161 180 163 100 -12 -40 -1 -1 12 87 170 156 117 134 156 97 129 136 164 155 163 155 139
348 375 332 282 260 280 328 294 276 250 289 322 327 280 191 141 57 146 142 67 79 143 137 118 96 136 145 101 103 61 7 35 94 132 135 -24 -8 17 50 34 70 179 168 174 198 213 182 147 144 133 125 128 110 114
376 368 375 329 308 274 338 286 250 260 216 223 230 249 207 168 -81 -97 -15 115 97 67 77 145 171 123 152 165 148 157 76 72 114 150 119 138 93 68 89 91 132 195 197 218 238 278 246 169 146 132 128 113 99 94
357 339 308 275 148 104 294 359 315 266 213 208 186 209 127 107 46 137 134 166 186 196 214 218 219 154 111 149 184 213 205 193 145 99 72 84 135 92 126 134 144 196 216 250 256 299 307 233 156 186 167 133 101 84

GFSWCAN_con_3kmhel_111.txt.gz
Helicity
69 60 59 47 41 33 24 33 12 17 20 18 18 21 15 8 26 21 21 39 44 20 15 47 65 79 79 80 27 53 -3 27 14 -35 -26 -16 -7 -4 10 53 74 111 94 97 106 103 -13 86 167 132 94 112 142 180
72 63 55 54 54 51 45 43 26 16 27 28 26 23 22 18 20 10 10 15 36 60 40 57 60 78 81 77 104 93 84 84 62 -58 -61 -45 14 -6 52 66 142 46 82 87 124 91 88 137 128 100 149 144 141 154
70 76 76 71 75 70 59 54 51 22 13 22 27 38 29 17 22 22 -12 -10 18 32 38 38 40 36 85 110 105 73 94 112 162 174 138 108 32 134 96 89 153 151 192 148 132 152 89 145 191 205 206 195 146 137
83 65 62 65 78 80 56 45 49 39 23 14 9 26 40 30 26 20 -4 1 10 1 29 8 35 74 95 95 69 132 152 154 185 206 179 188 225 199 241 218 285 332 344 325 255 167 114 100 99 105 101 137 135 124
83 70 71 79 84 108 72 48 46 47 35 26 21 18 23 26 17 11 -1 12 9 4 15 28 39 63 33 83 138 145 172 154 146 164 213 220 234 210 226 253 408 499 343 269 273 172 181 139 76 55 49 83 89 99
123 103 77 87 80 88 85 52 45 51 53 39 32 20 25 36 31 9 23 42 19 -17 9 -10 60 99 72 53 49 89 117 145 177 176 172 206 239 206 182 256 298 162 180 143 220 154 198 147 137 110 118 78 82 104
201 159 137 105 93 77 69 55 45 47 62 68 40 46 41 47 52 59 49 62 48 34 52 14 19 50 39 77 102 126 159 169 172 176 187 221 223 237 304 367 215 124 120 110 101 120 138 181 151 105 89 69 115 110
201 161 153 133 105 81 71 58 56 58 57 66 36 62 70 63 55 79 91 101 109 101 87 63 58 80 91 111 116 116 150 162 160 200 250 202 160 245 269 150 48 72 75 59 64 129 149 130 135 129 115 138 133 110
159 149 152 145 122 108 117 110 79 82 79 79 96 98 85 100 86 67 85 104 114 145 130 165 114 58 112 105 99 107 118 113 188 207 186 202 161 148 97 84 152 178 98 93 86 88 103 118 105 100 95 88 88 79
144 153 157 154 143 137 138 133 107 85 92 122 114 124 51 75 61 51 79 118 171 234 298 166 232 209 138 74 66 59 69 63 98 111 137 176 116 107 77 41 31 69 59 77 97 96 81 67 54 39 30 37 53 59
107 114 126 137 145 143 131 106 74 69 65 92 101 118 100 77 70 101 111 174 148 111 33 25 77 137 104 157 123 99 141 96 157 122 102 80 -29 51 48 66 59 23 45 62 56 75 73 70 71 57 45 40 39 43
79 85 91 99 117 124 134 147 25 82 92 93 98 104 94 105 108 134 227 211 124 82 70 60 57 58 43 23 63 65 148 162 181 181 154 70 12 38 58 61 24 28 42 56 50 50 45 42 40 41 31 19 17 21
73 73 75 79 97 108 111 116 86 53 59 85 120 129 117 139 276 279 220 160 72 86 109 126 139 87 59 80 108 142 154 144 123 188 114 64 54 99 71 39 -0 -25 -7 12 29 36 40 35 26 22 11 3 -4 7
61 65 70 71 68 81 89 95 79 78 108 124 124 198 177 250 246 137 114 62 60 117 121 105 132 115 72 100 86 158 112 158 216 175 86 26 19 41 33 -36 -45 -2 -18 -15 -0 28 48 54 46 28 11 13 33 24
47 57 65 49 39 69 81 88 68 112 129 136 139 189 240 206 173 116 91 119 117 106 116 109 88 69 83 106 60 151 233 289 198 131 91 -21 -36 -29 -12 -8 -37 -23 17 52 16 32 40 65 78 66 46 25 13 17
48 65 48 8 27 67 74 95 123 136 179 151 167 253 176 148 130 134 137 118 109 124 121 129 129 145 135 182 233 283 376 305 211 167 32 41 23 16 -4 -26 -32 -43 -9 33 76 63 60 90 115 126 115 79 64 78
57 76 10 51 70 54 61 160 172 184 152 195 185 211 230 211 183 173 137 104 118 163 125 125 125 78 216 215 347 354 379 301 288 108 59 27 23 -38 -32 -0 36 37 44 52 95 111 94 116 136 152 129 142 160 150
106 50 5 43 83 123 164 177 202 220 230 207 195 190 198 147 133 143 126 147 209 164 173 166 167 249 308 344 376 364 257 196 130 95 70 67 17 36 94 101 92 94 94 80 81 107 148 144 144 159 152 127 125 150
84 64 27 46 67 130 178 187 234 263 194 206 209 199 185 134 136 134 130 157 198 210 197 213 205 309 313 336 272 215 147 149 118 111 112 124 112 118 116 139 145 129 94 93 87 90 103 136 179 182 142 143 143 153
44 40 39 48 76 159 174 198 202 249 226 189 212 209 164 152 140 175 167 201 271 280 286 361 356 362 352 291 242 154 109 127 136 112 125 110 71 96 137 171 159 127 110 101 94 78 119 128 139 145 155 152 163 194
104 88 70 92 140 131 167 213 235 218 200 202 174 167 143 173 158 163 196 229 238 255 253 302 258 225 203 189 187 173 159 185 176 208 180 136 120 99 103 117 146 155 146 138 147 130 109 154 110 103 106 122 188 236
130 91 138 127 164 149 143 172 280 259 260 246 213 183 178 204 190 208 215 227 226 227 248 206 224 241 205 163 164 171 200 196 192 184 109 135 171 157 113 106 104 96 111 149 176 177 148 135 129 109 102 90 126 187
130 136 147 146 133 161 158 209 204 212 258 278 247 241 251 225 227 260 232 226 226 206 208 227 221 194 185 166 171 147 134 147 176 151 143 172 151 134 142 151 190 194 157 156 154 163 171 114 112 96 82 84 138 160
144 175 153 152 141 166 197 210 242 244 293 311 294 308 323 254 230 225 215 189 178 209 243 238 228 187 207 203 224 248 225 197 195 181 190 165 149 118 160 181 193 207 233 232 165 182 188 162 89 69 53 63 117 132
171 183 207 210 181 156 169 200 259 277 250 256 280 260 254 259 238 219 173 147 184 214 233 212 227 240 257 246 206 188 166 213 237 167 87 141 151 124 137 161 195 210 176 183 170 123 133 130 72 51 37 29 54 97
189 184 245 233 262 253 232 221 212 219 242 251 234 251 300 271 231 175 178 162 149 155 156 169 220 229 212 232 199 190 129 136 147 112 117 129 169 201 161 137 107 91 125 203 191 152 90 72 89 35 24 15 7 45
236 262 259 260 274 287 268 276 234 212 176 203 236 244 223 209 182 240 220 181 179 157 125 141 145 106 161 183 140 124 157 152 159 135 170 164 172 168 188 144 101 101 27 82 161 201 99 22 80 17 11 47 90 98
254 252 270 285 290 272 251 252 233 267 280 308 334 319 332 377 344 301 295 219 188 201 134 57 58 140 115 108 98 49 75 116 96 101 99 68 86 81 97 89 37 -8 -12 -0 46 124 172 111 34 30 -7 25 67 107
269 288 314 254 319 288 257 284 287 332 348 382 346 295 320 378 303 235 221 214 212 160 66 19 45 69 80 98 85 93 91 89 75 21 19 36 -2 4 84 62 61 36 26 -2 21 81 193 185 102 60 40 35 42 106
186 316 282 253 289 298 314 411 359 356 295 301 299 282 268 258 264 256 256 250 253 208 146 114 83 55 60 78 40 -16 34 104 165 193 126 48 -11 -27 -9 24 64 65 40 2 25 93 132 185 177 182 120 103 100 117
203 267 283 270 256 281 340 302 293 301 283 270 271 282 285 306 265 184 268 275 254 241 238 199 161 165 159 108 99 99 71 72 137 157 184 103 25 9 25 33 73 117 82 37 74 132 194 223 191 172 133 91 76 95
305 293 297 292 299 319 381 354 320 305 285 271 209 184 140 241 75 60 167 290 336 328 247 210 214 159 42 142 149 188 155 143 157 151 136 140 69 24 24 41 63 101 84 96 128 149 184 226 208 192 165 92 73 78
297 286 248 212 169 210 347 366 243 129 112 114 145 163 179 242 139 240 231 304 273 281 274 274 279 240 156 119 149 182 167 175 117 88 37 44 35 6 33 41 106 137 116 157 165 157 158 195 177 173 200 147 106 107

GFSWCAN_con_3kmhel_114.txt.gz
Helicity
71 64 62 64 59 39 17 20 26 39 40 49 48 40 29 30 31 5 -5 10 8 50 15 63 54 54 67 81 59 50 39 26 43 -26 -47 -51 -49 -45 -38 -29 -4 26 41 35 57 6 -81 78 99 44 55 58 63 61
86 84 72 70 65 52 38 39 31 31 28 45 49 52 38 31 38 21 12 10 17 29 5 36 34 54 78 76 79 96 69 78 64 78 50 53 -26 79 71 23 140 38 34 39 88 82 89 68 106 72 109 111 117 117
94 97 93 75 61 64 63 47 48 43 32 25 45 44 41 37 31 32 8 7 27 25 6 35 29 11 53 84 121 138 63 97 105 113 119 137 72 152 141 130 168 144 207 226 222 238 133 160 150 135 181 186 194 157
100 96 80 78 61 63 63 61 48 46 52 29 32 35 39 42 39 26 20 10 26 22 27 28 49 81 89 108 92 103 94 135 137 129 151 174 206 179 170 135 195 234 263 255 262 141 40 88 86 49 46 76 85 87
121 95 88 86 73 61 66 68 57 39 47 45 26 44 49 49 40 27 14 26 27 21 13 34 51 77 69 107 129 130 123 139 190 184 192 164 151 155 192 218 255 230 159 222 247 170 193 108 55 63 81 103 94 106
139 134 115 99 86 71 68 68 70 51 48 51 31 28 51 49 54 30 19 48 34 -21 8 1 53 93 97 65 72 88 90 137 156 172 155 186 212 148 107 166 81 67 94 61 111 103 62 44 70 118 144 134 101 100
191 167 127 121 97 85 75 70 67 63 53 51 51 37 64 73 70 67 59 56 37 29 38 18 29 51 43 80 101 110 148 167 164 158 180 185 182 172 189 241 131 159 88 47 77 110 80 101 111 111 133 113 94 72
236 215 174 159 143 125 103 86 69 57 58 54 72 60 82 90 94 95 89 90 72 79 74 42 48 76 90 129 142 125 156 161 176 198 225 171 153 199 153 101 47 40 80 84 50 63 79 70 78 110 152 156 124 113
298 232 207 190 187 178 156 117 81 71 67 60 90 97 87 100 91 87 108 106 107 121 98 133 106 54 104 99 101 120 127 136 170 176 165 162 113 95 78 57 79 126 73 70 77 83 52 52 65 93 93 92 92 76
346 336 310 254 234 205 190 161 132 91 114 97 100 93 75 92 67 74 85 134 173 207 280 163 165 172 152 113 74 98 105 66 83 90 124 107 77 35 14 68 35 24 11 25 69 131 143 128 88 64 52 48 52 56
130 124 104 108 124 155 162 150 113 110 121 120 129 128 85 64 74 101 102 104 98 96 91 61 80 122 125 160 152 124 142 120 129 107 113 71 -15 30 63 118 112 74 77 68 69 61 43 46 55 43 30 31 32 39
88 87 95 100 115 136 144 126 61 113 117 112 91 85 80 95 106 97 103 141 130 129 127 111 96 103 123 98 155 139 181 186 222 170 119 24 21 52 119 148 101 48 8 15 19 27 20 12 11 15 12 11 20 22
38 45 53 65 78 91 107 129 114 86 74 94 124 124 107 119 184 142 119 153 159 131 118 140 184 119 100 87 121 150 199 220 220 287 164 25 68 127 107 94 84 -6 -16 5 23 20 26 37 35 31 9 4 1 -3
50 58 67 74 79 93 104 111 97 100 109 119 124 164 136 156 143 108 112 120 78 95 125 131 150 147 117 151 151 221 176 221 332 285 45 102 121 44 69 82 107 67 10 17 60 69 54 41 39 42 34 25 14 -5
63 65 62 61 72 85 100 116 86 127 146 150 129 158 176 146 139 115 78 103 96 94 118 146 163 136 151 155 151 260 296 352 198 82 129 58 38 30 19 32 34 56 45 17 11 30 19 35 73 89 103 121 129 125
45 42 37 44 53 60 81 118 122 128 167 153 176 228 127 99 39 70 97 98 114 141 150 142 139 153 136 190 278 302 381 310 226 174 96 26 -58 -46 3 -58 -5 26 55 37 28 41 45 39 74 112 132 144 152 165
40 35 35 50 41 33 65 121 147 162 144 191 178 152 177 182 161 157 115 125 149 182 148 147 165 99 224 245 366 353 373 302 158 106 48 57 41 62 -3 -10 18 64 85 73 73 68 90 84 80 114 129 135 196 206
37 31 43 79 97 139 151 153 166 172 179 163 165 159 174 152 127 126 125 142 185 165 182 158 193 253 300 309 338 333 234 179 134 112 80 65 44 21 3 18 36 85 111 123 123 102 129 108 96 103 100 104 110 147
51 47 63 80 102 144 151 148 202 182 124 150 157 177 143 112 140 111 118 127 157 184 175 191 203 283 308 328 212 156 156 172 132 80 78 53 -36 -51 -56 53 120 156 148 96 73 82 113 131 152 136 131 133 150 126
42 34 46 56 120 171 175 201 198 203 174 134 187 158 150 147 131 140 108 120 203 190 186 260 226 238 220 178 202 204 158 122 109 102 73 50 68 90 101 128 158 159 139 55 34 58 78 68 101 123 154 155 161 133
90 75 48 108 177 173 182 179 185 193 203 196 136 150 126 152 142 161 164 186 230 208 201 231 218 191 192 225 215 185 183 182 186 172 183 173 135 118 139 144 141 113 120 87 97 87 81 104 102 109 119 129 154 214
145 113 167 165 169 162 183 204 298 269 233 204 200 144 141 172 173 177 170 240 207 211 240 218 226 232 230 197 191 170 170 152 131 135 119 143 165 179 151 135 126 112 113 137 127 127 143 147 124 118 144 169 152 169
166 187 176 179 183 189 184 234 253 251 260 241 215 187 190 186 176 175 171 126 172 178 199 214 212 218 213 192 191 191 161 161 207 226 234 242 219 177 163 144 132 132 128 129 171 209 203 144 138 133 141 132 145 125
206 211 210 204 216 243 271 269 318 281 276 297 269 254 259 216 208 197 172 181 161 163 173 168 206 208 192 169 188 195 191 177 188 216 218 187 135 134 149 139 119 117 168 168 162 166 165 139 91 125 134 97 98 94
190 206 270 306 281 270 324 371 337 322 299 271 257 226 209 193 178 212 187 147 192 181 201 206 213 237 220 161 145 143 134 150 209 183 198 123 126 171 140 122 150 229 191 145 144 153 120 85 111 155 128 118 76 48
212 189 249 248 354 365 336 327 305 309 324 287 239 244 328 282 268 228 247 243 229 205 223 243 237 186 179 202 159 140 134 119 135 156 159 119 143 166 134 133 122 65 82 138 146 104 65 54 72 92 90 90 30 16
286 271 251 275 311 339 301 304 296 302 255 293 345 346 284 269 270 335 287 270 275 224 193 208 217 174 162 147 129 129 125 103 102 103 110 91 116 215 170 133 144 109 79 112 128 89 30 19 34 52 87 164 109 81
246 253 313 340 337 313 291 298 292 310 334 362 391 368 362 385 345 317 313 239 222 226 196 201 219 199 203 211 193 163 140 126 118 129 117 99 154 180 170 156 165 9 9 46 54 59 62 24 39 38 79 165 90 113
302 319 311 287 366 309 306 332 341 378 387 404 373 279 305 328 310 251 259 287 269 298 262 234 208 235 234 240 231 221 194 160 169 93 77 104 4 37 121 104 119 121 131 67 12 46 37 17 16 -24 -54 161 131 123
246 309 352 364 386 378 382 422 372 326 268 281 291 263 247 246 295 324 298 274 264 260 257 248 254 242 230 210 193 154 171 185 183 180 158 150 69 60 14 65 99 102 100 68 18 17 19 2 15 91 153 153 167 142
265 299 284 296 247 224 267 239 263 262 235 220 260 259 244 177 81 104 115 145 248 294 269 271 256 236 243 237 245 218 132 107 85 100 155 174 151 102 93 61 45 62 88 66 42 48 34 18 41 66 103 76 124 113
256 211 221 224 206 230 298 301 269 231 126 123 121 170 153 169 182 164 274 349 262 253 231 212 210 147 176 242 239 226 182 150 117 100 87 109 127 165 164 90 42 50 69 54 34 49 73 59 55 72 71 96 114 118
247 262 240 215 174 160 227 181 10 14 51 86 151 214 282 353 282 360 275 349 326 283 211 203 192 203 211 206 196 207 200 205 136 82 -3 38 76 75 102 65 29 41 50 45 37 16 -9 -21 29 88 3 -4 76 119

GFSWCAN_con_3kmhel_120.txt.gz
Helicity
91 96 97 92 81 73 67 52 48 34 29 29 47 64 69 70 69 21 5 10 22 25 24 43 71 67 53 58 46 28 41 38 50 48 33 24 36 26 37 42 45 45 45 41 48 22 8 39 15 3 34 47 1 30
93 98 99 96 97 84 74 64 49 37 25 28 35 57 69 69 72 32 32 22 28 40 35 60 75 63 74 55 48 47 36 29 15 56 31 37 44 59 57 54 38 37 50 55 86 53 76 33 82 75 73 31 12 3
110 100 101 100 97 101 82 70 59 49 43 30 32 45 62 66 61 33 24 9 20 42 38 53 46 81 58 49 50 67 59 87 87 80 70 56 51 70 61 32 55 42 92 91 79 44 50 -20 34 48 28 28 -14 14
121 116 102 95 98 108 99 76 70 67 60 49 36 43 52 58 65 42 29 21 31 39 52 53 30 47 47 105 109 84 80 122 135 118 79 80 81 71 61 89 103 95 144 124 115 46 58 106 26 -5 14 25 6 28
129 126 114 96 101 109 108 90 83 83 74 69 59 45 45 54 60 47 36 56 55 57 64 40 71 99 110 84 112 131 128 136 115 94 91 74 93 104 128 128 85 90 105 130 71 78 35 65 64 29 16 44 57 51
141 130 124 112 102 103 111 104 97 97 92 82 57 41 48 51 51 42 42 54 43 21 45 54 56 84 129 150 133 148 122 101 108 103 103 128 155 128 100 100 19 50 115 107 67 65 72 54 41 36 36 47 47 61
119 113 135 130 129 114 111 117 104 96 82 64 45 42 54 64 64 69 64 64 62 47 55 33 60 71 66 80 89 90 110 105 123 138 150 167 147 142 160 145 88 117 62 68 65 63 91 113 125 137 107 99 77 66
129 131 128 137 147 130 115 114 105 100 89 73 56 59 70 91 86 83 99 112 98 104 103 66 79 87 91 92 96 111 126 145 158 152 152 129 137 144 88 80 120 104 124 104 151 100 50 69 101 101 87 89 90 68
97 99 107 129 157 158 132 111 102 111 86 89 104 101 79 93 88 79 103 132 133 145 133 115 113 54 103 95 88 100 118 123 140 167 148 132 132 102 92 125 158 161 190 203 235 162 107 133 148 158 136 96 98 95
143 128 154 187 198 163 150 125 116 115 128 137 142 113 64 60 61 76 113 154 183 198 245 162 181 169 147 143 126 102 99 106 126 117 114 112 83 55 99 159 215 210 231 194 168 179 147 170 163 159 125 81 57 70
104 249 293 281 184 195 165 161 144 189 184 188 156 140 139 113 92 117 127 137 133 132 158 151 131 191 192 189 166 141 143 142 138 149 159 147 96 167 222 277 293 254 204 144 97 63 38 45 59 33 36 40 74 99
335 308 291 298 284 299 235 242 254 248 181 180 178 171 149 138 144 145 143 136 122 125 155 138 137 130 158 162 190 182 234 217 228 183 181 143 141 259 350 402 360 241 179 137 80 59 41 25 18 18 33 61 94 118
600 534 510 465 361 375 326 197 253 265 325 354 301 244 190 190 177 127 112 140 148 140 124 123 156 150 153 143 180 178 188 203 173 191 180 149 253 332 377 317 271 196 135 119 103 68 57 50 24 13 16 105 157 158
430 386 363 346 335 406 336 293 317 342 368 333 260 266 202 192 169 127 153 154 139 135 126 137 168 169 162 200 201 236 204 193 247 249 145 172 131 223 236 202 139 155 109 58 46 52 42 37 31 82 140 109 97 109
254 272 304 341 311 332 307 192 188 226 315 334 258 218 179 183 191 158 136 160 152 153 178 218 217 188 223 238 203 271 275 317 237 148 183 252 301 272 244 197 171 84 47 -23 -62 -22 -4 44 88 87 105 99 115 119
220 236 273 160 142 124 113 112 118 150 232 239 240 244 177 201 150 100 76 92 95 138 166 191 243 274 243 262 321 310 406 344 222 170 167 183 160 69 33 -6 -52 -81 -82 -100 -51 8 57 106 120 115 115 126 129 112
70 193 2 -4 22 72 104 109 130 181 154 247 228 120 111 108 89 76 81 84 79 111 159 160 256 191 229 310 413 343 315 201 152 137 125 58 -28 -67 -121 -103 -89 -64 -2 49 78 113 133 147 167 169 140 130 130 132
15 16 -1 29 96 124 111 100 92 113 182 120 126 60 59 73 75 73 70 80 91 104 129 146 174 267 314 363 347 281 225 189 147 80 49 43 42 62 64 68 68 79 82 84 121 134 146 143 113 135 126 132 135 121
37 42 20 56 83 90 62 71 79 68 48 46 49 46 53 68 65 75 98 115 141 156 198 228 251 316 301 309 229 163 127 132 141 134 137 135 121 119 121 126 128 128 132 151 153 167 150 128 138 133 135 128 130 121
28 28 69 62 63 61 69 64 72 60 59 41 49 38 44 47 54 52 58 116 144 171 232 330 329 276 220 172 150 169 175 170 173 171 158 136 126 126 135 123 134 146 150 140 155 117 147 135 135 123 114 117 140 140
116 82 113 97 92 99 83 65 73 64 82 63 58 51 50 70 79 58 76 93 180 266 265 218 217 187 177 186 181 179 182 174 187 208 200 167 141 140 146 149 146 150 142 151 146 146 102 131 139 128 108 131 151 169
133 162 154 137 129 123 111 94 99 88 92 90 90 77 75 90 96 100 116 187 187 231 243 184 177 175 155 144 149 149 163 154 164 177 133 139 180 191 171 163 146 146 151 161 158 128 115 136 135 99 126 143 110 131
229 237 210 187 165 131 104 152 156 144 113 102 134 93 76 81 58 106 61 129 156 187 180 189 193 186 190 173 167 160 172 182 186 181 192 203 186 171 201 191 157 139 144 150 178 186 150 104 94 118 119 117 120 80
272 253 249 185 225 175 229 210 225 220 200 197 164 144 152 133 190 220 197 213 192 179 203 228 267 247 215 202 230 242 228 216 225 217 204 200 197 201 198 196 200 207 215 213 185 186 174 169 108 155 134 109 109 95
370 268 313 380 376 328 291 263 242 228 197 186 188 177 187 237 219 222 222 229 243 212 192 182 200 237 254 235 212 204 199 238 228 196 175 197 233 222 213 233 202 185 179 180 157 144 179 159 123 138 128 116 99 62
323 363 350 369 412 384 301 277 218 221 253 190 154 194 311 261 259 217 268 198 178 196 203 220 207 192 200 244 241 224 219 221 244 248 223 203 196 195 181 166 142 126 168 150 130 133 160 121 93 85 102 109 51 42
331 381 347 400 431 449 370 308 311 288 199 187 220 237 228 273 279 316 269 281 248 238 233 249 264 262 276 256 266 304 271 230 241 246 196 176 195 228 248 220 149 155 90 141 152 134 163 98 36 46 54 45 45 24
335 353 470 525 542 400 291 240 203 175 215 265 323 292 254 271 308 267 261 233 251 235 256 290 342 324 301 295 291 280 268 266 238 228 271 255 251 246 246 289 284 172 167 139 140 117 120 104 67 32 21 7 -6 17
376 319 365 405 347 246 216 239 233 253 298 354 325 322 341 299 224 237 237 252 254 267 269 275 286 268 219 186 152 187 178 190 242 215 197 212 171 116 177 174 166 176 182 152 83 98 75 91 71 58 3 -4 -3 -25
161 226 235 229 241 224 199 254 254 270 275 268 287 273 217 174 230 261 251 258 273 333 372 295 186 144 180 197 163 166 235 263 313 318 295 239 208 163 144 162 171 167 170 180 116 70 53 79 75 44 12 -9 -26 -48
127 181 170 177 146 163 199 262 254 218 249 241 236 243 161 116 -38 -7 167 276 289 236 228 205 175 200 228 238 253 241 193 220 242 237 270 279 230 181 146 134 128 135 166 156 94 33 55 26 -12 -9 -22 -37 -51 -63
135 126 158 153 148 131 184 184 205 176 189 212 181 233 205 186 87 -25 232 194 142 167 180 195 229 243 225 226 242 253 223 235 187 210 222 225 217 197 211 177 120 108 96 66 32 3 24 -8 1 -18 -24 -38 -41 -31
128 134 146 152 152 149 141 115 127 136 166 180 169 92 101 230 229 268 262 290 212 246 221 207 173 174 156 153 168 173 131 174 203 138 120 141 162 157 161 120 67 34 18 15 22 14 26 18 -3 -9 -20 -22 -4 -1

GFSWCAN_con_3kmhel_123.txt.gz
Helicity
84 71 81 97 93 75 72 62 58 56 52 49 49 52 50 53 60 35 19 16 28 24 28 44 48 55 53 50 46 33 46 32 43 33 23 17 30 28 45 46 46 60 75 44 59 40 23 83 46 28 53 38 18 27
85 79 94 104 105 88 81 74 66 59 57 51 48 53 58 58 62 31 42 22 22 44 34 57 67 74 42 46 50 36 26 38 36 40 22 33 30 48 46 40 40 32 38 41 62 48 80 57 30 61 43 19 4 35
102 96 102 111 111 104 98 90 73 66 65 57 50 49 54 62 60 40 26 16 24 40 44 55 48 61 85 57 24 53 45 73 72 82 74 53 29 51 45 24 38 36 95 72 66 74 81 40 53 84 6 5 25 28
97 100 107 106 112 118 108 107 88 74 74 74 53 47 48 59 65 41 34 19 31 50 57 46 39 48 36 58 73 103 95 89 101 109 116 103 68 59 49 58 83 82 104 101 89 64 70 104 103 -15 7 26 35 55
103 85 107 110 106 135 126 120 102 87 81 74 59 54 48 60 64 51 33 52 41 49 54 49 63 88 100 104 128 134 113 124 118 116 103 79 105 113 101 124 104 112 109 131 96 55 40 85 63 52 59 74 86 72
126 106 117 107 138 140 143 131 111 94 90 80 68 69 59 61 50 51 58 47 33 36 47 51 43 87 119 137 161 155 148 144 139 92 82 77 122 124 102 105 74 124 178 125 96 63 60 34 13 32 75 84 80 65
154 129 114 128 143 134 148 133 113 99 93 77 73 104 70 67 60 62 60 51 50 39 54 49 59 60 72 78 84 99 117 112 104 106 104 124 114 131 152 167 148 194 123 93 69 61 86 98 124 125 87 72 53 35
167 134 113 129 139 144 140 135 124 104 92 75 86 101 97 84 66 72 79 82 81 80 86 77 93 119 109 107 111 108 110 122 136 122 138 126 134 162 110 87 125 113 155 160 162 141 122 129 126 113 89 73 98 105
173 149 138 125 137 139 160 131 119 119 95 112 118 92 96 91 70 45 59 82 95 113 112 135 154 112 122 127 114 113 104 113 121 145 146 136 146 108 126 162 149 187 219 190 158 155 164 171 146 125 104 90 91 100
163 159 140 126 135 148 155 151 130 123 144 139 174 141 92 85 71 64 78 101 121 163 246 212 253 231 192 138 121 121 113 126 155 137 139 143 107 106 128 177 234 248 232 201 225 257 233 207 154 120 74 49 33 53
133 102 127 104 146 182 192 175 163 180 190 176 160 164 130 87 88 98 103 134 123 112 140 137 134 176 159 194 167 125 136 137 140 158 191 195 178 178 260 311 300 280 243 252 263 237 182 142 118 71 50 34 17 18
132 110 110 170 183 179 213 194 180 249 177 148 160 171 152 127 124 125 131 138 96 104 133 107 85 95 128 151 167 142 175 172 185 186 218 209 186 187 248 332 373 350 319 275 240 231 201 144 83 42 46 61 65 72
130 172 201 270 219 239 250 222 262 233 355 403 258 196 127 150 169 156 157 149 133 132 116 102 104 102 115 117 158 155 159 190 193 200 207 219 206 289 364 360 321 260 230 204 199 175 143 105 65 59 50 45 72 91
302 310 326 269 317 217 216 322 286 456 353 299 218 192 163 149 143 221 239 210 176 135 122 138 162 158 150 171 177 205 189 193 229 249 246 149 242 372 343 285 210 187 165 132 108 45 6 -21 -45 -29 -18 -32 41 92
528 521 509 525 410 481 276 303 418 478 457 311 236 210 243 294 333 258 251 235 169 142 143 170 194 179 204 222 217 281 259 267 233 207 136 190 283 258 192 142 121 132 92 44 -5 -27 -39 -50 -45 7 25 57 112 115
485 540 359 384 313 281 357 372 360 450 491 397 342 312 271 291 295 236 183 170 106 135 149 175 216 248 245 289 317 313 369 307 230 154 97 199 254 197 128 100 49 -2 -47 -75 -86 -68 -42 -26 24 73 90 104 127 133
441 565 334 358 416 290 280 439 471 485 319 389 413 351 279 277 270 157 103 95 90 116 180 189 265 242 266 267 320 316 278 174 93 112 177 217 175 130 87 68 11 -14 14 43 65 84 105 109 123 131 113 111 130 141
382 234 166 198 287 372 472 427 420 329 352 296 285 192 133 138 113 91 64 57 78 96 115 150 150 216 218 227 203 163 160 177 186 168 145 118 92 67 80 113 106 98 108 122 139 137 137 131 130 149 130 144 147 160
142 107 14 66 143 263 364 273 237 280 263 155 114 66 60 51 46 78 93 104 118 129 154 177 175 175 197 200 133 117 126 139 149 140 135 132 108 112 129 159 155 155 156 168 158 146 133 123 143 126 153 159 162 147
-23 -7 54 35 8 61 186 132 8 124 166 47 23 22 30 40 53 61 67 80 105 136 163 153 169 195 191 169 181 175 165 155 170 159 149 138 152 155 173 182 197 188 198 177 162 98 141 139 144 149 134 128 123 144
89 57 96 53 42 25 2 -0 17 14 21 42 60 68 66 54 62 83 77 92 115 109 122 124 171 160 177 175 166 165 182 194 216 229 226 202 171 165 192 215 224 218 194 165 154 149 118 164 156 143 132 137 134 133
95 89 79 73 42 47 37 44 50 64 74 59 66 76 82 75 73 82 111 138 129 128 136 130 128 139 134 137 155 176 177 162 170 188 154 163 197 197 195 189 181 202 204 206 184 168 148 134 143 138 133 150 125 147
136 126 97 84 71 72 55 70 79 68 64 61 98 77 61 71 69 97 87 85 120 161 153 181 180 206 222 201 198 188 192 187 189 189 185 185 194 193 201 211 208 199 195 180 174 181 187 137 131 127 132 116 129 126
142 129 97 72 104 83 92 88 106 123 137 147 111 93 85 63 104 132 141 161 203 184 226 230 269 230 188 178 194 175 176 185 199 199 203 212 198 199 202 189 174 173 194 203 195 194 202 203 130 129 146 139 108 106
172 132 149 147 178 165 146 142 164 173 160 149 148 121 100 132 149 169 166 183 195 190 203 228 228 202 202 186 179 189 180 222 220 207 182 207 238 243 228 230 222 231 231 242 233 228 206 170 156 146 144 157 116 86
238 272 219 207 249 244 213 156 154 186 211 152 100 165 191 196 225 185 197 163 189 207 222 213 195 201 209 254 251 219 208 223 251 245 252 253 247 247 239 227 223 203 255 271 233 192 171 166 164 138 110 93 47 38
356 363 360 409 319 339 323 312 314 290 187 173 200 214 211 231 198 243 212 244 241 234 263 274 279 280 285 268 256 283 262 241 258 257 229 225 236 248 306 314 253 237 172 172 237 217 178 148 126 89 79 64 60 58
219 214 341 394 382 377 332 289 249 220 271 341 387 307 228 210 238 268 238 213 257 294 323 307 355 408 342 324 295 264 236 219 202 198 209 219 257 265 243 257 256 163 174 142 144 153 137 116 103 65 59 46 8 10
122 106 155 221 281 281 268 286 294 350 372 315 257 256 252 252 270 235 225 282 316 304 304 297 265 223 241 268 269 250 269 250 238 203 191 210 166 160 214 198 194 186 169 125 75 70 75 120 121 92 29 13 -17 4
84 132 172 180 202 203 200 225 184 152 246 264 235 233 209 196 214 243 305 266 268 288 277 253 235 236 214 175 147 162 249 241 257 267 250 215 240 199 164 171 173 171 168 167 134 86 61 74 108 85 22 16 13 -5
171 230 179 166 109 130 171 199 201 159 169 154 188 227 229 236 167 179 214 283 261 220 222 202 205 191 151 141 192 193 164 174 176 181 232 276 217 205 215 183 151 157 153 150 141 102 75 108 83 28 9 6 3 -21
143 109 129 108 113 93 131 98 114 108 148 201 190 244 238 257 242 125 45 197 222 231 196 177 223 181 192 207 202 225 160 170 148 145 104 143 160 168 182 172 146 122 112 143 127 65 20 -2 12 -0 25 31 8 -21
132 120 122 93 85 77 108 119 123 123 163 200 182 187 214 210 193 163 113 201 208 205 229 231 236 256 226 223 216 201 146 153 127 99 65 52 58 58 48 89 108 117 101 86 70 27 -0 7 20 27 27 28 -0 -24

GFSWCAN_con_3kmhel_126.txt.gz
Helicity
79 78 66 62 58 64 66 71 68 60 56 54 50 49 56 59 60 27 36 18 15 20 33 30 32 38 45 34 34 42 32 30 33 2 -6 -2 -4 16 21 48 41 43 60 57 72 66 66 63 77 16 56 35 14 19
78 95 77 73 56 69 72 74 77 66 59 59 55 53 55 56 62 38 42 32 25 32 45 54 63 60 52 35 44 44 24 21 26 29 20 35 35 43 40 42 49 43 51 39 20 41 54 81 95 54 64 34 21 22
77 75 79 85 67 72 79 72 86 73 63 64 59 55 56 58 65 53 52 40 31 37 42 41 41 54 63 71 61 47 37 59 58 46 49 56 44 66 51 36 63 31 63 56 69 75 65 96 85 82 48 31 32 26
110 74 77 59 77 77 89 85 91 78 68 64 53 59 57 62 68 53 54 38 39 53 53 55 47 50 37 46 39 68 83 113 111 89 95 86 84 72 65 79 77 91 111 85 70 76 88 101 107 75 72 51 44 48
156 101 77 52 76 87 92 101 98 84 73 74 65 65 70 73 83 75 65 58 37 48 64 56 56 71 80 77 94 101 113 120 107 103 112 98 107 93 96 89 84 121 106 110 77 115 131 121 107 79 92 96 109 110
175 132 105 66 83 95 103 113 108 96 80 81 83 72 75 73 70 68 67 52 58 58 69 49 48 59 98 124 131 141 139 138 144 116 109 106 129 97 105 105 76 65 80 123 148 111 90 66 99 115 132 126 90 56
174 181 130 108 73 107 106 119 120 102 96 95 94 93 91 82 95 89 107 90 54 44 65 68 57 54 49 79 97 109 131 132 137 132 123 136 113 121 152 161 111 104 148 163 129 108 115 109 119 118 105 82 60 28
186 211 167 161 127 97 117 142 135 105 105 104 121 103 115 118 102 101 105 95 78 100 101 118 101 78 98 93 106 119 113 122 136 137 97 110 123 173 134 107 115 166 166 160 148 153 178 163 161 165 141 112 116 99
181 232 201 196 170 110 151 145 156 134 128 130 133 114 128 123 110 85 88 102 111 132 138 137 142 102 106 111 120 111 125 128 130 143 147 125 144 136 123 87 95 106 115 164 215 223 226 225 209 200 170 141 119 95
192 265 229 210 187 129 162 137 199 187 155 159 198 190 171 121 103 69 83 111 144 191 220 156 184 198 172 161 128 111 111 125 146 140 123 141 150 133 131 185 214 216 236 243 253 255 240 228 208 189 163 119 72 45
188 268 231 217 191 149 189 151 219 259 220 240 257 254 177 119 118 123 134 157 161 181 133 157 159 198 176 192 180 131 148 128 142 159 166 171 147 124 172 209 262 272 280 274 242 221 195 178 169 143 120 85 52 24
203 240 225 219 220 175 191 193 264 456 360 267 179 245 239 234 201 168 172 211 192 181 151 134 135 133 140 141 153 126 148 147 172 174 197 197 187 207 267 320 322 295 261 259 227 200 187 165 135 105 68 32 8 -6
247 222 217 223 184 229 185 190 279 359 425 478 403 318 201 213 235 204 229 267 215 151 159 157 163 155 149 127 155 133 127 161 166 183 218 203 238 269 320 321 265 270 266 239 180 124 95 87 72 34 5 0 -3 -7
212 197 175 148 190 144 243 297 356 434 393 332 271 245 253 228 188 238 193 161 177 157 142 165 193 184 149 153 162 158 164 164 196 210 176 147 195 287 265 254 221 190 158 119 80 72 76 72 31 3 -9 -17 -15 21
217 200 177 147 146 211 314 447 505 610 367 252 286 178 200 245 191 152 181 221 214 194 230 240 232 169 195 206 174 194 161 189 159 156 137 122 229 214 180 144 127 113 101 91 82 82 54 33 34 39 36 43 61 80
341 328 265 253 335 410 544 713 725 540 543 345 296 294 269 259 277 250 232 264 233 221 223 231 244 215 228 243 241 234 269 227 220 172 122 168 221 165 146 123 114 109 104 84 60 55 47 44 53 67 85 94 104 98
500 559 434 399 618 619 655 666 591 483 321 311 336 327 325 342 295 268 259 241 145 198 272 256 249 263 253 238 276 262 221 172 144 105 61 97 115 124 129 137 147 133 108 84 58 43 84 106 107 125 118 103 123 131
816 584 556 673 791 772 782 591 500 433 363 342 341 362 365 352 288 289 244 162 164 168 181 216 174 231 234 208 170 122 111 114 125 137 148 153 140 117 109 116 121 122 121 126 139 146 154 146 130 130 96 110 109 110
390 350 375 498 529 661 528 481 508 469 452 385 299 284 335 355 301 193 149 113 126 122 122 145 180 161 135 111 86 93 98 107 91 69 78 74 78 88 100 123 145 158 161 160 151 152 136 114 124 119 123 100 104 108
164 195 294 414 472 590 534 411 361 346 298 278 262 273 219 148 87 73 79 81 93 84 103 96 76 88 109 114 133 128 128 122 115 111 105 99 89 84 113 132 133 125 142 132 129 91 108 101 99 116 132 113 99 110
224 279 321 382 483 370 234 313 353 321 291 273 102 98 85 49 71 66 74 94 101 74 69 87 96 78 79 89 92 113 132 164 148 129 113 104 102 113 125 129 121 129 138 137 132 118 103 137 130 125 139 121 137 135
112 90 180 210 420 396 291 136 149 70 127 91 54 46 42 51 67 89 111 146 116 71 126 101 80 75 74 88 123 162 137 132 131 145 108 112 146 138 124 130 141 153 146 156 162 160 161 158 143 147 155 154 130 157
55 47 37 28 79 113 85 43 27 30 41 43 71 73 68 76 88 119 116 122 96 53 89 81 79 134 132 134 178 156 148 142 146 137 139 167 159 163 189 181 180 186 204 214 215 225 231 172 162 146 150 137 138 137
71 47 40 45 44 36 31 44 63 65 50 53 67 70 67 72 94 106 92 103 102 103 130 111 144 129 138 158 177 160 149 154 170 159 175 180 176 187 193 193 202 228 270 221 197 210 198 201 138 148 151 146 140 142
91 77 66 60 69 65 69 72 82 81 75 78 86 77 50 79 94 105 113 112 119 131 135 152 174 181 170 155 178 163 152 201 190 179 183 196 182 184 196 200 193 226 185 176 211 195 166 139 142 149 146 132 123 112
80 49 29 38 97 99 84 70 78 122 126 81 64 119 137 157 155 100 151 146 120 142 134 159 173 186 209 239 211 199 187 182 238 244 259 229 234 240 216 197 178 155 183 196 177 153 139 136 135 126 110 80 58 69
141 106 146 212 205 204 199 198 203 138 60 23 73 142 151 161 119 154 219 137 175 193 204 207 251 271 240 212 224 230 244 240 281 255 228 220 247 248 232 246 231 210 187 173 184 189 166 145 127 98 76 71 84 84
263 193 195 227 236 242 183 142 120 77 80 162 257 211 117 123 152 165 136 184 194 181 222 236 294 330 298 247 222 199 180 168 173 179 206 178 227 207 196 212 206 154 176 164 152 144 148 139 134 101 49 25 -22 57
169 117 157 183 200 162 137 150 134 145 194 218 207 207 241 225 160 178 148 197 216 219 206 210 192 228 196 208 219 216 209 196 184 184 181 186 72 147 157 161 179 204 198 180 108 111 108 112 108 104 66 28 24 45
104 102 145 147 134 90 111 147 131 121 149 184 195 186 152 132 138 165 172 159 184 213 215 199 213 165 184 176 141 107 185 200 217 236 251 211 186 155 137 151 168 194 208 211 212 204 105 85 93 97 79 63 44 16
174 212 194 131 100 105 120 106 147 162 173 164 188 166 118 106 56 64 158 220 214 218 213 199 203 219 211 168 175 177 208 223 225 210 202 196 187 183 155 151 144 172 196 219 206 198 167 144 123 110 48 -1 11 1
148 134 145 136 145 146 134 122 123 102 121 146 108 175 198 245 234 200 241 202 225 234 166 165 172 132 196 222 199 209 189 238 265 254 234 192 182 153 127 119 144 137 108 113 120 117 107 80 29 2 11 20 26 14
83 88 102 100 97 50 70 98 105 95 117 139 139 173 217 229 209 173 143 210 232 187 190 196 201 199 182 189 207 206 188 222 185 149 133 131 93 69 67 96 91 57 27 16 71 89 97 93 76 68 63 46 38 20